[[{"header":{"parameterUnit":"m.s-1","parameterCategory":1,"la1":31.0,"la2":29.5877,"lo1":-88.7671,"lo2":-86.6584,"dx":0.0162,"dy":0.0185,"nx":115,"ny":88,"refTime":"2023-01-07T18:00:00:Z","depth":0,"parameterNumber":2,"parameterNumberName":"U-component_of_WINDS"},"data":[0.0,0.0,0.0,0.0,0.0,0.0,0.0,0.0,0.0,0.0,0.0,0.0,0.0,0.0,0.0,0.0,0.0,0.0,0.0,0.0,0.0,0.0,0.0,0.0,0.0,0.0,0.0,0.0,0.0,0.0,0.0,0.0,0.0,0.0,0.0,0.0,0.0,0.0,0.0,0.0,0.0,0.0,0.0,0.0,0.0,0.0,0.0,0.0,0.0,0.0,0.0,0.0,0.0,0.0,0.0,0.0,0.0,0.0,0.0,0.0,0.0,0.0,0.0,0.0,0.0,0.0,0.0,0.0,0.0,0.0,0.0,0.0,0.0,0.0,0.0,0.0,0.0,0.0,0.0,0.0,0.0,0.0,0.0,0.0,0.0,0.0,0.0,0.0,0.0,0.0,0.0,0.0,0.0,0.0,0.0,0.0,0.0,0.0,0.0,0.0,0.0,0.0,0.0,0.0,0.0,0.0,0.0,0.0,0.0,0.0,0.0,0.0,0.0,0.0,0.0,0.0,0.0,0.0,0.0,0.0,0.0,0.0,0.0,0.0,0.0,0.0,0.0,0.0,0.0,0.0,0.0,0.0,0.0,0.0,0.0,0.0,0.0,0.0,0.0,0.0,0.0,0.0,0.0,0.0,0.0,0.0,0.0,0.0,0.0,0.0,0.0,0.0,0.0,0.0,0.0,0.0,0.0,0.0,0.0,0.0,0.0,0.0,0.0,0.0,0.0,0.0,0.0,0.0,0.0,0.0,0.0,0.0,0.0,0.0,0.0,0.0,0.0,0.0,0.0,0.0,0.0,0.0,0.0,0.0,0.0,0.0,0.0,0.0,0.0,0.0,0.0,0.0,0.0,0.0,0.0,0.0,0.0,0.0,0.0,0.0,0.0,0.0,0.0,0.0,0.0,0.0,0.0,0.0,0.0,0.0,0.0,0.0,0.0,0.0,0.0,0.0,0.0,0.0,0.0,0.0,0.0,0.0,0.0,0.0,0.0,0.0,0.0,0.0,0.0,0.0,0.0,0.0,0.0,0.0,0.0,0.0,0.0,0.0,0.0,0.0,0.0,0.0,0.0,0.0,0.0,0.0,0.0,0.0,0.0,0.0,0.0,0.0,0.0,0.0,0.0,0.0,0.0,0.0,0.0,0.0,0.0,0.0,0.0,0.0,0.0,0.0,0.0,0.0,0.0,0.0,0.0,0.0,0.0,0.0,0.0,0.0,0.0,0.0,0.0,0.0,0.0,0.0,0.0,0.0,0.0,0.0,0.0,0.0,0.0,0.0,0.0,0.0,0.0,0.0,0.0,0.0,0.0,0.0,0.0,0.0,0.0,0.0,0.0,0.0,0.0,0.0,0.0,0.0,0.0,0.0,0.0,0.0,0.0,0.0,0.0,0.0,0.0,0.0,0.0,0.0,0.0,0.0,0.0,0.0,0.0,0.0,0.0,0.0,0.0,0.0,0.0,0.0,0.0,0.0,0.0,0.0,0.0,0.0,0.0,0.0,0.0,0.0,0.0,0.0,0.0,0.0,0.0,0.0,0.0,0.0,0.0,0.0,0.0,0.0,0.0,0.0,0.0,0.0,0.0,0.0,0.0,0.0,0.0,0.0,0.0,0.0,0.0,0.0,0.0,0.0,0.0,0.0,0.0,0.0,0.0,0.0,0.0,0.0,0.0,0.0,0.0,0.0,0.0,0.0,0.0,0.0,0.0,0.0,0.0,0.0,0.0,0.0,0.0,0.0,0.0,0.0,0.0,0.0,0.0,0.0,0.0,0.0,0.0,0.0,0.0,0.0,0.0,0.0,0.0,0.0,0.0,0.0,0.0,0.0,0.0,0.0,0.0,0.0,0.0,0.0,0.0,0.0,0.0,0.0,0.0,0.0,0.0,0.0,0.0,0.0,0.0,0.0,0.0,0.0,0.0,0.0,0.0,0.0,0.0,0.0,0.0,0.0,0.0,0.0,0.0,0.0,0.0,0.0,0.0,0.0,0.0,0.0,0.0,0.0,0.0,0.0,0.0,0.0,0.0,0.0,0.0,0.0,0.0,0.0,0.0,0.0,0.0,0.0,0.0,0.0,0.0,0.0,0.0,0.0,0.0,0.0,0.0,0.0,0.0,0.0,0.0,0.0,0.0,0.0,0.0,0.0,0.0,0.0,0.0,0.0,0.0,0.0,0.0,0.0,0.0,0.0,0.0,0.0,0.0,0.0,0.0,0.0,0.0,0.0,0.0,0.0,0.0,0.0,0.0,0.0,0.0,0.0,0.0,0.0,0.0,0.0,0.0,0.0,0.0,0.0,0.0,0.0,0.0,0.0,0.0,0.0,0.0,0.0,0.0,0.0,0.0,0.0,0.0,0.0,0.0,0.0,0.0,0.0,0.0,0.0,0.0,0.0,0.0,0.0,0.0,0.0,0.0,0.0,0.0,0.0,0.0,0.0,0.0,0.0,0.0,0.0,0.0,0.0,0.0,0.0,0.0,0.0,0.0,0.0,0.0,0.0,0.0,0.0,0.0,0.0,0.0,0.0,0.0,0.0,0.0,0.0,0.0,0.0,0.0,0.0,0.0,0.0,0.0,0.0,0.0,0.0,0.0,0.0,0.0,0.0,0.0,0.0,0.0,0.0,0.0,0.0,0.0,0.0,0.0,0.0,0.0,0.0,0.0,0.0,0.0,0.0,0.0,0.0,0.0,0.0,0.0,0.0,0.0,0.0,0.0,0.0,0.0,0.0,0.0,0.0,0.0,0.0,0.0,0.0,0.0,0.0,0.0,0.0,0.0,0.0,0.0,0.0,0.0,0.0,0.0,0.0,0.0,0.0,0.0,0.0,0.0,0.0,0.0,0.0,0.0,0.0,0.0,0.0,0.0,0.0,0.0,0.0,0.0,0.0,0.0,0.0,0.0,0.0,0.0,0.0,0.0,0.0,0.0,0.0,0.0,0.0,0.0,0.0,0.0,0.0,0.0,0.0,0.0,0.0,0.0,0.0,0.0,0.0,0.0,0.0,0.0,0.0,0.0,0.0,0.0,0.0,0.0,0.0,0.0,0.0,0.0,0.0,0.0,0.0,0.0,0.0,0.0,0.0,0.0,0.0,0.0,0.0,0.0,0.0,0.0,0.0,0.0,0.0,0.0,0.0,0.0,0.0,0.0,0.0,0.0,0.0,0.0,0.0,0.0,0.0,0.0,0.0,0.0,0.0,0.0,0.0,0.0,0.0,0.0,0.0,0.0,0.0,0.0,0.0,0.0,0.0,0.0,0.0,0.0,0.0,0.0,0.0,0.0,0.0,0.0,0.0,0.0,0.0,0.0,0.0,0.0,0.0,0.0,0.0,0.0,0.0,0.0,0.0,0.0,0.0,0.0,0.0,0.0,0.0,0.0,0.0,0.0,0.0,0.0,0.0,0.0,0.0,0.0,0.0,0.0,0.0,0.0,0.0,0.0,0.0,0.0,0.0,0.0,0.0,0.0,0.0,0.0,0.0,0.0,0.0,0.0,0.0,0.0,0.0,0.0,0.0,0.0,0.0,0.0,0.0,0.0,0.0,0.0,0.0,0.0,0.0,0.0,0.0,0.0,0.0,0.0,0.0,0.0,0.0,0.0,0.0,0.0,0.0,0.0,0.0,0.0,0.0,0.0,0.0,0.0,0.0,0.0,0.0,0.0,0.0,0.0,0.0,0.0,0.0,0.0,0.0,0.0,0.0,0.0,0.0,0.0,0.0,0.0,0.0,0.0,0.0,0.0,0.0,0.0,0.0,0.0,0.0,0.0,0.0,0.0,0.0,0.0,0.0,0.0,0.0,0.0,0.0,0.0,0.0,0.0,0.0,0.0,0.0,0.0,0.0,0.0,0.0,0.0,0.0,0.0,0.0,0.0,0.0,0.0,0.0,0.0,0.0,0.0,0.0,0.0,0.0,0.0,0.0,0.0,0.0,0.0,0.0,0.0,0.0,0.0,0.0,0.0,0.0,0.0,0.0,0.0,0.0,0.0,0.0,0.0,0.0,0.0,0.0,0.0,0.0,0.0,0.0,0.0,0.0,0.0,0.0,0.0,0.0,0.0,0.0,0.0,0.0,0.0,0.0,0.0,0.0,0.0,0.0,0.0,0.0,0.0,0.0,0.0,0.0,0.0,0.0,0.0,0.0,0.0,0.0,0.0,0.0,0.0,0.0,0.0,0.0,0.0,0.0,0.0,0.0,0.0,0.0,0.0,0.0,0.0,0.0,0.0,0.0,0.0,0.0,0.0,0.0,-0.1952,0.0,0.0,0.0,-0.2126,0.0,0.0,0.0,0.0,0.0,0.0,0.0,0.0,0.0,0.0,0.0,0.0,0.0,0.0,0.0,0.0,0.0,0.0,0.0,0.0,0.0,0.0,0.0,0.0,0.0,0.0,0.0,0.0,0.0,0.0,0.0,0.0,0.0,0.0,0.0,0.0,0.0,0.0,0.0,0.0,0.0,0.0,0.0,0.0,0.0,0.0,0.0,0.0,0.0,0.0,0.0,0.0,0.0,0.0,0.0,0.0,0.0,0.0,0.0,0.0,0.0,0.0,0.0,0.0,0.0,0.0,0.0,0.0,0.0,0.0,0.0,0.0,0.0,0.0,0.0,0.0,0.0,0.0,0.0,0.0,0.0,0.0,0.0,0.0,0.0,0.0,0.0,0.0,0.0,0.0,0.0,0.0,0.0,0.0,0.0,0.0,0.0,0.0,0.0,0.0,0.0,0.0,0.0,0.0,0.0,0.0,0.0,0.0,0.0,0.0,-0.1594,-0.1831,-0.1749,-0.1826,-0.2032,0.0,0.0,0.0,0.0,0.0,0.0,0.0,0.0,0.0,0.0,0.0,0.0,0.0,0.0,0.0,0.0,0.0,0.0,0.0,0.0,0.0,0.0,0.0,0.0,0.0,0.0,0.0,0.0,0.0,0.0,0.0,0.0,0.0,0.0,0.0,0.0,0.0,0.0,0.0,0.0,0.0,0.0,0.0,0.0,0.0,0.0,0.0,0.0,0.0,0.0,0.0,0.0,0.0,0.0,0.0,0.0,0.0,0.0,0.0,0.0,0.0,0.0,0.0,0.0,0.0,0.0,0.0,0.0,0.0,0.0,0.0,0.0,0.0,0.0,0.0,0.0,0.0,0.0,0.0,0.0,0.0,0.0,0.0,0.0,0.0,0.0,0.0,0.0,0.0,0.0,0.0,0.0,0.0,0.0,0.0,0.0,0.0,0.0,0.0,0.0,0.0,0.0,0.0,0.0,0.0,0.0,0.0,0.0,0.0,0.0,0.0,0.0,-0.1719,-0.1815,-0.2027,0.0,0.0,0.0,0.0,0.0,0.0,0.0,0.0,0.0,0.0,0.0,0.0,0.0,0.0,0.0,0.0,0.0,0.0,0.0,0.0,0.0,0.0,0.0,0.0,0.0,0.0,0.0,0.0,0.0,0.0,0.0,0.0,0.0,0.0,0.0,0.0,0.0,0.0,0.0,0.0,0.0,0.0,0.0,0.0,0.0,0.0,0.0,0.0,0.0,0.0,0.0,0.0,0.0,0.0,0.0,0.0,0.0,0.0,0.0,0.0,0.0,0.0,0.0,0.0,0.0,0.0,0.0,0.0,0.0,0.0,0.0,0.0,0.0,0.0,0.0,0.0,0.0,0.0,0.0,0.0,0.0,0.0,0.0,0.0,0.0,0.0,0.0,0.0,0.0,0.0,0.0,0.0,0.0,0.0,0.0,0.0,0.0,0.0,0.0,0.0,0.0,0.0,0.0,0.0,0.0,0.0,0.0,0.0,0.0,0.0,-0.1336,-0.1616,-0.1505,0.0,-0.1875,0.0,0.0,0.0,0.0,0.0,0.0,0.0,0.0,0.0,0.0,0.0,0.0,0.0,0.0,0.0,0.0,0.0,0.0,0.0,0.0,0.0,0.0,0.0,0.0,0.0,0.0,0.0,0.0,0.0,0.0,0.0,0.0,0.0,0.0,0.0,0.0,0.0,0.0,0.0,0.0,0.0,0.0,0.0,0.0,0.0,0.0,0.0,0.0,0.0,0.0,0.0,0.0,0.0,0.0,0.0,0.0,0.0,0.0,0.0,0.0,0.0,0.0,0.0,0.0,0.0,0.0,0.0,0.0,0.0,0.0,0.0,0.0,0.0,0.0,0.0,0.0,0.0,0.0,0.0,0.0,0.0,0.0,0.0,0.0,0.0,0.0,0.0,0.0,0.0,0.0,0.0,0.0,0.0,0.0,0.0,0.0,0.0,0.0,0.0,0.0,0.0,0.0,0.0,0.0,0.0,0.0,0.0,0.0,0.0,0.0,-0.1442,-0.1718,-0.1663,-0.1621,0.0,0.0,0.0,0.0,0.0,0.0,0.0,0.0,0.0,0.0,0.0,0.0,0.0,0.0,0.0,0.0,0.0,0.0,0.0,0.0,0.0,0.0,0.0,0.0,0.0,0.0,0.0,0.0,0.0,0.0,0.0,0.0,0.0,0.0,0.0,0.0,0.0,0.0,0.0,0.0,0.0,0.0,0.0,0.0,0.0,0.0,0.0,0.0,0.0,0.0,0.0,0.0,0.0,0.0,0.0,0.0,0.0,0.0,0.0,0.0,0.0,0.0,0.0,0.0,0.0,0.0,0.0,0.0,0.0,0.0,0.0,0.0,0.0,0.0,0.0,0.0,0.0,0.0,0.0,0.0,0.0,0.0,0.0,0.0,0.0,0.0,0.0,0.0,0.0,0.0,0.0,0.0,0.0,0.0,0.0,0.0,0.0,0.0,0.0,0.0,0.0,0.0,0.0,0.0,0.0,0.0,0.0,0.0,0.0,0.0,-0.1418,-0.1481,-0.1624,-0.1703,-0.1604,-0.1352,0.0,0.0,0.0,0.0,0.0,0.0,0.0,0.0,0.0,0.0,0.0,0.0,0.0,0.0,0.0,0.0,0.0,0.0,0.0,0.0,0.0,0.0,0.0,0.0,0.0,0.0,0.0,0.0,0.0,0.0,0.0,0.0,0.0,0.0,0.0,0.0,0.0,0.0,0.0,0.0,0.0,0.0,0.0,0.0,0.0,0.0,0.0,0.0,0.0,0.0,0.0,0.0,0.0,0.0,0.0,0.0,0.0,0.0,0.0,0.0,0.0,0.0,0.0,0.0,0.0,0.0,0.0,0.0,0.0,0.0,0.0,0.0,0.0,0.0,0.0,0.0,0.0,0.0,0.0,0.0,0.0,0.0,0.0,0.0,0.0,0.0,0.0,0.0,0.0,0.0,0.0,0.0,0.0,0.0,0.0,0.0,0.0,0.0,0.0,0.0,0.0,0.0,0.0,0.0,0.0,0.0,0.0,0.0,-0.135,-0.1371,-0.1353,-0.125,-0.1481,-0.148,0.0,0.0,0.0,0.0,0.0,0.0,0.0,0.0,0.0,0.0,0.0,0.0,0.0,0.0,0.0,0.0,0.0,0.0,0.0,0.0,0.0,0.0,0.0,0.0,0.0,0.0,0.0,0.0,0.0,0.0,0.0,0.0,0.0,0.0,0.0,0.0,0.0,0.0,0.0,0.0,0.0,0.0,0.0,0.0,0.0,0.0,0.0,0.0,0.0,0.0,0.0,0.0,0.0,0.0,0.0,0.0,0.0,0.0,0.0,0.0,0.0,0.0,0.0,0.0,0.0,0.0,0.0,0.0,0.0,0.0,0.0,0.0,0.0,0.0,0.0,0.0,0.0,0.0,0.0,0.0,0.0,0.0,0.0,0.0,0.0,0.0,0.0,0.0,0.0,0.0,0.0,0.0,0.0,0.0,0.0,0.0,0.0,0.0,0.0,0.0,0.0,0.0,0.0,0.0,0.0,0.0,0.0,0.0,0.0,-0.1772,-0.1487,-0.1262,-0.1131,-0.1064,-0.0925,0.0,0.0,0.0,0.0,0.0,0.0,0.0,0.0,0.0,0.0,0.0,0.0,0.0,0.0,0.0,0.0,0.0,0.0,0.0,0.0,0.0,0.0,0.0,0.0,0.0,0.0,0.0,0.0,0.0,0.0,0.0,0.0,0.0,0.0,0.0,0.0,0.0,0.0,0.0,0.0,0.0,0.0,0.0,0.0,0.0,0.0,0.0,0.0,0.0,0.0,0.0,0.0,0.0,0.0,0.0,0.0,0.0,0.0,0.0,0.0,0.0,0.0,0.0,0.0,0.0,0.0,0.0,0.0,0.0,0.0,0.0,0.0,0.0,0.0,0.0,0.0,0.0,0.0,0.0,0.0,0.0,0.0,0.0,0.0,0.0,0.0,0.0,0.0,0.0,0.0,0.0,0.0,0.0,0.0,0.0,0.0,0.0,0.0,0.0,0.0,0.0,0.0,0.0,0.0,0.0,0.0,0.0,0.0,0.0,-0.1727,-0.1356,-0.1071,-0.0872,-0.0748,-0.0604,0.0,0.0,0.0,0.0,0.0,0.0,0.0,0.0,0.0,0.0,0.0,0.0,0.0,0.0,0.0,0.0,0.0,0.0,0.0,0.0,0.0,0.0,0.0,0.0,0.0,0.0,0.0,0.0,0.0,0.0,0.0,0.0,0.0,0.0,0.0,0.0,0.0,0.0,0.0,0.0,0.0,0.0,0.0,0.0,0.0,0.0,0.0,0.0,0.0,0.0,0.0,0.0,0.0,0.0,0.0,0.0,0.0,0.0,0.0,0.0,0.0,0.0,0.0,0.0,0.0,0.0,0.0,0.0,0.0,0.0,0.0,0.0,0.0,0.0,0.0,0.0,0.0,0.0,0.0,0.0,0.0,0.0,0.0,0.0,0.0,0.0,0.0,0.0,0.0,0.0,0.0,0.0,0.0,0.0,0.0,0.0,0.0,0.0,0.0,0.0,0.0,0.0,0.0,0.0,0.0,0.0,0.0,0.0,-0.196,-0.1149,-0.0967,-0.0738,-0.0417,-0.0528,-0.0526,0.0,0.0,0.0,0.0,0.0,0.0,0.0,0.0,0.0,0.0,0.0,0.0,0.0,0.0,0.0,0.0,0.0,0.0,0.0,0.0,0.0,0.0,0.0,0.0,0.0,0.0,0.0,0.0,0.0,0.0,0.0,0.0,0.0,0.0,0.0,0.0,0.0,0.0,0.0,0.0,0.0,0.0,0.0,0.0,0.0,0.0,0.0,0.0,0.0,0.0,0.0,0.0,0.0,0.0,0.0,0.0,0.0,0.0,0.0,0.0,0.0,0.0,0.0,0.0,0.0,0.0,0.0,0.0,0.0,0.0,0.0,0.0,0.0,0.0,0.0,0.0,0.0,0.0,0.0,0.0,0.0,0.0,0.0,0.0,0.0,0.0,0.0,0.0,0.0,0.0,0.0,0.0,0.0,0.0,0.0,0.0,0.0,0.0,0.0,0.0,0.0,0.0,0.0,0.0,0.0,0.0,0.0,0.0,0.0,-0.1162,-0.0768,-0.0505,-0.0399,-0.0252,-0.0238,0.0,0.0,0.0,0.0,0.0,0.0,0.0,0.0,0.0,0.0,0.0,0.0,0.0,0.0,0.0,0.0,0.0,0.0,0.0,0.0,0.0,0.0,0.0,0.0,0.0,0.0,0.0,0.0,0.0,0.0,0.0,0.0,0.0,0.0,0.0,0.0,0.0,0.0,0.0,0.0,0.0,0.0,0.0,0.0,0.0,0.0,0.0,0.0,0.0,0.0,0.0,0.0,0.0,0.0,0.0,0.0,0.0,0.0,0.0,0.0,0.0,0.0,0.0,0.0,0.0,0.0,0.0,0.0,0.0,0.0,0.0,0.0,0.0,0.0,0.0,0.0,0.0,0.0,0.0,0.0,0.0,0.0,0.0,0.0,0.0,0.0,0.0,0.0,0.0,0.0,0.0,0.0,0.0,0.0,0.0,0.0,0.0,0.0,0.0,0.0,0.0,0.0,0.0,0.0,0.0,0.0,0.0,0.0,0.0,-0.0881,-0.0507,-0.0329,-0.0394,-0.018,-0.0149,-0.033,0.0,0.0,0.0,0.0,0.0,0.0,0.0,0.0,0.0,0.0,0.0,0.0,0.0,0.0,0.0,0.0,0.0,0.0,0.0,0.0,0.0,0.0,0.0,0.0,0.0,0.0,0.0,0.0,0.0,0.0,0.0,0.0,0.0,0.0,0.0,0.0,0.0,0.0,0.0,0.0,0.0,0.0,0.0,0.0,0.0,0.0,0.0,0.0,0.0,0.0,0.0,0.0,0.0,0.0,0.0,0.0,0.0,0.0,0.0,0.0,0.0,0.0,0.0,0.0,0.0,0.0,0.0,0.0,0.0,0.0,0.0,0.0,0.0,0.0,0.0,0.0,0.0,0.0,0.0,0.0,0.0,0.0,0.0,0.0,0.0,0.0,0.0,0.0,0.0,0.0,0.0,0.0,0.0,0.0,0.0,0.0,0.0,0.0,0.0,0.0,0.0,0.0,0.0,0.0,0.0,0.0,0.0,0.0,-0.0339,-0.0147,-0.0143,-0.0339,-0.0253,-0.0242,0.0,0.0,0.0,0.0,0.0,0.0,0.0,0.0,0.0,0.0,0.0,0.0,0.0,0.0,0.0,0.0,0.0,0.0,0.0,0.0,0.0,0.0,0.0,0.0,0.0,0.0,0.0,0.0,0.0,0.0,0.0,0.0,0.0,0.0,0.0,0.0,0.0,0.0,0.0,0.0,0.0,0.0,0.0,0.0,0.0,0.0,0.0,0.0,0.0,0.0,0.0,0.0,0.0,0.0,0.0,0.0,0.0,0.0,0.0,0.0,0.0,0.0,0.0,0.0,0.0,0.0,0.0,0.0,0.0,0.0,0.0,0.0,0.0,0.0,0.0,0.0,0.0,0.0,0.0,0.0,0.0,0.0,0.0,0.0,0.0,0.0,0.0,0.0,0.0,0.0,0.0,0.0,0.0,0.0,0.0,0.0,0.0,0.0,0.0,0.0,0.0,0.0,0.0,0.0,0.0,0.0,0.0,0.0,0.0,0.0343,0.064,0.0575,0.0136,-0.0044,-0.007,0.0,0.0,0.0,0.0,0.0,0.0,0.0,0.0,0.0,0.0,0.0,0.0,0.0,0.0,0.0,0.0,0.0,0.0,0.0,0.0,0.0,0.0,0.0,0.0,0.0,0.0,0.0,0.0,0.0,0.0,0.0,0.0,0.0,0.0,0.0,0.0,0.0,0.0,0.0,0.0,0.0,0.0,0.0,0.0,0.0,0.0,0.0,0.0,0.0,0.0,0.0,0.0,0.0,0.0,0.0,0.0,0.0,0.0,0.0,0.0,0.0,0.0,0.0,0.0,0.0,0.0,0.0,0.0,0.0,0.0,0.0,0.0,0.0,0.0,0.0,0.0,0.0,0.0,0.0,0.0,0.0,0.0,0.0,0.0,0.0,0.0,0.0,0.0,0.0,0.0,0.0,0.0,0.0,0.0,0.0,0.0,0.0,0.0,0.0,0.0,0.0,0.0,0.0,0.0,0.0,0.0,0.0,0.0,0.0573,0.0867,0.1078,0.1064,0.0812,0.0549,0.0331,0.0,0.0,0.0,0.0,0.0,0.0,0.0,0.0,0.0,0.0,0.0,0.0,0.0,0.0,0.0,0.0,0.0,0.0,0.0,0.0,0.0,0.0,0.0,0.0,0.0,0.0,0.0,0.0,0.0,0.0,0.0,0.0,0.0,0.0,0.0,0.0,0.0,0.0,0.0,0.0,0.0,0.0,0.0,0.0,0.0,0.0,0.0,0.0,0.0,0.0,0.0,0.0,0.0,0.0,0.0,0.0,0.0,0.0,0.0,0.0,0.0,0.0,0.0,0.0,0.0,0.0,0.0,0.0,0.0,0.0,0.0,0.0,0.0,0.0,0.0,0.0,0.0,0.0,0.0,0.0,0.0,0.0,0.0,0.0,0.0,0.0,0.0,0.0,0.0,0.0,0.0,0.0,0.0,0.0,0.0,0.0,0.0,0.0,0.0,0.0,0.0,0.0,0.0,0.0,0.0,0.0,0.0,0.0,0.0985,0.1351,0.1403,0.1505,0.1605,0.129,0.0829,0.0,0.0,0.0,0.0,0.0,0.0,0.0,0.0,0.0,0.0,0.0,0.0,0.0,0.0,0.0,0.0,0.0,0.0,0.0,0.0,0.0,0.0,0.0,0.0,0.0,0.0,0.0,0.0,0.0,0.0,0.0,0.0,0.0,0.0,0.0,0.0,0.0,0.0,0.0,0.0,0.0,0.0,0.0,0.0,0.0,0.0,0.0,0.0,0.0,0.0,0.0,0.0,0.0,0.0,0.0,0.0,0.0,0.0,0.0,0.0,0.0,0.0,0.0,0.0,0.0,0.0,0.0,0.0,0.0,0.0,0.0,0.0,0.0,0.0,0.0,0.0,0.0,0.0,0.0,0.0,0.0,0.0,0.0,0.0,0.0,0.0,0.0,0.0,0.0,0.0,0.0,0.0,0.0,0.0,0.0,0.0,0.0,0.0,0.0,0.0,0.0,0.0,0.0,0.0,0.0,0.0,0.0,0.0,0.1653,0.1848,0.2221,0.2429,0.2445,0.1573,0.093,0.0,0.0,0.0,0.0,0.0,0.0,0.0,0.0,0.0,0.0,0.0,0.0,0.0,0.0,0.0,0.0,0.0,0.0,0.0,0.0,0.0,0.0,0.0,0.0,0.0,0.0,0.0,0.0,0.0,0.0,0.0,0.0,0.0,0.0,0.0,0.0,0.0,0.0,0.0,0.0,0.0,0.0,0.0,0.0,0.0,0.0,0.0,0.0,0.6125,0.0,0.0,0.0,0.0,0.0,0.0,0.0,0.0,0.0,0.0,0.0,0.0,0.0,0.0,0.0,0.0,0.0,0.0,0.0,0.0,0.0,0.0,0.0,0.0,0.0,0.0,0.0,0.0,0.0,0.0,0.0,0.0,0.0,0.0,0.0,0.0,0.0,0.0,0.0,0.0,0.0,0.0,0.0,0.0,0.0,0.0,0.0,0.0,0.0,0.0,0.0,0.0,0.0,0.0,0.0,0.0,0.0,0.0,0.0,0.2009,0.2229,0.2615,0.2764,0.268,0.2073,0.1467,0.0,0.0,0.0,0.0,0.0,0.0,0.0,0.0,0.0,0.0,0.0,0.0,0.0,0.0,0.0,0.0,0.0,0.0,0.0,0.0,0.0,0.0,0.0,0.0,0.0,0.0,0.0,0.0,0.0,0.0,0.0,0.0,0.0,0.0,0.0,0.0,0.0,0.0,0.0,0.0,0.0,0.0,0.0,0.0,0.0,0.0,0.0,0.0,0.0,0.0,0.0,0.0,0.0,0.0,0.0,0.0,0.0,0.0,0.0,0.0,0.0,0.0,0.0,0.0,0.0,0.0,0.0,0.0,0.0,0.0,0.0,0.0,0.0,0.0,0.0,0.0,0.0,0.0,0.0,0.0,0.0,0.0,0.0,0.0,0.0,0.0,0.0,0.0,0.0,0.0,0.0,0.0,0.0,0.0,0.0,0.0,0.0,0.0,0.0,0.0,0.0,0.0,0.0,0.0,0.0,0.0,0.0,0.1775,0.2248,0.2543,0.2783,0.2846,0.274,0.2585,0.2069,0.1135,0.0,0.0,0.0,0.0,0.0,0.0,0.0,0.0,0.0,0.0,0.0,0.0,0.0,0.0,0.0,0.0,0.0,0.0,0.0,0.0,0.0,0.0,0.0,0.0,0.0,0.0,0.0,0.0,0.0,0.0,0.0,0.0,0.0,0.0,0.0,0.0,0.0,0.0,0.4245,0.5126,0.0,0.0,0.0,0.0,0.0,0.0,0.0,0.0,0.6646,0.0,0.0,0.0,0.0,0.0,0.0,0.0,0.0,0.0,0.0,0.0,0.0,0.0,0.0,0.0,0.0,0.0,0.0,0.0,0.0,0.0,0.0,0.0,0.0,0.0,0.0,0.0,0.0,0.0,0.0,0.0,0.0,0.0,0.0,0.0,0.0,0.0,0.0,0.0,0.0,0.0,0.0,0.0,0.0,0.0,0.0,0.0,0.0,0.0,0.0,0.0,0.0,0.0,0.0,0.0,0.0,0.1527,0.2111,0.2561,0.2824,0.2868,0.2908,0.2953,0.2651,0.2192,0.1539,0.0,0.0,0.0,0.0,0.0,0.0,0.0,0.0,0.0,0.0,0.0,0.0,0.0,0.0,0.0,0.0,0.0,0.0,0.0,0.0,0.0,0.0,0.0,0.0,0.0,0.0,0.0,0.0,0.0,0.0,0.0,0.0,0.0,0.0,0.0,0.0,0.0,0.0,0.0,0.6208,0.696,0.0,0.0,0.0,0.0,0.0,0.0,0.0,0.0,0.702,0.0,0.0,0.0,0.0,0.0,0.0,0.0,0.0,0.0,0.0,0.0,0.0,0.0,0.0,0.0,0.0,0.0,0.0,0.0,0.0,0.0,0.0,0.0,0.0,0.0,0.0,0.0,0.0,0.0,0.0,0.0,0.0,0.0,0.0,0.0,0.0,0.0,0.0,0.0,0.0,0.0,0.0,0.0,0.0,0.0,0.0,0.0,0.0,0.0,0.0,0.0,0.0,0.0,0.0,0.0,0.1511,0.2157,0.2641,0.2901,0.2909,0.2925,0.2989,0.2822,0.2397,0.0,0.0,0.0,0.0,0.0,0.0,0.0,0.0,0.0,0.0,0.0,0.0,0.0,0.0,0.0,0.0,0.0,0.0,0.0,0.0,0.0,0.0,0.0,0.0,0.0,0.0,0.0,0.0,0.0,0.0,0.0,0.0,0.0,0.0,0.0,0.0,0.0,0.0,0.0,0.0,0.7021,0.7522,0.8013,0.0,0.0,0.0,0.0,0.0,0.0,0.8166,0.7949,0.0,0.0,0.0,0.0,0.0,0.0,0.0,0.0,0.0,0.0,0.0,0.0,0.0,0.0,0.0,0.0,0.0,0.0,0.0,0.0,0.0,0.0,0.0,0.0,0.0,0.0,0.0,0.0,0.0,0.0,0.0,0.0,0.0,0.0,0.0,0.0,0.0,0.0,0.0,0.0,0.0,0.0,0.0,0.0,0.0,0.0,0.0,0.0,0.0,0.0,0.0,0.0,0.0,0.0,0.0,0.1493,0.2151,0.2645,0.2945,0.2979,0.305,0.314,0.307,0.2692,0.0,0.0,0.0,0.0,0.0,0.0,0.0,0.0,0.0,0.0,0.0,0.0,0.0,0.0,0.0,0.0,0.0,0.0,0.0,0.0,0.0,0.0,0.0,0.0,0.0,0.0,0.0,0.0,0.0,0.0,0.0,0.0,0.0,0.0,0.0,0.0,0.0,0.0,0.0,0.0,0.0,0.8056,0.8792,0.9036,0.0,0.0,0.0,0.0,0.9077,0.9031,0.0,0.0,0.0,0.0,0.0,0.0,0.0,0.0,0.0,0.0,0.0,0.0,0.0,0.0,0.0,0.0,0.0,0.0,0.0,0.0,0.0,0.0,0.0,0.0,0.0,0.0,0.0,0.0,0.0,0.0,0.0,0.0,0.0,0.0,0.0,0.0,0.0,0.0,0.0,0.0,0.0,0.0,0.0,0.0,0.0,0.0,0.0,0.0,0.0,0.0,0.0,0.0,0.0,0.0,0.0,0.0,0.176,0.2226,0.2721,0.3142,0.327,0.3454,0.3701,0.3475,0.3062,0.0,0.0,0.0,0.0,0.0,0.0,0.0,0.0,0.0,0.0,0.0,0.0,0.0,0.0,0.0,0.0,0.0,0.0,0.0,0.0,0.0,0.0,0.0,0.0,0.0,0.0,0.0,0.0,0.0,0.0,0.0,0.0,0.0,0.0,0.0,0.0,0.0,0.0,0.0,0.0,0.0,0.8771,0.889,0.9557,0.9939,0.0,0.0,0.9963,0.9482,0.9437,0.0,0.0,0.0,0.0,0.0,0.0,0.0,0.0,0.0,0.0,0.0,0.0,0.0,0.0,0.0,0.0,0.0,0.0,0.0,0.0,0.0,0.0,0.0,0.0,0.0,0.0,0.0,0.0,0.0,0.0,0.0,0.0,0.0,0.0,0.0,0.0,0.0,0.0,0.0,0.0,0.0,0.0,0.0,0.0,0.0,0.0,0.0,0.0,0.0,0.0,0.0,0.0,0.0,0.0,0.0,0.1567,0.1911,0.2489,0.3053,0.359,0.3758,0.3936,0.4133,0.3908,0.3426,0.0,0.0,0.0,0.0,0.0,0.0,0.0,0.0,0.0,0.0,0.0,0.0,0.0,0.0,0.0,0.0,0.0,0.0,0.0,0.0,0.0,0.0,0.0,0.0,0.0,0.0,0.0,0.0,0.0,0.0,0.0,0.0,0.0,0.0,0.0,0.0,0.0,0.0,0.0,0.0,0.0,0.0,0.9926,1.0363,0.0,0.0,0.0,1.11,1.0391,0.0,0.0,0.0,0.0,0.0,0.0,0.0,0.0,0.0,0.0,0.0,0.0,0.0,0.0,0.0,0.0,0.0,0.0,0.0,0.0,0.0,0.0,0.0,0.0,0.0,0.0,0.0,0.0,0.0,0.0,0.0,0.0,0.0,0.0,0.0,0.0,0.0,0.0,0.0,0.0,0.0,0.0,0.0,0.0,0.0,0.0,0.0,0.0,0.0,0.0,0.0,0.0,0.0,0.0,0.0,0.0,0.0,0.2164,0.2763,0.3382,0.4013,0.4289,0.4454,0.4521,0.4391,0.0,0.0,0.0,0.0,0.0,0.0,0.0,0.0,0.0,0.0,0.0,0.0,0.0,0.0,0.0,0.0,0.0,0.0,0.0,0.0,0.0,0.0,0.0,0.0,0.0,0.0,0.0,0.4187,0.0,0.0,0.0,0.0,0.0,0.0,0.0,0.0,0.0,0.0,0.0,0.0,0.0,0.0,0.9636,1.0755,1.0993,1.1364,0.0,0.0,1.1963,1.1196,1.1036,1.0709,0.0,0.0,0.0,0.0,0.0,0.0,0.0,0.0,0.0,0.0,0.0,0.0,0.0,0.0,0.0,0.0,0.0,0.0,0.0,0.0,0.0,0.0,0.0,0.0,0.0,0.0,0.0,0.0,0.0,0.0,0.0,0.0,0.0,0.0,0.0,0.0,0.0,0.0,0.0,0.0,0.0,0.0,0.0,0.0,0.0,0.0,0.0,0.0,0.0,0.0,0.0,0.0,0.0,0.0,0.0,0.265,0.3072,0.3642,0.4341,0.4824,0.5001,0.4874,0.4911,0.4517,0.0,0.0,0.0,0.0,0.0,0.0,0.0,0.0,0.0,0.0,0.0,0.0,0.0,0.0,0.0,0.0,0.0,0.0,0.0,0.0,0.0,0.0,0.0,0.0,0.0,0.0,0.0,0.0,0.0,0.0,0.0,0.0,0.0,0.0,0.0,0.0,0.0,0.0,0.0,0.0,0.0,1.0311,1.0838,1.1271,1.1726,0.0,0.0,1.2121,1.1643,1.1539,1.1227,1.0293,0.0,0.0,0.0,0.0,0.0,0.0,0.0,0.0,0.0,0.0,0.0,0.0,0.0,0.0,0.0,0.0,0.0,0.0,0.0,0.0,0.0,0.0,0.0,0.0,0.0,0.0,0.0,0.0,0.0,0.0,0.0,0.0,0.0,0.0,0.0,0.0,0.0,0.0,0.0,0.0,0.0,0.0,0.0,0.0,0.0,0.0,0.0,0.0,0.0,0.0,0.0,0.0,0.0,0.2308,0.2815,0.3539,0.4206,0.4816,0.5321,0.5565,0.5505,0.5292,0.49,0.0,0.0,0.0,0.0,0.0,0.0,0.0,0.0,0.0,0.0,0.0,0.0,0.0,0.0,0.0,0.0,0.0,0.0,0.0,0.0,0.0,0.0,0.0,0.0,0.0,0.0,0.0,0.0,0.4948,0.5118,0.484,0.0,0.0,0.0,0.0,0.0,0.0,0.0,0.0,0.0,0.0,1.09,1.1664,1.212,0.0,0.0,1.3345,1.3378,1.2947,1.2865,1.2628,1.2018,1.1185,0.0,0.0,0.0,0.0,0.0,0.0,0.0,0.0,0.0,0.0,0.0,0.0,0.0,0.0,0.0,0.0,0.0,0.0,0.0,0.0,0.0,0.0,0.0,0.0,0.0,0.0,0.0,0.0,0.0,0.0,0.0,0.0,0.0,0.0,0.0,0.0,0.0,0.0,0.0,0.0,0.0,0.0,0.0,0.0,0.0,0.0,0.0,0.0,0.0,0.0,0.0,0.0,0.2594,0.3065,0.3991,0.4741,0.5251,0.574,0.5972,0.5876,0.5566,0.5185,0.0,0.0,0.0,0.0,0.0,0.0,0.0,0.0,0.0,0.0,0.0,0.0,0.0,0.0,0.0,0.0,0.0,0.0,0.0,0.0,0.0,0.0,0.0,0.0,0.0,0.0,0.0,0.0,0.5071,0.5291,0.5028,0.0,0.0,0.0,0.0,0.0,0.0,0.0,0.0,0.0,0.0,1.1507,1.2552,1.2841,1.3105,1.376,1.3998,1.4016,1.3729,1.353,1.3337,1.3213,0.0,0.0,0.0,0.0,0.0,0.0,0.0,0.0,0.0,0.0,0.0,0.0,0.0,0.0,0.0,0.0,0.0,0.0,0.0,0.0,0.0,0.0,0.0,0.0,0.0,0.0,0.0,0.0,0.0,0.0,-0.2615,0.0,0.0,0.0,0.0,0.0,0.0,0.0,0.0,0.0,0.0,0.0,0.0,0.0,0.0,0.0,0.0,0.0,0.0,0.0,0.0,0.0,0.0,0.2934,0.3385,0.4384,0.5118,0.5564,0.5984,0.6097,0.5916,0.5713,0.5386,0.4994,0.0,0.0,0.0,0.0,0.0,0.0,0.0,0.0,0.0,0.0,0.0,0.0,0.0,0.0,0.0,0.0,0.0,0.0,0.0,0.0,0.0,0.0,0.0,0.0,0.0,0.0,0.4607,0.4892,0.5234,0.0,0.0,0.0,0.0,0.0,0.0,0.0,0.0,0.0,0.0,1.1281,1.2099,1.3445,1.3219,1.3286,1.4215,1.3941,1.3655,1.374,1.3298,1.3083,0.0,0.0,0.0,0.0,0.0,0.0,0.0,0.0,0.0,0.0,0.0,0.0,0.0,0.0,0.0,0.0,0.0,0.0,0.0,0.0,0.0,0.0,0.0,0.0,0.0,0.0,0.0,-0.326,-0.34,0.0,0.0,0.0,0.0,0.0,0.0,0.0,0.0,0.0,0.0,0.0,-0.0829,-0.0135,0.0,0.0,0.0,0.0,0.0,0.0,0.0,0.0,0.0,0.0,0.0,0.0,0.3222,0.3755,0.4675,0.5386,0.5777,0.6059,0.6172,0.6097,0.589,0.5552,0.5026,0.0,0.0,0.0,0.0,0.0,0.0,0.0,0.0,0.0,0.0,0.0,0.0,0.0,0.0,0.0,0.0,0.0,0.0,0.0,0.0,0.0,0.0,0.0,0.0,0.0,0.5708,0.0,0.0,0.0,0.0,0.0,0.0,0.0,0.0,0.0,0.0,0.0,1.042,1.0848,1.2107,1.3044,1.3155,1.3608,1.3888,0.0,0.0,0.0,0.0,0.0,0.0,0.0,0.0,0.0,0.0,0.0,0.0,0.0,0.0,1.1998,1.0678,1.0526,1.0769,1.114,0.0,0.0,0.0,0.0,0.0,0.0,0.0,0.0,0.0,0.0,0.0,0.0,0.0,0.0,0.0,0.0,-0.2954,0.0,0.0,0.0,0.0,0.0,0.0,0.0,0.0,-0.0631,-0.0295,-0.0421,0.0201,0.0527,0.0,0.0861,0.104,0.0,0.0,0.0,0.0,0.0,0.0,0.0,0.0,0.357,0.4156,0.4984,0.5561,0.5897,0.6097,0.62,0.62,0.5993,0.5626,0.5108,0.4784,0.4409,0.0,0.0,0.0,0.0,0.0,0.0,0.0,0.0,0.0,0.0,0.0,0.0,0.0,0.0,0.0,0.0,0.0,0.0,0.0,0.0,0.0,0.0,0.0,0.63,0.0,0.0,0.0,0.0,0.0,0.0,0.0,0.0,0.0,0.9266,1.0245,1.1085,1.1541,1.2658,1.3407,1.3419,0.0,0.0,0.0,0.0,0.0,0.0,0.0,1.5433,1.5744,1.4898,1.425,1.4405,1.4057,1.3649,1.3325,0.0,0.0,1.1992,1.1886,1.2216,1.2575,1.2499,1.2712,1.3954,1.435,1.455,0.0,0.0,0.0,0.0,0.0,0.0,0.0,0.0,-0.3956,-0.3505,0.0,-0.2577,0.0,0.0,0.0,0.0,0.0,0.0,0.0,0.0,-0.0621,-0.0126,0.0381,0.0484,0.0807,0.13,0.1329,0.1553,0.1931,0.1561,0.0,0.0,0.0,0.0,0.0,0.0,0.3927,0.4569,0.5263,0.5713,0.592,0.6097,0.62,0.6196,0.5998,0.5722,0.5325,0.513,0.4822,0.4442,0.3978,0.0,0.0,0.0,0.0,0.0,0.0,0.0,0.0,0.0,0.0,0.0,0.0,0.0,0.0,0.0,0.0,0.0,0.0,0.0,0.0,0.6252,0.0,0.0,0.0,0.0,0.0,0.0,0.0,0.0,0.0,0.0,1.1124,1.1117,1.1537,1.2753,0.0,0.0,0.0,0.0,1.4012,1.4915,1.472,1.4777,1.5634,1.5062,1.4823,1.5678,0.0,0.0,1.576,1.6178,1.6147,1.5313,1.5891,1.5887,1.3601,1.3824,1.422,1.3944,1.3895,1.4002,1.4499,1.5456,1.6169,-0.7356,0.0,0.0,0.0,0.0,-0.5338,-0.5206,-0.5051,-0.4689,-0.457,-0.4606,-0.3995,0.0,0.0,0.0,0.0,0.0,0.0,-0.2048,-0.1409,-0.0684,-0.0045,0.0479,0.0872,0.1235,0.1534,0.1778,0.1923,0.2016,0.23,0.2325,0.2071,0.0,0.0,0.0,0.0,0.416,0.455,0.5385,0.5925,0.6111,0.6172,0.62,0.62,0.5998,0.585,0.5731,0.5387,0.5102,0.4836,0.4509,0.0,0.0,0.0,0.0,0.0,0.0,0.0,0.0,0.0,0.0,0.0,0.0,0.0,0.0,0.0,0.0,0.0,0.0,0.0,0.7476,0.7794,0.8122,0.0,0.0,0.0,0.0,0.0,0.0,0.0,0.0,0.0,1.2563,1.2466,1.2656,0.0,0.0,1.421,1.4423,1.4789,1.4926,1.4651,0.0,0.0,0.0,1.5866,1.5976,1.6272,1.6225,1.6243,1.642,1.655,1.655,1.6286,1.6788,1.6991,1.6408,1.608,1.6103,1.6324,1.6417,1.658,1.7027,1.7396,1.7497,-0.7536,-0.6845,-0.645,-0.621,-0.6101,-0.6061,-0.5965,-0.5783,-0.5495,-0.5186,-0.4909,-0.4416,-0.4016,-0.3717,-0.3664,0.0,0.0,0.0,-0.2255,-0.1605,-0.0613,0.0049,0.0489,0.1023,0.1418,0.1655,0.1863,0.2024,0.2217,0.2475,0.2682,0.2759,0.0,0.0,0.2988,0.3759,0.4361,0.4822,0.5533,0.6063,0.6381,0.6386,0.6337,0.62,0.6078,0.6012,0.6007,0.5708,0.5534,0.55,0.5199,0.4946,0.0,0.0,0.0,0.0,0.0,0.0,0.0,0.0,0.0,0.0,0.0,0.4536,0.4352,0.0,0.0,0.0,0.7301,0.8094,0.881,0.889,0.0,0.0,0.0,0.0,0.0,0.0,0.0,1.0906,1.1662,1.2445,1.3111,1.3275,1.3472,1.3847,1.413,1.4362,1.4479,0.0,1.4858,1.4949,1.5451,1.5988,1.6371,1.669,1.6905,1.6882,1.6922,1.7062,1.7255,1.7303,1.7291,1.7339,1.7739,1.8093,1.8093,1.7981,1.7857,1.7787,1.7774,1.7834,1.793,1.8211,1.8385,-0.7716,-0.7379,-0.7512,-0.7444,-0.7216,-0.7203,-0.7088,-0.6912,-0.628,-0.5555,-0.4838,-0.4284,-0.3604,-0.2831,-0.3186,0.0,-0.2603,-0.2539,-0.2241,-0.1644,-0.0552,0.0134,0.0401,0.1047,0.1484,0.1768,0.1734,0.2002,0.2474,0.237,0.2594,0.3199,0.3041,0.3083,0.3392,0.3922,0.4557,0.5241,0.5699,0.6189,0.6723,0.6701,0.6549,0.6255,0.6205,0.62,0.6196,0.6024,0.6066,0.6347,0.6,0.5802,0.5795,0.0,0.0,0.0,0.0,0.0,0.0,0.0,0.0,0.0,0.0,0.0,0.0,0.0,0.0,0.0,0.8884,0.0,0.9959,0.9863,0.0,0.0,0.0,1.0617,1.1058,1.1476,1.1746,1.1808,0.0,0.0,1.3203,0.0,1.402,1.4033,1.3949,1.4067,1.4466,1.4285,1.4426,1.5617,1.5973,1.6432,1.7268,1.75,1.7592,1.7617,1.763,1.7812,1.8223,1.8344,1.8318,1.832,1.8732,1.9058,1.907,1.9358,1.9497,1.8519,1.8356,1.8235,1.7934,1.8549,1.9083,-0.8188,-0.7916,-0.8122,-0.7611,-0.6715,-0.69,-0.6869,-0.6701,-0.6729,-0.6507,-0.6118,-0.5634,-0.4757,-0.3593,-0.325,-0.2916,-0.2605,-0.2623,-0.2317,-0.1655,-0.0733,-0.0111,0.0304,0.1198,0.1643,0.1651,0.1922,0.2266,0.2654,0.2801,0.3045,0.3331,0.3303,0.3254,0.3286,0.3969,0.45,0.483,0.5747,0.6456,0.6993,0.6788,0.6647,0.6571,0.6337,0.62,0.62,0.6209,0.6416,0.6792,0.6783,0.6771,0.6841,0.6563,0.0,0.0,0.0,0.0,0.0,0.0,0.0,0.0,0.0,0.5634,0.5982,0.0,0.7857,0.0,1.0715,1.1819,1.2247,1.2352,0.0,0.0,1.2584,1.2531,1.2058,1.2445,1.2748,1.277,1.3273,1.3712,1.3921,1.4064,1.4186,1.428,1.4114,1.415,1.4593,1.6115,1.6764,1.6174,1.6893,1.772,1.8006,1.8114,1.8319,1.8598,1.8746,1.8945,1.9359,1.9422,1.9422,1.9422,1.951,1.961,1.9623,1.9736,1.9723,1.9472,1.9422,1.9396,1.9308,1.9809,2.0263,-0.8666,-0.8317,-0.8278,-0.7788,-0.7074,-0.7354,-0.7431,-0.7321,-0.7317,-0.7047,-0.6539,-0.5572,-0.4725,-0.4,-0.3329,-0.2935,-0.2757,-0.2756,-0.2559,-0.2097,-0.1025,-0.0363,0.0,0.1127,0.1682,0.1712,0.1925,0.2256,0.2689,0.2856,0.3131,0.3485,0.3482,0.342,0.3326,0.4024,0.4482,0.467,0.5885,0.6665,0.6907,0.6891,0.6822,0.6691,0.6299,0.6123,0.6245,0.6167,0.6343,0.6789,0.7121,0.7331,0.7468,0.7351,0.7092,0.0,0.0,0.0,0.0,0.0,0.0,0.0,0.0,0.0,0.0,0.0,0.9357,1.0646,1.1685,1.2454,1.2847,1.2912,1.3018,1.3164,1.3297,1.3319,1.3077,1.332,1.3491,1.3501,1.3793,1.4035,1.4176,1.4246,1.4403,1.4668,1.4636,1.4814,1.5475,1.6836,1.7545,1.7122,1.7762,1.8634,1.9246,1.9508,1.9736,2.0091,2.0118,2.0105,2.0177,2.0266,2.0204,1.9951,1.9888,1.9989,2.0216,2.0305,2.0342,2.0489,2.0552,2.0464,2.0277,2.0654,2.1056,-0.9187,-0.8716,-0.8404,-0.8102,-0.7887,-0.8171,-0.8229,-0.8119,-0.7871,-0.7321,-0.6502,-0.4948,-0.4205,-0.4119,-0.3405,-0.3023,-0.2888,-0.286,-0.2805,-0.2635,-0.1314,-0.0614,-0.0391,0.0952,0.1656,0.1769,0.1797,0.2133,0.2691,0.2691,0.2991,0.3533,0.3558,0.3498,0.3434,0.4055,0.449,0.4713,0.6081,0.6764,0.6709,0.6951,0.6923,0.66,0.615,0.6016,0.6182,0.6143,0.6295,0.6765,0.7418,0.7859,0.8038,0.7966,0.7879,0.0,0.7256,0.0,0.0,0.0,0.0,0.0,0.0,0.0,0.0,0.945,1.1027,1.2007,1.2332,1.2613,1.2839,1.2828,1.2976,1.3413,1.3511,1.3637,1.3954,1.3997,1.402,1.401,1.414,1.4199,1.4222,1.437,1.4646,1.5017,1.5298,1.5769,1.6574,1.7237,1.7828,1.8366,1.8672,1.947,2.0638,2.1103,2.1297,2.1597,2.1396,2.1167,2.0927,2.0953,2.0881,2.0409,2.0333,2.0499,2.0956,2.1045,2.1143,2.1373,2.1552,2.1451,2.0993,2.1245,2.1568,-0.9765,-0.9563,-0.9263,-0.8985,-0.8748,-0.8705,-0.8384,-0.7878,-0.8043,-0.7536,-0.6502,-0.5089,-0.4291,-0.3981,-0.3378,-0.2968,-0.2719,-0.2719,-0.2719,-0.2663,-0.1314,-0.067,-0.0559,0.0896,0.1628,0.1628,0.1741,0.2104,0.2691,0.2691,0.2955,0.3412,0.3436,0.3428,0.3436,0.0,0.0,0.0,0.6228,0.6736,0.6774,0.6781,0.658,0.6144,0.5977,0.0,0.579,0.6632,0.7298,0.7729,0.868,0.0,0.0,0.0,0.0,0.0,0.0,0.0,0.0,0.0,0.0,0.0,0.9396,0.9986,0.9792,1.1375,1.2753,1.3506,1.3535,1.3739,1.4262,1.4379,1.4446,1.4421,1.4532,1.446,1.4073,1.3997,1.4033,1.4163,1.4186,1.4222,1.4359,1.4712,1.4996,1.517,1.5793,1.6673,1.772,1.8413,1.8798,1.8772,1.9724,2.0831,2.1668,2.1879,2.1973,2.1966,2.1982,2.1947,2.1783,2.1756,2.1783,2.1578,2.1617,2.1617,2.177,2.1796,2.178,2.169,2.2127,2.2308,2.1552,2.1769,2.2159,-1.019,0.0,-0.9666,-0.9361,0.0,-0.8936,-0.8639,-0.8197,-0.8185,-0.7589,-0.6529,-0.5469,-0.4673,-0.4064,-0.3405,-0.2996,-0.2777,-0.2747,-0.2691,-0.2607,-0.1314,-0.0642,-0.0503,0.0924,0.1628,0.1685,0.1769,0.2105,0.2663,0.2691,0.297,0.3493,0.349,0.3487,0.3506,0.4259,0.4997,0.5695,0.6396,0.6794,0.6954,0.7041,0.6994,0.6801,0.0,0.0,0.0,0.0,0.0,0.0,0.0,0.0,0.0,0.0,0.0,0.9004,0.9074,0.9013,0.8814,0.936,0.9712,0.9776,1.1099,1.1805,1.1529,1.2535,1.3386,1.3834,1.3821,1.3987,1.4401,1.4518,1.4542,1.4564,1.4601,1.4517,1.4264,1.4197,1.4221,1.428,1.4314,1.4403,1.4712,1.4941,1.5312,1.5738,1.6197,1.7028,1.8322,1.8899,1.9164,1.9488,2.0942,2.1988,2.2046,2.2431,2.2784,2.2866,2.2793,2.2624,2.2444,2.2444,2.2409,2.2192,2.2115,2.2179,2.2435,2.25,2.2534,2.262,2.293,2.3058,2.2633,2.271,2.2783,-1.0557,-0.9994,-0.9899,-0.9562,-0.9133,-0.9061,-0.8844,-0.8573,0.0,0.0,0.0,-0.5651,-0.4835,-0.4039,-0.3352,-0.2996,-0.286,-0.2747,-0.2691,-0.2635,-0.1342,-0.0614,-0.0335,0.0952,0.1656,0.1797,0.1797,0.2076,0.2607,0.2663,0.297,0.3471,0.3585,0.3694,0.3858,0.4543,0.524,0.5946,0.6499,0.6832,0.6956,0.7274,0.7442,0.7403,0.703,0.6884,0.7068,0.7333,0.7578,0.7866,0.8766,0.9343,0.9444,0.9615,0.972,0.972,0.9782,0.9813,0.982,1.0401,1.0845,1.1009,1.2405,1.3091,1.2712,1.338,1.3892,1.4069,1.4037,1.4103,1.4352,1.4255,1.4312,1.4493,1.4451,1.4429,1.4506,1.444,1.4406,1.4506,1.4526,1.469,1.517,1.5309,1.5618,1.6317,1.6697,1.7402,1.8869,1.9489,1.9879,2.0623,2.1939,2.2788,2.2468,2.2869,2.3462,2.3755,2.3569,2.3293,2.3109,2.3096,2.3,2.2719,2.255,2.2743,2.3078,2.3181,2.3292,2.3598,2.3688,2.3658,2.3599,2.3497,2.3335,-1.0845,-1.071,-1.0198,-0.9855,-0.9658,-0.9316,-0.8942,-0.8521,-0.7652,-0.674,-0.5855,-0.4968,-0.4174,-0.3497,-0.3107,-0.2833,-0.2719,-0.2719,-0.2691,0.0,-0.1426,-0.0698,-0.0335,0.0784,0.1487,0.1797,0.1797,0.1962,0.2268,0.2551,0.2856,0.316,0.3444,0.3968,0.4653,0.4842,0.5328,0.6126,0.653,0.6622,0.6442,0.6959,0.7054,0.6672,0.6775,0.6728,0.6622,0.7339,0.7948,0.8375,0.9242,0.9879,1.03,1.0251,1.0202,1.0218,1.0475,1.0612,1.0654,1.1099,1.1522,1.1837,1.2575,1.2953,1.2774,1.4096,1.5023,1.5129,1.4903,1.4801,1.4949,1.4646,1.4568,1.4919,1.4659,1.4571,1.4941,1.4692,1.458,1.4952,1.4996,1.5168,1.5636,1.6018,1.6269,1.6589,1.7319,1.8484,1.9986,2.087,2.1318,2.1882,2.2616,2.3064,2.2976,2.3504,2.3894,2.4041,2.3992,2.3861,2.3725,2.379,2.3806,2.3822,2.3689,2.3767,2.3897,2.3965,2.3878,2.3891,2.3907,2.3894,2.3688,2.3599,2.3509,-1.1167,-1.0845,-1.0437,-1.0069,-0.9762,-0.9283,-0.889,-0.8514,-0.7599,-0.674,-0.5873,-0.5164,-0.4343,-0.3413,-0.3056,-0.286,-0.2805,-0.2747,-0.2607,-0.2354,-0.1314,-0.0587,-0.0112,0.1091,0.1738,0.1797,0.1962,0.2073,0.224,0.2549,0.2828,0.3105,0.3416,0.391,0.4512,0.4759,0.523,0.5868,0.6551,0.6844,0.6765,0.7287,0.7485,0.7255,0.7357,0.7357,0.7275,0.8101,0.8661,0.8873,0.9866,1.0478,1.0512,1.0767,1.0859,1.0717,1.1146,1.1445,1.1437,1.1847,1.214,1.2271,1.3054,1.3504,1.3419,1.444,1.5198,1.5465,1.5343,1.5311,1.5448,1.5301,1.5233,1.5476,1.5266,1.5244,1.5407,1.5323,1.5233,1.5429,1.5473,1.5658,1.6127,1.6367,1.6629,1.6967,1.8114,1.9535,2.0864,2.1518,2.1934,2.2254,2.3013,2.3441,2.3187,2.3662,2.3923,2.3678,2.3887,2.3861,2.3626,2.3731,2.4057,2.4125,2.4125,2.4125,2.4125,2.4112,2.4054,2.4067,2.4024,2.3982,2.3907,2.376,2.3539,-1.1477,-1.1049,-1.0718,-1.03,-0.9762,-0.9263,-0.8844,-0.8408,-0.7664,-0.6767,-0.5846,-0.53,-0.4429,-0.3441,-0.3026,-0.2833,-0.286,-0.2749,-0.2549,-0.2212,-0.1202,-0.0476,0.0028,0.1343,0.1933,0.1853,0.2158,0.2268,0.2268,0.2605,0.294,0.3218,0.3471,0.383,0.4343,0.4704,0.5175,0.5759,0.6571,0.7031,0.7106,0.7574,0.7842,0.7901,0.7901,0.7901,0.7955,0.8718,0.921,0.9357,1.0378,1.0906,1.0775,1.1193,1.1376,1.1201,1.1649,1.203,1.2146,1.2492,1.2692,1.2624,1.3386,1.394,1.4173,1.4725,1.5297,1.569,1.5808,1.586,1.5916,1.5807,1.5844,1.5931,1.5865,1.5822,1.5931,1.5876,1.584,1.5931,1.5938,1.6138,1.6557,1.6688,1.6978,1.7729,1.8962,2.0258,2.121,2.1849,2.2184,2.2535,2.3262,2.3416,2.2932,2.3368,2.3608,2.3234,2.3561,2.3626,2.3417,2.3757,2.406,2.4125,2.4125,2.4125,2.4125,2.4125,2.4112,2.4096,2.4083,2.4083,2.4008,2.3688,2.3335,-1.1669,-1.1553,-1.1065,-1.0446,-0.9795,-0.9335,-0.8811,-0.8157,-0.767,-0.6669,-0.5414,-0.4618,-0.399,-0.3385,-0.2942,-0.2747,-0.2719,-0.2691,-0.2663,-0.2493,-0.1314,-0.0559,-0.0223,0.1258,0.1933,0.188,0.2383,0.2493,0.2268,0.277,0.3246,0.353,0.3585,0.4024,0.4732,0.4873,0.5312,0.6119,0.6544,0.6864,0.7085,0.7381,0.7655,0.7901,0.7901,0.7901,0.7919,0.8664,0.9268,0.9687,1.0466,1.1074,1.1336,1.1463,1.1479,1.1463,1.1813,1.2154,1.2525,1.282,1.2964,1.297,1.3334,1.3897,1.4557,1.5071,1.565,1.6175,1.6352,1.6432,1.6411,1.6094,1.6062,1.6378,1.6116,1.5938,1.6302,1.6062,1.5974,1.6389,1.6459,1.6645,1.7049,1.7208,1.7623,1.8561,1.9539,2.0497,2.117,2.1626,2.2104,2.2673,2.314,2.2688,2.2063,2.2517,2.3095,2.3184,2.325,2.3391,2.3652,2.3874,2.4125,2.4125,2.4125,2.4125,2.4125,2.4125,2.4125,2.4125,2.4096,2.4096,2.3891,2.3437,2.295,-1.1977,-1.1678,-1.1301,-1.0659,-0.9906,-0.9498,-0.9126,-0.8672,-0.7578,-0.6605,-0.5733,-0.4505,-0.3685,-0.3188,-0.2942,-0.2777,-0.2719,-0.2691,-0.2607,-0.2296,-0.109,-0.0391,-0.0028,0.1398,0.21,0.2074,0.2495,0.2635,0.2605,0.2907,0.3274,0.3583,0.3691,0.4104,0.4732,0.4928,0.5371,0.6059,0.6305,0.663,0.7085,0.7354,0.7628,0.7875,0.7901,0.7979,0.8206,0.8979,0.9618,0.9974,1.0964,1.1537,1.1503,1.1913,1.2057,1.1874,1.2317,1.2674,1.2828,1.3125,1.3368,1.3549,1.37,1.4151,1.4913,1.5439,1.5926,1.6451,1.6796,1.6961,1.694,1.6787,1.6776,1.6918,1.6798,1.6765,1.6929,1.6798,1.6776,1.695,1.6961,1.7027,1.7267,1.7558,1.8289,1.9404,2.0171,2.058,2.1086,2.1147,2.1176,2.1385,2.1511,2.1919,2.2155,2.2506,2.2738,2.2779,2.3014,2.3326,2.3404,2.3861,2.4083,2.4112,2.4125,2.4125,2.4125,2.4125,2.4125,2.4125,2.4125,2.4096,2.4037,2.3424,2.2798,-1.2224,-1.1753,-1.1293,-1.0718,-1.0095,-0.9595,-0.9145,-0.8613,-0.7439,-0.6546,-0.5733,-0.4536,-0.3741,-0.3297,-0.3026,-0.286,-0.2749,-0.2719,-0.2579,-0.2212,-0.1062,-0.0364,0.0028,0.1427,0.2184,0.2268,0.2633,0.2858,0.2942,0.3135,0.3357,0.3585,0.3691,0.4125,0.4811,0.5062,0.5532,0.6245,0.6332,0.6603,0.7139,0.7327,0.7576,0.797,0.8003,0.8129,0.8409,0.9404,1.003,1.0247,1.1471,1.2051,1.1858,1.2312,1.2509,1.2346,1.2742,1.3042,1.3133,1.345,1.3731,1.398,1.407,1.4369,1.4951,1.5555,1.6017,1.6361,1.692,1.7295,1.7306,1.7306,1.7306,1.7306,1.7306,1.7306,1.7295,1.7306,1.7273,1.7306,1.7251,1.7372,1.7547,1.793,1.8688,1.9741,2.0203,2.0316,2.0543,2.0316,2.0128,2.011,2.0252,2.0844,2.214,2.2304,2.2151,2.2453,2.2753,2.3027,2.3117,2.3796,2.4083,2.4125,2.4125,2.4125,2.4125,2.4125,2.4125,2.4125,2.4125,2.4125,2.4096,2.3352,2.2573,-1.2348,-1.1943,-1.0981,-1.0539,-1.0411,-0.9732,-0.8725,-0.7732,-0.7364,-0.6421,-0.514,-0.4625,-0.4211,-0.3716,-0.3163,-0.2888,-0.2888,-0.2749,-0.2691,-0.2493,-0.1286,-0.0587,-0.0279,0.123,0.2071,0.224,0.2742,0.3188,0.3502,0.3557,0.3585,0.3613,0.361,0.4187,0.5113,0.5281,0.5882,0.6864,0.6788,0.6923,0.7354,0.7252,0.7526,0.8187,0.8267,0.8375,0.8755,0.9884,1.0555,1.0569,1.1836,1.2535,1.2527,1.2566,1.2697,1.2887,1.2964,1.3164,1.345,1.3791,1.401,1.407,1.4258,1.4485,1.4654,1.5391,1.5902,1.596,1.6807,1.7306,1.7306,1.7306,1.7306,1.7306,1.7306,1.7306,1.7306,1.7306,1.7306,1.7306,1.7306,1.7509,1.7908,1.837,1.8857,1.9476,1.9886,2.0061,1.9739,1.9555,1.9493,1.9647,1.9757,1.9958,2.058,2.1221,2.1786,2.2244,2.2557,2.2858,2.3522,2.4083,2.4083,2.4125,2.4125,2.4125,2.4125,2.4125,2.4125,2.4125,2.4125,2.4125,2.4125,2.298,2.2267,-1.2505,-1.2026,-1.1124,-1.0641,-1.0445,-0.9966,-0.9152,-0.8064,-0.7599,-0.6686,-0.55,-0.4791,-0.4298,-0.3907,-0.3299,-0.2998,-0.2916,-0.2777,-0.2691,-0.2549,-0.1314,-0.0587,-0.0251,0.1064,0.1905,0.2212,0.2631,0.3107,0.3557,0.3613,0.3613,0.3613,0.3691,0.4349,0.5391,0.5532,0.6105,0.7198,0.7085,0.7058,0.7246,0.7333,0.7681,0.8259,0.8312,0.8439,0.8698,0.9917,1.0688,1.0846,1.1966,1.259,1.259,1.259,1.2713,1.2981,1.3194,1.3459,1.3791,1.4139,1.4327,1.4318,1.4417,1.4485,1.4654,1.5332,1.5902,1.6046,1.6751,1.7278,1.7306,1.7306,1.7306,1.7306,1.7306,1.7306,1.7306,1.7306,1.7306,1.7306,1.7317,1.7633,1.8366,1.8847,1.9279,1.991,2.0189,2.0095,1.9738,1.9221,1.8951,1.9068,1.9199,1.9439,1.9969,2.0592,2.1211,2.1982,2.2544,2.3054,2.3665,2.4018,2.4112,2.4125,2.4125,2.4125,2.4125,2.4125,2.4125,2.4125,2.4125,2.4083,2.4125,2.2919,2.2298,-1.2529,-1.2085,-1.1352,-1.0845,-1.0522,-1.0017,-0.9204,-0.8229,-0.7578,-0.6745,-0.5778,-0.4873,-0.438,-0.4076,-0.3491,-0.3107,-0.2942,-0.2775,-0.2691,-0.2579,-0.137,-0.067,-0.0307,0.0868,0.171,0.2156,0.2605,0.3051,0.3416,0.3557,0.3613,0.3613,0.3691,0.4374,0.5445,0.5641,0.6268,0.7219,0.7241,0.7198,0.7327,0.7354,0.7614,0.8108,0.8326,0.8591,0.8951,1.0117,1.0797,1.1104,1.2027,1.259,1.259,1.259,1.2713,1.2981,1.3307,1.3631,1.398,1.4297,1.4485,1.4485,1.4485,1.4485,1.4575,1.5225,1.5671,1.6017,1.657,1.7099,1.7278,1.7306,1.7306,1.7306,1.7306,1.7323,1.7407,1.7434,1.7501,1.7573,1.7601,1.798,1.8691,1.8981,1.9401,2.0072,2.022,2.0174,1.9767,1.9396,1.8899,1.8994,1.9078,1.9364,1.9783,2.0271,2.1134,2.1942,2.2622,2.3171,2.3681,2.3981,2.4125,2.4125,2.4125,2.4125,2.4125,2.4125,2.4125,2.4125,2.4054,2.4024,2.3586,2.2859,2.2267,-1.2421,-1.22,-1.1578,-1.1049,-1.0557,-0.9829,-0.8856,-0.7898,-0.723,-0.6534,-0.5736,-0.4877,-0.4519,-0.4325,-0.3716,-0.3299,-0.3077,-0.2828,-0.2691,-0.2579,-0.1454,-0.081,-0.0587,0.07,0.1626,0.2099,0.274,0.3105,0.3218,0.3444,0.3613,0.3613,0.3613,0.4215,0.5304,0.5664,0.6344,0.7192,0.7279,0.7381,0.7768,0.7413,0.7453,0.7942,0.8423,0.8921,0.9444,1.042,1.093,1.1108,1.1988,1.256,1.2598,1.259,1.2744,1.3011,1.3299,1.3631,1.398,1.4297,1.4485,1.4485,1.4485,1.4485,1.4565,1.4981,1.5429,1.5902,1.6361,1.6807,1.7222,1.7306,1.7306,1.7306,1.7334,1.7445,1.7601,1.7684,1.7783,1.8002,1.803,1.8329,1.8724,1.8982,1.9224,1.9645,1.9954,2.0028,1.9629,1.9598,1.9736,1.9448,1.9356,1.9592,1.9773,2.0028,2.1028,2.1979,2.2594,2.3169,2.3759,2.4125,2.4125,2.4125,2.4125,2.4125,2.4125,2.4125,2.4125,2.4083,2.4024,2.3966,2.3514,2.2919,2.2113,-1.2632,-1.2249,-1.1778,-1.1108,-1.0362,-0.984,-0.8895,-0.7626,-0.7122,-0.6485,-0.5763,-0.5069,-0.468,-0.4408,-0.3938,-0.3463,-0.3102,-0.2912,-0.2805,-0.2493,-0.1454,-0.0838,-0.0475,0.0672,0.1738,0.241,0.2719,0.3051,0.3388,0.3557,0.3613,0.3613,0.3613,0.419,0.5254,0.5664,0.6372,0.7354,0.7601,0.7601,0.744,0.7547,0.7735,0.7932,0.8434,0.8963,0.95,1.0174,1.0674,1.0989,1.1677,1.2212,1.2529,1.259,1.2713,1.2989,1.3307,1.3601,1.386,1.4237,1.4485,1.4485,1.4485,1.4485,1.4545,1.4922,1.5381,1.5845,1.6304,1.6807,1.7183,1.7306,1.7306,1.7306,1.7473,1.7601,1.7767,1.7904,1.8111,1.8344,1.8236,1.8383,1.883,1.9081,1.9326,1.9597,1.9825,1.9762,1.9571,1.9579,1.9325,1.9004,1.9347,1.9914,2.0131,2.0489,2.1238,2.2047,2.2648,2.3234,2.3783,2.4125,2.4125,2.4125,2.4125,2.4125,2.4125,2.4125,2.4125,2.4125,2.4083,2.3923,2.3691,2.301,2.2101,-1.2866,-1.2382,-1.176,-1.1116,-1.0354,-0.9736,-0.8817,-0.7771,-0.7182,-0.6566,-0.5918,-0.5312,-0.4842,-0.4463,-0.4073,-0.3633,-0.3216,-0.3051,-0.2912,-0.2577,-0.1426,-0.081,-0.0503,0.0868,0.1849,0.2436,0.2745,0.3051,0.3388,0.3557,0.3613,0.3613,0.3613,0.4107,0.5089,0.55,0.6182,0.7219,0.7488,0.7526,0.7484,0.772,0.7951,0.8109,0.8575,0.8986,0.9379,0.9768,1.0301,1.0989,1.1685,1.2251,1.2567,1.2629,1.2691,1.2897,1.3246,1.3571,1.3731,1.4207,1.4485,1.4485,1.4485,1.4485,1.4545,1.4804,1.5128,1.5604,1.6046,1.6552,1.6948,1.7323,1.7434,1.7445,1.7612,1.7783,1.7975,1.8275,1.8479,1.8667,1.8572,1.8667,1.8923,1.912,1.9313,1.9492,1.9616,1.9817,1.9702,1.9789,1.9615,1.958,1.9953,2.0359,2.0573,2.1001,2.1472,2.2127,2.2758,2.333,2.3887,2.4073,2.4125,2.4125,2.4125,2.4125,2.4125,2.4125,2.4125,2.4125,2.4054,2.3645,2.3292,2.2725,2.1885,-1.3118,-1.2603,-1.1633,-1.1057,-1.0558,-0.9399,-0.8567,-0.8055,-0.7381,-0.6729,-0.6127,-0.5582,-0.5034,-0.4546,-0.4187,-0.3827,-0.3413,-0.316,-0.2996,-0.2519,-0.1454,-0.0587,-0.0056,0.1258,0.2071,0.2406,0.2852,0.3105,0.3274,0.3499,0.3613,0.3613,0.3669,0.4052,0.4842,0.5199,0.5964,0.6972,0.7187,0.7447,0.7785,0.7921,0.805,0.8284,0.8729,0.9071,0.9215,0.9617,1.0142,1.0982,1.1965,1.2529,1.259,1.2621,1.2652,1.2744,1.3216,1.348,1.3662,1.4139,1.4485,1.4485,1.4485,1.4485,1.4515,1.4565,1.4793,1.5264,1.5719,1.6189,1.6712,1.7312,1.7673,1.7767,1.7849,1.8057,1.8533,1.8827,1.8907,1.896,1.8987,1.8987,1.8987,1.902,1.9059,1.9112,1.9363,1.9597,1.9885,2.0054,2.0747,2.0784,2.051,2.0759,2.0945,2.0901,2.1415,2.2075,2.2709,2.3338,2.388,2.4076,2.4125,2.4125,2.4112,2.4112,2.4125,2.4125,2.4125,2.4125,2.3835,2.3335,2.2889,2.2439,2.1822,-1.3142,-1.2618,-1.1726,-1.1015,-1.0397,-0.9392,-0.8508,-0.783,-0.7321,-0.6783,-0.6209,-0.5841,-0.5266,-0.466,-0.4436,-0.4076,-0.3583,-0.3246,-0.3023,-0.2691,-0.1398,0.0084,0.109,0.1734,0.2293,0.2796,0.3047,0.3218,0.3469,0.3635,0.3691,0.361,0.3805,0.4215,0.4873,0.5285,0.605,0.7003,0.7511,0.7631,0.767,0.8015,0.8239,0.8317,0.8628,0.9023,0.9411,1.0186,1.0674,1.1014,1.2027,1.259,1.2652,1.2805,1.2897,1.2989,1.3467,1.383,1.383,1.4198,1.4485,1.4485,1.4485,1.4485,1.4485,1.4485,1.4734,1.5206,1.5806,1.6379,1.686,1.7551,1.803,1.8329,1.8317,1.8479,1.8774,1.8934,1.9013,1.9013,1.9013,1.9013,1.9013,1.9013,1.9013,1.904,1.9119,1.9277,1.9604,1.9965,2.0459,2.0684,2.066,2.1044,2.1215,2.1068,2.1312,2.199,2.2658,2.3306,2.38,2.416,2.4141,2.4125,2.4128,2.4128,2.4112,2.4125,2.4125,2.4125,2.3865,2.3484,2.301,2.2543,2.1834,-1.3118,-1.2627,-1.1776,-1.1057,-1.0389,-0.9555,-0.8639,-0.7851,-0.753,-0.6912,-0.6241,-0.5946,-0.5403,-0.466,-0.4439,-0.4135,-0.3663,-0.3272,-0.3049,-0.2713,-0.1313,0.0335,0.1651,0.2156,0.2575,0.3049,0.3246,0.3416,0.3583,0.3744,0.3716,0.3666,0.3802,0.4242,0.4873,0.5144,0.5918,0.6912,0.745,0.7609,0.7862,0.8124,0.8431,0.8593,0.8819,0.9089,0.9673,1.0516,1.1045,1.1382,1.2174,1.2828,1.2981,1.3125,1.3186,1.3246,1.3709,1.3941,1.398,1.4267,1.4485,1.4485,1.4485,1.4485,1.4515,1.4536,1.4754,1.5001,1.5835,1.6436,1.6877,1.7667,1.8371,1.8706,1.8747,1.8827,1.8999,1.8987,1.9013,1.9013,1.9013,1.9013,1.9013,1.9013,1.9013,1.9013,1.9013,1.9146,1.9344,1.9708,2.0093,2.0397,2.0684,2.1006,2.1264,2.1215,2.1433,2.2074,2.2655,2.3298,2.3866,2.4266,2.4274,2.4245,2.4203,2.4173,2.4171,2.4141,2.4125,2.4054,2.3923,2.3442,2.2816,2.2298,2.1616,-1.3142,-1.2642,-1.1783,-1.1141,-1.0618,-0.9762,-0.885,-0.8084,-0.7818,-0.7095,-0.6218,-0.6,-0.5422,-0.4519,-0.4328,-0.4079,-0.3799,-0.3327,-0.2933,-0.2319,-0.1116,0.0419,0.1846,0.241,0.2772,0.3105,0.3416,0.3557,0.3638,0.3744,0.3716,0.3694,0.3774,0.4211,0.4791,0.4952,0.5723,0.6798,0.7193,0.7577,0.8036,0.8311,0.8591,0.895,0.907,0.9308,0.9799,1.0491,1.1101,1.1547,1.2474,1.3064,1.3428,1.3511,1.3541,1.361,1.389,1.41,1.41,1.4357,1.4485,1.4485,1.4485,1.4515,1.4536,1.4636,1.4725,1.4834,1.5853,1.6634,1.7146,1.8011,1.8602,1.8907,1.8999,1.8987,1.9013,1.9013,1.9013,1.9013,1.9013,1.9013,1.9013,1.9013,1.9013,1.9013,1.9013,1.9093,1.9198,1.9408,1.9862,2.0308,2.061,2.0908,2.1129,2.1313,2.1688,2.216,2.2732,2.3339,2.4008,2.4363,2.4397,2.4392,2.4376,2.4319,2.4258,2.42,2.4171,2.3852,2.359,2.2907,2.2163,2.176,2.1187,-1.319,-1.2798,-1.1934,-1.1493,-1.1166,-0.9876,-0.9,-0.854,-0.7877,-0.6999,-0.6191,-0.6,-0.5454,-0.4632,-0.4328,-0.4107,-0.3882,-0.3325,-0.2543,-0.1313,-0.081,0.0447,0.1706,0.241,0.2828,0.3135,0.3444,0.3585,0.3638,0.3802,0.383,0.3666,0.3941,0.438,0.4846,0.5042,0.5614,0.6651,0.7169,0.7583,0.7993,0.8431,0.8752,0.9083,0.9293,0.9432,0.9646,1.0238,1.1007,1.1834,1.2558,1.3164,1.3519,1.3791,1.3881,1.395,1.4169,1.4387,1.4426,1.4455,1.4485,1.4485,1.4485,1.4526,1.4666,1.4686,1.4784,1.5108,1.6132,1.7168,1.8104,1.8629,1.8907,1.8987,1.9013,1.9013,1.9013,1.9013,1.9013,1.9013,1.9013,1.9013,1.9013,1.9013,1.9013,1.9013,1.9013,1.904,1.9093,1.9172,1.9552,2.0055,2.0459,2.0734,2.1006,2.1253,2.1629,2.2007,2.2566,2.3014,2.3703,2.4427,2.4435,2.4485,2.4549,2.4476,2.4403,2.429,2.4261,2.3767,2.331,2.2622,2.2009,2.1459,2.0901,-1.2983,-1.2676,-1.2224,-1.1785,-1.1276,-1.0141,-0.9287,-0.8699,-0.7883,-0.6896,-0.6077,-0.5914,-0.5426,-0.4605,-0.4273,-0.4049,-0.3882,-0.3355,-0.2319,-0.1146,-0.0531,0.0307,0.1484,0.2298,0.2856,0.3132,0.3444,0.3585,0.3669,0.3774,0.3827,0.3716,0.3968,0.4408,0.4901,0.5097,0.5668,0.6584,0.7227,0.7632,0.7926,0.8427,0.883,0.9095,0.936,0.951,0.967,1.0174,1.1069,1.1989,1.2681,1.3307,1.386,1.4139,1.4228,1.4258,1.4387,1.4485,1.4485,1.4485,1.4485,1.4485,1.4485,1.4586,1.4695,1.4784,1.4902,1.5254,1.6046,1.7185,1.8402,1.8907,1.896,1.9013,1.9013,1.9013,1.9013,1.9013,1.9013,1.9013,1.9013,1.9013,1.9013,1.9013,1.9013,1.9013,1.9013,1.9013,1.9013,1.9119,1.9303,1.9708,2.0195,2.0573,2.0833,2.1131,2.1456,2.1792,2.2171,2.2512,2.2946,2.3703,2.44,2.4506,2.4584,2.4607,2.4563,2.445,2.4363,2.4089,2.3577,2.2713,2.1947,2.1428,2.0848,-1.2798,-1.2529,-1.2505,-1.211,-1.1368,-1.0499,-0.9677,-0.8869,-0.801,-0.6993,-0.5964,-0.58,-0.5336,-0.457,-0.4159,-0.3993,-0.3716,-0.3327,-0.2291,-0.1006,-0.0559,0.028,0.1317,0.2214,0.28,0.3077,0.3444,0.3585,0.3641,0.3747,0.3824,0.3824,0.3938,0.4463,0.5014,0.5234,0.5696,0.6623,0.7283,0.7682,0.7983,0.8457,0.8921,0.9191,0.9378,0.9542,0.9734,1.0174,1.0944,1.2174,1.2673,1.345,1.4198,1.4485,1.4485,1.4485,1.4485,1.4485,1.4485,1.4485,1.4485,1.4485,1.4545,1.4616,1.4754,1.4911,1.5088,1.5459,1.6104,1.7006,1.7972,1.8655,1.896,1.9013,1.9013,1.9013,1.9013,1.9013,1.9013,1.9013,1.9013,1.9013,1.9013,1.9013,1.9013,1.9013,1.9013,1.9013,1.904,1.9066,1.9251,1.9486,1.9965,2.0648,2.0981,2.1104,2.1429,2.1575,2.1873,2.2104,2.2386,2.2945,2.3703,2.4444,2.4632,2.4669,2.4708,2.4664,2.4549,2.4405,2.3826,2.2937,2.2163,2.1428,2.0912,-1.3069,-1.2661,-1.2554,-1.2357,-1.1993,-1.1082,-1.0177,-0.9403,-0.8468,-0.7272,-0.5932,-0.5773,-0.5308,-0.4598,-0.4159,-0.3744,-0.3383,-0.3074,-0.2291,-0.1034,-0.0531,0.0196,0.1289,0.2242,0.2717,0.2914,0.3307,0.3585,0.3641,0.3747,0.3769,0.3824,0.399,0.4543,0.5234,0.5567,0.5955,0.6778,0.7466,0.7857,0.8072,0.8621,0.9125,0.9366,0.9448,0.9504,0.958,0.983,1.0573,1.1888,1.2266,1.3177,1.4139,1.4485,1.4485,1.4485,1.4485,1.4485,1.4485,1.4485,1.4485,1.4545,1.4616,1.4754,1.4931,1.5059,1.5205,1.5594,1.634,1.7313,1.8038,1.8629,1.896,1.9013,1.9013,1.9013,1.9013,1.9013,1.9013,1.9013,1.9013,1.9013,1.9013,1.9013,1.9013,1.9013,1.9013,1.9066,1.9146,1.9146,1.9198,1.946,1.9746,2.0523,2.1191,2.1264,2.1412,2.1412,2.1616,2.1819,2.2088,2.2305,2.2903,2.3663,2.4406,2.4716,2.4769,2.4739,2.4635,2.4421,2.3783,2.3135,2.2482,2.1834,2.1439,-1.342,-1.2949,-1.2866,-1.2632,-1.2116,-1.0838,-1.0151,-0.9714,-0.8336,-0.709,-0.6285,-0.585,-0.5308,-0.4598,-0.4159,-0.366,-0.3216,-0.3023,-0.2181,-0.1062,-0.0503,0.0196,0.1318,0.227,0.2607,0.2858,0.3276,0.3613,0.3613,0.3666,0.3744,0.3907,0.4211,0.4877,0.5536,0.5968,0.6444,0.7129,0.775,0.8108,0.8138,0.8793,0.9208,0.9406,0.9478,0.9478,0.9548,0.9708,1.0415,1.1524,1.2081,1.2986,1.386,1.4417,1.4485,1.4485,1.4485,1.4485,1.4485,1.4485,1.4506,1.4606,1.4656,1.4834,1.5029,1.5186,1.5254,1.5613,1.6443,1.7313,1.7589,1.8456,1.8934,1.9013,1.9013,1.9013,1.9013,1.9013,1.9013,1.9013,1.9013,1.9013,1.9013,1.9013,1.9013,1.9013,1.9013,1.9119,1.9225,1.95,1.963,1.9759,2.0093,2.0585,2.124,2.1337,2.1385,2.1385,2.1412,2.1602,2.1778,2.2047,2.2359,2.289,2.3608,2.4353,2.4624,2.4527,2.4463,2.4425,2.4024,2.353,2.2852,2.231,2.192,-1.3684,-1.3218,-1.3218,-1.2866,-1.2141,-1.0838,-1.0151,-0.9773,-0.8316,-0.7042,-0.6226,-0.585,-0.5226,-0.446,-0.3965,-0.3522,-0.2935,-0.2687,-0.176,-0.067,-0.0028,0.0642,0.1456,0.227,0.283,0.2802,0.3357,0.361,0.3613,0.3613,0.3691,0.3962,0.4543,0.5234,0.5761,0.6473,0.705,0.7642,0.8171,0.8456,0.8638,0.8949,0.9275,0.9454,0.9478,0.9478,0.9516,0.9644,1.0351,1.1305,1.2043,1.2765,1.3821,1.4327,1.4485,1.4485,1.4485,1.4485,1.4515,1.4536,1.4577,1.4647,1.4775,1.4961,1.5079,1.5235,1.5303,1.5575,1.6472,1.7202,1.7424,1.8309,1.8881,1.9013,1.9013,1.9013,1.9013,1.9013,1.9013,1.9013,1.9013,1.9013,1.9013,1.9013,1.9013,1.9013,1.9013,1.9225,1.9448,2.022,2.0409,2.0359,2.0535,2.0858,2.1215,2.1361,2.1385,2.1385,2.1385,2.148,2.1616,2.1765,2.2063,2.2332,2.2916,2.3594,2.3947,2.4286,2.4175,2.4129,2.4186,2.3913,2.3229,2.2707,2.2304,-1.3684,-1.3218,-1.3218,-1.2914,-1.2421,-1.1651,-1.0779,-0.981,-0.8993,-0.7566,-0.5832,-0.5591,-0.4983,-0.4073,-0.3605,-0.3047,-0.2404,-0.187,-0.1088,0.0028,0.0753,0.1312,0.1986,0.2882,0.2996,0.297,0.3469,0.3663,0.3638,0.3641,0.3666,0.3907,0.455,0.5353,0.6154,0.6885,0.7658,0.8212,0.874,0.9093,0.9279,0.9382,0.9436,0.9466,0.9478,0.9478,0.9478,0.9606,1.0193,1.1361,1.1826,1.2665,1.3791,1.4327,1.4455,1.4485,1.4485,1.4485,1.4515,1.4586,1.4656,1.4745,1.4931,1.5127,1.5235,1.5313,1.5391,1.5439,1.6443,1.7118,1.7368,1.8282,1.8815,1.9013,1.9013,1.9013,1.9013,1.9013,1.9013,1.9013,1.9013,1.9013,1.9013,1.9013,1.9013,1.9013,1.9066,1.9277,1.9708,2.0498,2.0945,2.0858,2.0809,2.108,2.1215,2.1361,2.1385,2.1385,2.1385,2.1385,2.148,2.1575,2.1507,2.1833,2.24,2.2861,2.3256,2.354,2.3716,2.3783,2.3774,2.3723,2.3585,2.3118,2.258,-1.4082,-1.3661,-1.3671,-1.3262,-1.252,-1.1526,-1.0728,-0.9979,-0.8784,-0.7379,-0.6095,-0.5673,-0.4877,-0.3811,-0.3355,-0.2882,-0.2238,-0.1789,-0.0893,0.0251,0.0977,0.1564,0.2322,0.2993,0.3218,0.3274,0.3605,0.3858,0.3805,0.3669,0.3635,0.3799,0.4522,0.5365,0.6316,0.7095,0.7917,0.8603,0.9117,0.9378,0.948,0.9478,0.9478,0.9478,0.9478,0.9478,0.9478,0.951,1.0161,1.1267,1.1826,1.2634,1.3692,1.4297,1.4485,1.4485,1.4485,1.4485,1.4515,1.4595,1.4704,1.4843,1.5029,1.5147,1.5264,1.5391,1.5439,1.541,1.6169,1.681,1.7285,1.7984,1.8548,1.8854,1.9013,1.9013,1.9013,1.9013,1.9013,1.9013,1.9013,1.9013,1.9013,1.9013,1.8989,1.8929,1.9071,1.9356,1.9914,2.0747,2.1068,2.1191,2.1191,2.1264,2.1313,2.1385,2.1385,2.1385,2.1385,2.1385,2.1385,2.1399,2.1385,2.1385,2.1738,2.2185,2.2619,2.2999,2.3325,2.3339,2.332,2.328,2.3233,2.3118,2.2641,-1.435,-1.3978,-1.3907,-1.342,-1.2652,-1.1309,-1.0652,-1.0236,-0.8666,-0.7251,-0.6154,-0.5357,-0.4373,-0.3625,-0.3138,-0.2645,-0.1985,-0.1741,-0.0643,0.0363,0.1118,0.1817,0.2601,0.3246,0.3499,0.3416,0.383,0.4023,0.3995,0.3882,0.3767,0.3752,0.4567,0.547,0.6321,0.7123,0.7964,0.898,0.931,0.9454,0.9478,0.9478,0.9478,0.9478,0.9478,0.9478,0.9478,0.9478,1.0161,1.0944,1.1734,1.2512,1.345,1.4139,1.4455,1.4485,1.4485,1.4506,1.4565,1.4645,1.4743,1.4921,1.5088,1.5225,1.5391,1.5468,1.5642,1.569,1.6528,1.7034,1.7435,1.805,1.8548,1.8881,1.9013,1.9013,1.9013,1.9013,1.9013,1.9013,1.9013,1.9013,1.9013,1.9013,1.8965,1.8831,1.9012,1.9384,2.0016,2.0772,2.1019,2.1104,2.1264,2.1313,2.1361,2.1385,2.1385,2.1385,2.1385,2.1385,2.1385,2.1385,2.1385,2.1385,2.1399,2.1792,2.2388,2.2675,2.2975,2.3123,2.3203,2.2907,2.2795,2.2758,2.2641,-1.4373,-1.3954,-1.36,-1.3214,-1.2783,-1.1635,-1.0939,-1.0364,-0.8942,-0.7327,-0.5698,-0.4305,-0.3431,-0.3124,-0.2749,-0.2253,-0.1518,-0.0821,0.028,0.137,0.2263,0.2571,0.313,0.3549,0.378,0.3596,0.3974,0.4204,0.4218,0.4242,0.4083,0.4101,0.4675,0.5669,0.657,0.7302,0.8186,0.9064,0.9433,0.951,0.9516,0.9516,0.9478,0.9478,0.9478,0.9478,0.9478,0.9542,0.9856,1.0636,1.1524,1.2328,1.3199,1.4049,1.4455,1.4485,1.4515,1.4556,1.4666,1.4764,1.4911,1.5059,1.5196,1.5323,1.541,1.594,1.6169,1.6226,1.6922,1.7617,1.8066,1.8509,1.8682,1.8934,1.9013,1.9013,1.9013,1.9013,1.9013,1.9013,1.9013,1.9013,1.9013,1.9013,1.8941,1.8806,1.9089,1.9434,1.9811,2.0447,2.0709,2.0932,2.1191,2.1313,2.1361,2.1385,2.1385,2.1385,2.1385,2.1385,2.1385,2.1385,2.1385,2.1453,2.1507,2.1819,2.2198,2.2769,2.3151,2.3185,2.3108,2.2808,2.258,2.2524,2.242,-1.4012,-1.3552,-1.289,-1.2544,-1.2348,-1.1526,-1.0787,-0.994,-0.8589,-0.6648,-0.4554,-0.3237,-0.2484,-0.2241,-0.1969,-0.1496,-0.0854,-0.0582,0.0685,0.1684,0.2347,0.2852,0.338,0.3844,0.3949,0.3986,0.4298,0.4568,0.4637,0.4577,0.4604,0.4696,0.4822,0.5389,0.6272,0.7537,0.8632,0.9277,0.9597,0.967,0.9644,0.9548,0.9478,0.9478,0.9644,0.9612,0.958,0.9734,1.0136,1.078,1.1671,1.242,1.3139,1.404,1.4446,1.4515,1.4565,1.4636,1.4715,1.4813,1.4902,1.5117,1.5284,1.542,1.5439,1.5968,1.6216,1.6557,1.7118,1.7847,1.8147,1.8321,1.8494,1.8854,1.9013,1.9013,1.9013,1.9013,1.9013,1.9013,1.9013,1.9013,1.9013,1.9013,1.8917,1.8833,1.9165,1.9486,1.9811,2.0093,2.0384,2.0696,2.0957,2.1264,2.1337,2.1361,2.1385,2.1385,2.1385,2.1385,2.1385,2.1385,2.1399,2.148,2.1711,2.2104,2.2564,2.3093,2.3286,2.314,2.2925,2.2656,2.2501,2.2347,2.2259,-1.3931,-1.3505,-1.2613,-1.219,-1.2017,-1.1284,-1.0372,-0.9342,-0.8172,-0.6092,-0.3588,-0.2699,-0.2012,-0.1657,-0.1383,-0.1012,-0.0602,-0.0208,0.0932,0.1781,0.2418,0.2949,0.3713,0.4216,0.4333,0.4393,0.4659,0.4916,0.491,0.4935,0.4972,0.4988,0.5019,0.5448,0.6308,0.7735,0.9029,0.9535,0.9837,0.9856,0.983,0.9734,0.967,0.967,0.9798,0.9804,0.9766,0.9888,1.0281,1.0993,1.1795,1.2634,1.339,1.401,1.4446,1.4586,1.4636,1.4745,1.4813,1.4872,1.499,1.5225,1.5332,1.541,1.5555,1.6073,1.6641,1.6726,1.7313,1.7902,1.8336,1.8509,1.8629,1.8987,1.9013,1.9013,1.9013,1.9013,1.9013,1.9013,1.9013,1.9013,1.9013,1.904,1.9135,1.8913,1.8744,1.9161,1.9656,1.9914,2.0144,2.0434,2.0734,2.1031,2.1313,2.1361,2.1385,2.1385,2.1385,2.1385,2.1385,2.141,2.1385,2.1426,2.1765,2.2348,2.2822,2.3189,2.3137,2.296,2.2789,2.2689,2.2365,2.2259,2.2228,-1.4292,-1.3897,-1.2933,-1.2359,-1.1959,-1.0905,-0.9825,-0.8758,-0.7643,-0.5744,-0.336,-0.2605,-0.2007,-0.1521,-0.1075,-0.0725,-0.0368,-0.0092,0.0903,0.2238,0.2559,0.3212,0.4042,0.4617,0.4726,0.459,0.49,0.5181,0.5156,0.5203,0.5276,0.5334,0.5394,0.5697,0.6335,0.7882,0.8931,0.9414,0.9825,0.9958,0.9983,0.9958,0.9919,0.9919,0.9989,0.9989,0.9926,1.0047,1.0446,1.1055,1.1888,1.2665,1.3329,1.41,1.4526,1.4627,1.4715,1.4863,1.5156,1.5186,1.5254,1.5332,1.5381,1.541,1.5633,1.6312,1.7045,1.6978,1.7929,1.8629,1.8907,1.8934,1.896,1.896,1.8987,1.9013,1.9013,1.9013,1.9013,1.9013,1.9013,1.9013,1.9013,1.9066,1.9303,1.912,1.8612,1.8839,1.953,1.9837,2.0093,2.0283,2.061,2.0858,2.1166,2.1337,2.1385,2.1385,2.1385,2.1385,2.1434,2.1471,2.1447,2.1399,2.1715,2.2218,2.273,2.3229,2.335,2.3518,2.3022,2.2774,2.242,2.2197,2.2197,-1.3954,-1.3518,-1.2487,-1.1996,-1.1758,-1.0821,-0.9736,-0.8434,-0.6667,-0.4559,-0.2582,-0.1938,-0.1331,-0.0693,-0.0355,-0.0129,0.0124,0.037,0.1369,0.2901,0.2886,0.3787,0.4624,0.5033,0.5127,0.5164,0.5415,0.5584,0.564,0.5595,0.5614,0.5708,0.5818,0.622,0.7085,0.8297,0.9186,0.9737,1.0072,1.0206,1.0174,1.0085,1.0021,1.0053,1.0142,1.0149,1.0085,1.0238,1.0643,1.1195,1.1996,1.2734,1.3411,1.4181,1.4577,1.4695,1.4784,1.5108,1.5284,1.5342,1.5362,1.5391,1.542,1.542,1.5526,1.6122,1.6708,1.723,1.7957,1.8548,1.8854,1.896,1.8987,1.8987,1.9013,1.9013,1.9013,1.9013,1.9013,1.9013,1.9013,1.9013,1.9013,1.9066,1.9251,1.9565,1.9216,1.937,1.9965,2.0042,2.0169,2.0296,2.051,2.0759,2.1006,2.1264,2.1385,2.1385,2.1385,2.1385,2.1434,2.1544,2.1434,2.1361,2.1693,2.2074,2.2707,2.3366,2.4009,2.4145,2.3577,2.306,2.2696,2.2402,2.2197,-1.386,-1.3246,-1.237,-1.1814,-1.1416,-1.0533,-0.9288,-0.7588,-0.5266,-0.3176,-0.1848,-0.1387,-0.0831,-0.0159,0.026,0.0396,0.0535,0.0762,0.1727,0.3244,0.3219,0.4094,0.4996,0.5493,0.5516,0.5608,0.5743,0.5881,0.5826,0.5886,0.5865,0.5899,0.6148,0.6756,0.7567,0.8377,0.9122,0.9729,1.0212,1.0403,1.0371,1.0308,1.0238,1.0269,1.0301,1.0339,1.0333,1.0491,1.0839,1.1421,1.2089,1.2826,1.3494,1.4142,1.4636,1.4793,1.502,1.5274,1.5362,1.5391,1.5391,1.542,1.542,1.542,1.5526,1.6036,1.6415,1.695,1.7628,1.8159,1.8602,1.8735,1.896,1.896,1.9013,1.9013,1.9013,1.9013,1.9013,1.9013,1.9013,1.9013,1.9013,1.9093,1.9186,1.9552,1.985,2.0067,2.0245,2.0296,2.0346,2.0472,2.0585,2.0833,2.1055,2.1264,2.1361,2.1385,2.1385,2.141,2.1554,2.1664,2.1482,2.1385,2.173,2.2154,2.2829,2.35,2.4034,2.4266,2.4018,2.3514,2.3017,2.2665,2.2371,-1.4025,-1.3168,-1.2594,-1.1812,-1.0914,-0.9829,-0.8212,-0.621,-0.3512,-0.2095,-0.1579,-0.1059,-0.0554,-0.0032,0.0362,0.0529,0.0712,0.102,0.2188,0.3189,0.3588,0.4595,0.5434,0.6002,0.5981,0.5931,0.6003,0.6185,0.5965,0.6099,0.6067,0.6121,0.6601,0.7251,0.7837,0.842,0.9102,0.9913,1.0371,1.0498,1.0498,1.053,1.0491,1.0491,1.0523,1.053,1.0523,1.0618,1.0965,1.1483,1.2151,1.2826,1.3524,1.4252,1.4686,1.499,1.5245,1.5303,1.5381,1.542,1.542,1.542,1.542,1.542,1.5526,1.5835,1.6169,1.6585,1.7174,1.771,1.8159,1.8536,1.8881,1.8934,1.8987,1.9013,1.9013,1.9013,1.9013,1.9013,1.9013,1.9013,1.9013,1.9066,1.916,1.95,1.9837,2.0118,2.0321,2.0548,2.0598,2.0684,2.0809,2.0945,2.1118,2.1191,2.124,2.1215,2.1385,2.1434,2.1626,2.1783,2.1698,2.1688,2.1825,2.2174,2.2651,2.3286,2.3997,2.4108,2.4178,2.3884,2.3335,2.2957,2.2665,-1.344,-1.3072,-1.192,-1.1233,-1.0652,-0.83,-0.6572,-0.5308,-0.3427,-0.2254,-0.1484,-0.1029,-0.0329,0.0032,0.0728,0.0791,0.1112,0.1756,0.2723,0.3528,0.4153,0.5209,0.5988,0.6448,0.6506,0.6506,0.6498,0.6542,0.6593,0.6562,0.6404,0.6408,0.706,0.7674,0.8226,0.8775,0.9518,1.0072,1.0491,1.0555,1.0586,1.0586,1.0586,1.0586,1.0586,1.0586,1.0586,1.0586,1.0902,1.1452,1.2112,1.2787,1.348,1.4359,1.5,1.5216,1.5245,1.5186,1.5362,1.542,1.542,1.542,1.542,1.542,1.5468,1.5613,1.5892,1.6312,1.6698,1.7174,1.7793,1.8267,1.8682,1.8934,1.8987,1.9013,1.9013,1.9013,1.9013,1.9013,1.9013,1.9013,1.9013,1.9013,1.9146,1.9474,1.9785,2.0029,2.0334,2.0585,2.0734,2.0809,2.0981,2.1118,2.0945,2.0945,2.1019,2.1093,2.1264,2.1458,2.1712,2.1855,2.1888,2.1944,2.1955,2.2068,2.2273,2.2936,2.3608,2.4202,2.4332,2.4048,2.3708,2.3365,2.2909,-1.3037,-1.2432,-1.1583,-1.0629,-0.9183,-0.6392,-0.4714,-0.3894,-0.2492,-0.1519,-0.0966,0.0,0.0532,0.0922,0.1466,0.1632,0.1448,0.2236,0.3206,0.4167,0.4596,0.5411,0.615,0.6642,0.6605,0.6675,0.6741,0.6761,0.6881,0.6876,0.6745,0.6712,0.7419,0.7999,0.8613,0.9288,0.9964,1.039,1.0618,1.0586,1.0586,1.0593,1.0586,1.0586,1.0586,1.0586,1.0586,1.0586,1.0839,1.1264,1.1896,1.2696,1.342,1.433,1.5137,1.5332,1.5303,1.5274,1.5391,1.542,1.542,1.542,1.542,1.542,1.542,1.5497,1.5661,1.5882,1.6255,1.668,1.7341,1.7984,1.8456,1.8934,1.896,1.9013,1.9013,1.9013,1.9013,1.9013,1.9013,1.9013,1.9013,1.9013,1.9066,1.9277,1.9552,1.9888,2.0258,2.061,2.0734,2.0809,2.1068,2.1264,2.1044,2.0847,2.0896,2.1006,2.114,2.1396,2.1698,2.2044,2.2208,2.2165,2.2042,2.2125,2.2198,2.2532,2.3098,2.369,2.423,2.4095,2.3935,2.3884,2.3335,-1.2774,-1.1577,-1.1348,-0.971,-0.7139,-0.4572,-0.3037,-0.2135,-0.079,-0.0225,0.0065,0.1359,0.1877,0.187,0.2211,0.2315,0.2368,0.2832,0.3626,0.4713,0.4797,0.5401,0.6133,0.6581,0.6675,0.6544,0.6609,0.6909,0.6913,0.6979,0.7007,0.6979,0.7647,0.8253,0.8898,0.957,1.0218,1.0807,1.0807,1.0681,1.0656,1.0624,1.0586,1.0586,1.0586,1.0586,1.0586,1.0593,1.0624,1.1076,1.1686,1.2581,1.3593,1.4261,1.501,1.5332,1.5332,1.5332,1.5391,1.542,1.542,1.542,1.542,1.542,1.542,1.542,1.5526,1.5604,1.5921,1.6312,1.6922,1.7534,1.8066,1.8563,1.8842,1.8934,1.9013,1.9013,1.9013,1.9013,1.9013,1.9013,1.9013,1.9013,1.9013,1.9119,1.9277,1.963,1.9939,2.0384,2.0709,2.0784,2.1118,2.1288,2.1142,2.097,2.0883,2.0944,2.1091,2.1431,2.1817,2.2208,2.2592,2.2386,2.2164,2.2104,2.2171,2.2405,2.2694,2.3151,2.3649,2.3983,2.404,2.3969,2.3623,-1.2209,-1.1718,-1.0225,-0.8183,-0.583,-0.4165,-0.2558,-0.1102,0.0899,0.1388,0.1162,0.1736,0.2181,0.2347,0.2817,0.2885,0.2751,0.3453,0.4054,0.4486,0.4752,0.5385,0.6181,0.6515,0.6741,0.7068,0.7167,0.7138,0.7143,0.7209,0.7237,0.7073,0.7777,0.8549,0.9084,0.9729,1.044,1.1122,1.1059,1.0902,1.0776,1.0751,1.0719,1.0656,1.0624,1.0624,1.0593,1.0586,1.0902,1.1358,1.2058,1.313,1.4419,1.4715,1.501,1.5294,1.5332,1.5332,1.5381,1.542,1.542,1.542,1.542,1.542,1.542,1.542,1.541,1.5468,1.5633,1.6016,1.6472,1.709,1.7683,1.8201,1.867,1.8815,1.8987,1.9013,1.9013,1.9013,1.9013,1.9013,1.9013,1.9013,1.9013,1.9013,1.904,1.9225,1.9408,1.9785,2.0523,2.0747,2.1166,2.1302,2.1166,2.1031,2.0932,2.0957,2.1104,2.1492,2.1949,2.237,2.2706,2.25,2.2278,2.2158,2.2048,2.2077,2.2369,2.2696,2.2924,2.3217,2.3536,2.3566,2.3347,-1.1988,-1.1326,-0.9128,-0.6938,-0.4836,-0.266,-0.0933,0.0453,0.2334,0.2983,0.2679,0.2919,0.3054,0.3052,0.3522,0.3556,0.3355,0.4028,0.4459,0.4655,0.4821,0.5322,0.5888,0.6449,0.6745,0.7134,0.7661,0.7764,0.7601,0.7731,0.7792,0.7596,0.8236,0.8909,0.941,1.0091,1.073,1.1397,1.1334,1.1216,1.1028,1.0965,1.087,1.0744,1.0681,1.0688,1.0593,1.0618,1.0965,1.1732,1.2573,1.3644,1.4627,1.501,1.5177,1.5332,1.5362,1.5332,1.5391,1.542,1.542,1.542,1.542,1.542,1.542,1.542,1.542,1.5439,1.5439,1.5777,1.6226,1.6754,1.7424,1.7972,1.8309,1.8536,1.8789,1.9013,1.9013,1.9013,1.9013,1.9013,1.9013,1.9013,1.9013,1.9013,1.9013,1.9146,1.9277,1.9303,2.0016,2.0598,2.0921,2.1253,2.1288,2.1104,2.0932,2.1006,2.1153,2.1602,2.2077,2.2546,2.2812,2.2523,2.2278,2.2128,2.2052,2.1868,2.1749,2.1903,2.2154,2.2392,2.2749,2.3038,2.2863,-1.1666,-1.0332,-0.7778,-0.5638,-0.3685,-0.0786,0.1045,0.2039,0.3446,0.414,0.4123,0.4231,0.4334,0.4303,0.4303,0.4334,0.4331,0.4364,0.4661,0.4924,0.499,0.5322,0.5851,0.6511,0.6937,0.7433,0.7987,0.8252,0.8317,0.8349,0.8284,0.8312,0.8823,0.9518,1.0002,1.0541,1.1108,1.1584,1.1677,1.1591,1.1404,1.1216,1.1028,1.0902,1.0839,1.0782,1.0713,1.0744,1.1028,1.1849,1.2909,1.3863,1.4617,1.504,1.5274,1.5391,1.5391,1.5391,1.542,1.542,1.542,1.542,1.542,1.542,1.542,1.542,1.542,1.542,1.542,1.5555,1.5979,1.6425,1.7079,1.7754,1.8027,1.8402,1.8735,1.9013,1.9013,1.9013,1.9013,1.9013,1.9013,1.9013,1.9013,1.9013,1.9093,1.9239,1.9344,1.9317,1.963,2.0105,2.0485,2.0809,2.1166,2.124,2.1031,2.1177,2.1372,2.1779,2.2147,2.2417,2.2546,2.244,2.224,2.203,2.1769,2.1521,2.1407,2.1328,2.129,2.1498,2.1809,2.2079,2.2255,-1.0345,-0.7916,-0.5655,-0.3431,-0.1254,0.0221,0.1556,0.2913,0.3806,0.4281,0.4392,0.4597,0.4567,0.4303,0.4303,0.4434,0.4694,0.4631,0.4758,0.5054,0.496,0.519,0.5716,0.6539,0.733,0.7954,0.8414,0.8452,0.8711,0.8608,0.8479,0.8474,0.8517,0.9242,1.0148,1.0622,1.0982,1.1584,1.1965,1.1903,1.1778,1.1553,1.1209,1.109,1.1028,1.1028,1.0996,1.1003,1.131,1.1981,1.2978,1.3803,1.4401,1.4922,1.5245,1.5391,1.542,1.542,1.542,1.542,1.542,1.542,1.542,1.542,1.542,1.542,1.542,1.542,1.542,1.542,1.5748,1.6083,1.6641,1.7468,1.7972,1.8483,1.8934,1.8999,1.9013,1.9013,1.9013,1.9013,1.9013,1.9013,1.9013,1.9013,1.9013,1.9146,1.9172,1.9212,1.9291,1.9643,2.0055,2.0459,2.0833,2.1288,2.1288,2.1396,2.1541,2.1841,2.2044,2.2091,2.2161,2.2333,2.21,2.1831,2.153,2.1434,2.1122,2.0997,2.059,2.0592,2.0923,2.1109,2.1255]},{"header":{"parameterUnit":"m.s-1","parameterCategory":1,"la1":31.0,"la2":29.5877,"lo1":-88.7671,"lo2":-86.6584,"dx":0.0162,"dy":0.0185,"nx":115,"ny":88,"refTime":"2023-01-07T18:00:00:Z","depth":0,"parameterNumber":3,"parameterNumberName":"V-component_of_WINDS"},"data":[0.0,0.0,0.0,0.0,0.0,0.0,0.0,0.0,0.0,0.0,0.0,0.0,0.0,0.0,0.0,0.0,0.0,0.0,0.0,0.0,0.0,0.0,0.0,0.0,0.0,0.0,0.0,0.0,0.0,0.0,0.0,0.0,0.0,0.0,0.0,0.0,0.0,0.0,0.0,0.0,0.0,0.0,0.0,0.0,0.0,0.0,0.0,0.0,0.0,0.0,0.0,0.0,0.0,0.0,0.0,0.0,0.0,0.0,0.0,0.0,0.0,0.0,0.0,0.0,0.0,0.0,0.0,0.0,0.0,0.0,0.0,0.0,0.0,0.0,0.0,0.0,0.0,0.0,0.0,0.0,0.0,0.0,0.0,0.0,0.0,0.0,0.0,0.0,0.0,0.0,0.0,0.0,0.0,0.0,0.0,0.0,0.0,0.0,0.0,0.0,0.0,0.0,0.0,0.0,0.0,0.0,0.0,0.0,0.0,0.0,0.0,0.0,0.0,0.0,0.0,0.0,0.0,0.0,0.0,0.0,0.0,0.0,0.0,0.0,0.0,0.0,0.0,0.0,0.0,0.0,0.0,0.0,0.0,0.0,0.0,0.0,0.0,0.0,0.0,0.0,0.0,0.0,0.0,0.0,0.0,0.0,0.0,0.0,0.0,0.0,0.0,0.0,0.0,0.0,0.0,0.0,0.0,0.0,0.0,0.0,0.0,0.0,0.0,0.0,0.0,0.0,0.0,0.0,0.0,0.0,0.0,0.0,0.0,0.0,0.0,0.0,0.0,0.0,0.0,0.0,0.0,0.0,0.0,0.0,0.0,0.0,0.0,0.0,0.0,0.0,0.0,0.0,0.0,0.0,0.0,0.0,0.0,0.0,0.0,0.0,0.0,0.0,0.0,0.0,0.0,0.0,0.0,0.0,0.0,0.0,0.0,0.0,0.0,0.0,0.0,0.0,0.0,0.0,0.0,0.0,0.0,0.0,0.0,0.0,0.0,0.0,0.0,0.0,0.0,0.0,0.0,0.0,0.0,0.0,0.0,0.0,0.0,0.0,0.0,0.0,0.0,0.0,0.0,0.0,0.0,0.0,0.0,0.0,0.0,0.0,0.0,0.0,0.0,0.0,0.0,0.0,0.0,0.0,0.0,0.0,0.0,0.0,0.0,0.0,0.0,0.0,0.0,0.0,0.0,0.0,0.0,0.0,0.0,0.0,0.0,0.0,0.0,0.0,0.0,0.0,0.0,0.0,0.0,0.0,0.0,0.0,0.0,0.0,0.0,0.0,0.0,0.0,0.0,0.0,0.0,0.0,0.0,0.0,0.0,0.0,0.0,0.0,0.0,0.0,0.0,0.0,0.0,0.0,0.0,0.0,0.0,0.0,0.0,0.0,0.0,0.0,0.0,0.0,0.0,0.0,0.0,0.0,0.0,0.0,0.0,0.0,0.0,0.0,0.0,0.0,0.0,0.0,0.0,0.0,0.0,0.0,0.0,0.0,0.0,0.0,0.0,0.0,0.0,0.0,0.0,0.0,0.0,0.0,0.0,0.0,0.0,0.0,0.0,0.0,0.0,0.0,0.0,0.0,0.0,0.0,0.0,0.0,0.0,0.0,0.0,0.0,0.0,0.0,0.0,0.0,0.0,0.0,0.0,0.0,0.0,0.0,0.0,0.0,0.0,0.0,0.0,0.0,0.0,0.0,0.0,0.0,0.0,0.0,0.0,0.0,0.0,0.0,0.0,0.0,0.0,0.0,0.0,0.0,0.0,0.0,0.0,0.0,0.0,0.0,0.0,0.0,0.0,0.0,0.0,0.0,0.0,0.0,0.0,0.0,0.0,0.0,0.0,0.0,0.0,0.0,0.0,0.0,0.0,0.0,0.0,0.0,0.0,0.0,0.0,0.0,0.0,0.0,0.0,0.0,0.0,0.0,0.0,0.0,0.0,0.0,0.0,0.0,0.0,0.0,0.0,0.0,0.0,0.0,0.0,0.0,0.0,0.0,0.0,0.0,0.0,0.0,0.0,0.0,0.0,0.0,0.0,0.0,0.0,0.0,0.0,0.0,0.0,0.0,0.0,0.0,0.0,0.0,0.0,0.0,0.0,0.0,0.0,0.0,0.0,0.0,0.0,0.0,0.0,0.0,0.0,0.0,0.0,0.0,0.0,0.0,0.0,0.0,0.0,0.0,0.0,0.0,0.0,0.0,0.0,0.0,0.0,0.0,0.0,0.0,0.0,0.0,0.0,0.0,0.0,0.0,0.0,0.0,0.0,0.0,0.0,0.0,0.0,0.0,0.0,0.0,0.0,0.0,0.0,0.0,0.0,0.0,0.0,0.0,0.0,0.0,0.0,0.0,0.0,0.0,0.0,0.0,0.0,0.0,0.0,0.0,0.0,0.0,0.0,0.0,0.0,0.0,0.0,0.0,0.0,0.0,0.0,0.0,0.0,0.0,0.0,0.0,0.0,0.0,0.0,0.0,0.0,0.0,0.0,0.0,0.0,0.0,0.0,0.0,0.0,0.0,0.0,0.0,0.0,0.0,0.0,0.0,0.0,0.0,0.0,0.0,0.0,0.0,0.0,0.0,0.0,0.0,0.0,0.0,0.0,0.0,0.0,0.0,0.0,0.0,0.0,0.0,0.0,0.0,0.0,0.0,0.0,0.0,0.0,0.0,0.0,0.0,0.0,0.0,0.0,0.0,0.0,0.0,0.0,0.0,0.0,0.0,0.0,0.0,0.0,0.0,0.0,0.0,0.0,0.0,0.0,0.0,0.0,0.0,0.0,0.0,0.0,0.0,0.0,0.0,0.0,0.0,0.0,0.0,0.0,0.0,0.0,0.0,0.0,0.0,0.0,0.0,0.0,0.0,0.0,0.0,0.0,0.0,0.0,0.0,0.0,0.0,0.0,0.0,0.0,0.0,0.0,0.0,0.0,0.0,0.0,0.0,0.0,0.0,0.0,0.0,0.0,0.0,0.0,0.0,0.0,0.0,0.0,0.0,0.0,0.0,0.0,0.0,0.0,0.0,0.0,0.0,0.0,0.0,0.0,0.0,0.0,0.0,0.0,0.0,0.0,0.0,0.0,0.0,0.0,0.0,0.0,0.0,0.0,0.0,0.0,0.0,0.0,0.0,0.0,0.0,0.0,0.0,0.0,0.0,0.0,0.0,0.0,0.0,0.0,0.0,0.0,0.0,0.0,0.0,0.0,0.0,0.0,0.0,0.0,0.0,0.0,0.0,0.0,0.0,0.0,0.0,0.0,0.0,0.0,0.0,0.0,0.0,0.0,0.0,0.0,0.0,0.0,0.0,0.0,0.0,0.0,0.0,0.0,0.0,0.0,0.0,0.0,0.0,0.0,0.0,0.0,0.0,0.0,0.0,0.0,0.0,0.0,0.0,0.0,0.0,0.0,0.0,0.0,0.0,0.0,0.0,0.0,0.0,0.0,0.0,0.0,0.0,0.0,0.0,0.0,0.0,0.0,0.0,0.0,0.0,0.0,0.0,0.0,0.0,0.0,0.0,0.0,0.0,0.0,0.0,0.0,0.0,0.0,0.0,0.0,0.0,0.0,0.0,0.0,0.0,0.0,0.0,0.0,0.0,0.0,0.0,0.0,0.0,0.0,0.0,0.0,0.0,0.0,0.0,0.0,0.0,0.0,0.0,0.0,0.0,0.0,0.0,0.0,0.0,0.0,0.0,0.0,0.0,0.0,0.0,0.0,0.0,0.0,0.0,0.0,0.0,0.0,0.0,0.0,0.0,0.0,0.0,0.0,0.0,0.0,0.0,0.0,0.0,0.0,0.0,0.0,0.0,0.0,0.0,0.0,0.0,0.0,0.0,0.0,0.0,0.0,0.0,0.0,0.0,0.0,0.0,0.0,0.0,0.0,0.0,0.0,0.0,0.0,0.0,0.0,0.0,0.0,0.0,0.0,0.0,0.0,0.0,0.0,0.0,0.0,0.0,0.0,0.0,0.0,0.0,0.0,0.0,0.0,0.0,0.0,0.0,0.0,0.0,0.0,0.0,0.0,0.0,0.0,0.0,0.0,0.0,0.0,0.0,0.0,0.0,0.0,0.0,0.0,0.0,0.0,0.0,0.0,0.0,0.0,0.0,0.0,0.0,0.0,0.0,0.0,0.0,0.0,0.0,0.0,0.0,0.0,0.0,0.0,0.0,0.0,0.0,0.0,0.0,0.0,0.0,0.0,0.0,0.0,0.0,0.0,0.0,0.0,0.0,0.0,0.0,0.0,0.0,0.5669,0.0,0.0,0.0,0.8689,0.0,0.0,0.0,0.0,0.0,0.0,0.0,0.0,0.0,0.0,0.0,0.0,0.0,0.0,0.0,0.0,0.0,0.0,0.0,0.0,0.0,0.0,0.0,0.0,0.0,0.0,0.0,0.0,0.0,0.0,0.0,0.0,0.0,0.0,0.0,0.0,0.0,0.0,0.0,0.0,0.0,0.0,0.0,0.0,0.0,0.0,0.0,0.0,0.0,0.0,0.0,0.0,0.0,0.0,0.0,0.0,0.0,0.0,0.0,0.0,0.0,0.0,0.0,0.0,0.0,0.0,0.0,0.0,0.0,0.0,0.0,0.0,0.0,0.0,0.0,0.0,0.0,0.0,0.0,0.0,0.0,0.0,0.0,0.0,0.0,0.0,0.0,0.0,0.0,0.0,0.0,0.0,0.0,0.0,0.0,0.0,0.0,0.0,0.0,0.0,0.0,0.0,0.0,0.0,0.0,0.0,0.0,0.0,0.0,0.0,0.5699,0.7414,0.7112,0.7496,0.8671,0.0,0.0,0.0,0.0,0.0,0.0,0.0,0.0,0.0,0.0,0.0,0.0,0.0,0.0,0.0,0.0,0.0,0.0,0.0,0.0,0.0,0.0,0.0,0.0,0.0,0.0,0.0,0.0,0.0,0.0,0.0,0.0,0.0,0.0,0.0,0.0,0.0,0.0,0.0,0.0,0.0,0.0,0.0,0.0,0.0,0.0,0.0,0.0,0.0,0.0,0.0,0.0,0.0,0.0,0.0,0.0,0.0,0.0,0.0,0.0,0.0,0.0,0.0,0.0,0.0,0.0,0.0,0.0,0.0,0.0,0.0,0.0,0.0,0.0,0.0,0.0,0.0,0.0,0.0,0.0,0.0,0.0,0.0,0.0,0.0,0.0,0.0,0.0,0.0,0.0,0.0,0.0,0.0,0.0,0.0,0.0,0.0,0.0,0.0,0.0,0.0,0.0,0.0,0.0,0.0,0.0,0.0,0.0,0.0,0.0,0.0,0.0,0.7521,0.79,0.8652,0.0,0.0,0.0,0.0,0.0,0.0,0.0,0.0,0.0,0.0,0.0,0.0,0.0,0.0,0.0,0.0,0.0,0.0,0.0,0.0,0.0,0.0,0.0,0.0,0.0,0.0,0.0,0.0,0.0,0.0,0.0,0.0,0.0,0.0,0.0,0.0,0.0,0.0,0.0,0.0,0.0,0.0,0.0,0.0,0.0,0.0,0.0,0.0,0.0,0.0,0.0,0.0,0.0,0.0,0.0,0.0,0.0,0.0,0.0,0.0,0.0,0.0,0.0,0.0,0.0,0.0,0.0,0.0,0.0,0.0,0.0,0.0,0.0,0.0,0.0,0.0,0.0,0.0,0.0,0.0,0.0,0.0,0.0,0.0,0.0,0.0,0.0,0.0,0.0,0.0,0.0,0.0,0.0,0.0,0.0,0.0,0.0,0.0,0.0,0.0,0.0,0.0,0.0,0.0,0.0,0.0,0.0,0.0,0.0,0.0,0.6604,0.7484,0.7567,0.0,0.8727,0.0,0.0,0.0,0.0,0.0,0.0,0.0,0.0,0.0,0.0,0.0,0.0,0.0,0.0,0.0,0.0,0.0,0.0,0.0,0.0,0.0,0.0,0.0,0.0,0.0,0.0,0.0,0.0,0.0,0.0,0.0,0.0,0.0,0.0,0.0,0.0,0.0,0.0,0.0,0.0,0.0,0.0,0.0,0.0,0.0,0.0,0.0,0.0,0.0,0.0,0.0,0.0,0.0,0.0,0.0,0.0,0.0,0.0,0.0,0.0,0.0,0.0,0.0,0.0,0.0,0.0,0.0,0.0,0.0,0.0,0.0,0.0,0.0,0.0,0.0,0.0,0.0,0.0,0.0,0.0,0.0,0.0,0.0,0.0,0.0,0.0,0.0,0.0,0.0,0.0,0.0,0.0,0.0,0.0,0.0,0.0,0.0,0.0,0.0,0.0,0.0,0.0,0.0,0.0,0.0,0.0,0.0,0.0,0.0,0.0,0.746,0.8261,0.8809,0.9254,0.0,0.0,0.0,0.0,0.0,0.0,0.0,0.0,0.0,0.0,0.0,0.0,0.0,0.0,0.0,0.0,0.0,0.0,0.0,0.0,0.0,0.0,0.0,0.0,0.0,0.0,0.0,0.0,0.0,0.0,0.0,0.0,0.0,0.0,0.0,0.0,0.0,0.0,0.0,0.0,0.0,0.0,0.0,0.0,0.0,0.0,0.0,0.0,0.0,0.0,0.0,0.0,0.0,0.0,0.0,0.0,0.0,0.0,0.0,0.0,0.0,0.0,0.0,0.0,0.0,0.0,0.0,0.0,0.0,0.0,0.0,0.0,0.0,0.0,0.0,0.0,0.0,0.0,0.0,0.0,0.0,0.0,0.0,0.0,0.0,0.0,0.0,0.0,0.0,0.0,0.0,0.0,0.0,0.0,0.0,0.0,0.0,0.0,0.0,0.0,0.0,0.0,0.0,0.0,0.0,0.0,0.0,0.0,0.0,0.0,0.7603,0.7989,0.8816,0.9656,1.0128,1.0184,0.0,0.0,0.0,0.0,0.0,0.0,0.0,0.0,0.0,0.0,0.0,0.0,0.0,0.0,0.0,0.0,0.0,0.0,0.0,0.0,0.0,0.0,0.0,0.0,0.0,0.0,0.0,0.0,0.0,0.0,0.0,0.0,0.0,0.0,0.0,0.0,0.0,0.0,0.0,0.0,0.0,0.0,0.0,0.0,0.0,0.0,0.0,0.0,0.0,0.0,0.0,0.0,0.0,0.0,0.0,0.0,0.0,0.0,0.0,0.0,0.0,0.0,0.0,0.0,0.0,0.0,0.0,0.0,0.0,0.0,0.0,0.0,0.0,0.0,0.0,0.0,0.0,0.0,0.0,0.0,0.0,0.0,0.0,0.0,0.0,0.0,0.0,0.0,0.0,0.0,0.0,0.0,0.0,0.0,0.0,0.0,0.0,0.0,0.0,0.0,0.0,0.0,0.0,0.0,0.0,0.0,0.0,0.0,0.7655,0.7632,0.8031,0.8897,0.9692,1.0127,0.0,0.0,0.0,0.0,0.0,0.0,0.0,0.0,0.0,0.0,0.0,0.0,0.0,0.0,0.0,0.0,0.0,0.0,0.0,0.0,0.0,0.0,0.0,0.0,0.0,0.0,0.0,0.0,0.0,0.0,0.0,0.0,0.0,0.0,0.0,0.0,0.0,0.0,0.0,0.0,0.0,0.0,0.0,0.0,0.0,0.0,0.0,0.0,0.0,0.0,0.0,0.0,0.0,0.0,0.0,0.0,0.0,0.0,0.0,0.0,0.0,0.0,0.0,0.0,0.0,0.0,0.0,0.0,0.0,0.0,0.0,0.0,0.0,0.0,0.0,0.0,0.0,0.0,0.0,0.0,0.0,0.0,0.0,0.0,0.0,0.0,0.0,0.0,0.0,0.0,0.0,0.0,0.0,0.0,0.0,0.0,0.0,0.0,0.0,0.0,0.0,0.0,0.0,0.0,0.0,0.0,0.0,0.0,0.0,0.9226,0.9256,0.9428,0.9739,1.0022,1.0192,0.0,0.0,0.0,0.0,0.0,0.0,0.0,0.0,0.0,0.0,0.0,0.0,0.0,0.0,0.0,0.0,0.0,0.0,0.0,0.0,0.0,0.0,0.0,0.0,0.0,0.0,0.0,0.0,0.0,0.0,0.0,0.0,0.0,0.0,0.0,0.0,0.0,0.0,0.0,0.0,0.0,0.0,0.0,0.0,0.0,0.0,0.0,0.0,0.0,0.0,0.0,0.0,0.0,0.0,0.0,0.0,0.0,0.0,0.0,0.0,0.0,0.0,0.0,0.0,0.0,0.0,0.0,0.0,0.0,0.0,0.0,0.0,0.0,0.0,0.0,0.0,0.0,0.0,0.0,0.0,0.0,0.0,0.0,0.0,0.0,0.0,0.0,0.0,0.0,0.0,0.0,0.0,0.0,0.0,0.0,0.0,0.0,0.0,0.0,0.0,0.0,0.0,0.0,0.0,0.0,0.0,0.0,0.0,0.0,0.9731,1.0046,1.008,0.9844,1.007,1.0236,0.0,0.0,0.0,0.0,0.0,0.0,0.0,0.0,0.0,0.0,0.0,0.0,0.0,0.0,0.0,0.0,0.0,0.0,0.0,0.0,0.0,0.0,0.0,0.0,0.0,0.0,0.0,0.0,0.0,0.0,0.0,0.0,0.0,0.0,0.0,0.0,0.0,0.0,0.0,0.0,0.0,0.0,0.0,0.0,0.0,0.0,0.0,0.0,0.0,0.0,0.0,0.0,0.0,0.0,0.0,0.0,0.0,0.0,0.0,0.0,0.0,0.0,0.0,0.0,0.0,0.0,0.0,0.0,0.0,0.0,0.0,0.0,0.0,0.0,0.0,0.0,0.0,0.0,0.0,0.0,0.0,0.0,0.0,0.0,0.0,0.0,0.0,0.0,0.0,0.0,0.0,0.0,0.0,0.0,0.0,0.0,0.0,0.0,0.0,0.0,0.0,0.0,0.0,0.0,0.0,0.0,0.0,0.0,0.9687,0.9029,0.9816,0.9934,0.9092,0.9869,1.026,0.0,0.0,0.0,0.0,0.0,0.0,0.0,0.0,0.0,0.0,0.0,0.0,0.0,0.0,0.0,0.0,0.0,0.0,0.0,0.0,0.0,0.0,0.0,0.0,0.0,0.0,0.0,0.0,0.0,0.0,0.0,0.0,0.0,0.0,0.0,0.0,0.0,0.0,0.0,0.0,0.0,0.0,0.0,0.0,0.0,0.0,0.0,0.0,0.0,0.0,0.0,0.0,0.0,0.0,0.0,0.0,0.0,0.0,0.0,0.0,0.0,0.0,0.0,0.0,0.0,0.0,0.0,0.0,0.0,0.0,0.0,0.0,0.0,0.0,0.0,0.0,0.0,0.0,0.0,0.0,0.0,0.0,0.0,0.0,0.0,0.0,0.0,0.0,0.0,0.0,0.0,0.0,0.0,0.0,0.0,0.0,0.0,0.0,0.0,0.0,0.0,0.0,0.0,0.0,0.0,0.0,0.0,0.0,0.0,1.0718,1.0989,1.1024,1.0754,1.1013,1.0896,0.0,0.0,0.0,0.0,0.0,0.0,0.0,0.0,0.0,0.0,0.0,0.0,0.0,0.0,0.0,0.0,0.0,0.0,0.0,0.0,0.0,0.0,0.0,0.0,0.0,0.0,0.0,0.0,0.0,0.0,0.0,0.0,0.0,0.0,0.0,0.0,0.0,0.0,0.0,0.0,0.0,0.0,0.0,0.0,0.0,0.0,0.0,0.0,0.0,0.0,0.0,0.0,0.0,0.0,0.0,0.0,0.0,0.0,0.0,0.0,0.0,0.0,0.0,0.0,0.0,0.0,0.0,0.0,0.0,0.0,0.0,0.0,0.0,0.0,0.0,0.0,0.0,0.0,0.0,0.0,0.0,0.0,0.0,0.0,0.0,0.0,0.0,0.0,0.0,0.0,0.0,0.0,0.0,0.0,0.0,0.0,0.0,0.0,0.0,0.0,0.0,0.0,0.0,0.0,0.0,0.0,0.0,0.0,0.0,1.241,1.2216,1.2066,1.2025,1.1756,1.1366,1.0815,0.0,0.0,0.0,0.0,0.0,0.0,0.0,0.0,0.0,0.0,0.0,0.0,0.0,0.0,0.0,0.0,0.0,0.0,0.0,0.0,0.0,0.0,0.0,0.0,0.0,0.0,0.0,0.0,0.0,0.0,0.0,0.0,0.0,0.0,0.0,0.0,0.0,0.0,0.0,0.0,0.0,0.0,0.0,0.0,0.0,0.0,0.0,0.0,0.0,0.0,0.0,0.0,0.0,0.0,0.0,0.0,0.0,0.0,0.0,0.0,0.0,0.0,0.0,0.0,0.0,0.0,0.0,0.0,0.0,0.0,0.0,0.0,0.0,0.0,0.0,0.0,0.0,0.0,0.0,0.0,0.0,0.0,0.0,0.0,0.0,0.0,0.0,0.0,0.0,0.0,0.0,0.0,0.0,0.0,0.0,0.0,0.0,0.0,0.0,0.0,0.0,0.0,0.0,0.0,0.0,0.0,0.0,0.0,1.4117,1.3476,1.3066,1.2964,1.2185,1.1697,0.0,0.0,0.0,0.0,0.0,0.0,0.0,0.0,0.0,0.0,0.0,0.0,0.0,0.0,0.0,0.0,0.0,0.0,0.0,0.0,0.0,0.0,0.0,0.0,0.0,0.0,0.0,0.0,0.0,0.0,0.0,0.0,0.0,0.0,0.0,0.0,0.0,0.0,0.0,0.0,0.0,0.0,0.0,0.0,0.0,0.0,0.0,0.0,0.0,0.0,0.0,0.0,0.0,0.0,0.0,0.0,0.0,0.0,0.0,0.0,0.0,0.0,0.0,0.0,0.0,0.0,0.0,0.0,0.0,0.0,0.0,0.0,0.0,0.0,0.0,0.0,0.0,0.0,0.0,0.0,0.0,0.0,0.0,0.0,0.0,0.0,0.0,0.0,0.0,0.0,0.0,0.0,0.0,0.0,0.0,0.0,0.0,0.0,0.0,0.0,0.0,0.0,0.0,0.0,0.0,0.0,0.0,0.0,0.0,1.4957,1.5436,1.5048,1.3827,1.3574,1.2851,0.0,0.0,0.0,0.0,0.0,0.0,0.0,0.0,0.0,0.0,0.0,0.0,0.0,0.0,0.0,0.0,0.0,0.0,0.0,0.0,0.0,0.0,0.0,0.0,0.0,0.0,0.0,0.0,0.0,0.0,0.0,0.0,0.0,0.0,0.0,0.0,0.0,0.0,0.0,0.0,0.0,0.0,0.0,0.0,0.0,0.0,0.0,0.0,0.0,0.0,0.0,0.0,0.0,0.0,0.0,0.0,0.0,0.0,0.0,0.0,0.0,0.0,0.0,0.0,0.0,0.0,0.0,0.0,0.0,0.0,0.0,0.0,0.0,0.0,0.0,0.0,0.0,0.0,0.0,0.0,0.0,0.0,0.0,0.0,0.0,0.0,0.0,0.0,0.0,0.0,0.0,0.0,0.0,0.0,0.0,0.0,0.0,0.0,0.0,0.0,0.0,0.0,0.0,0.0,0.0,0.0,0.0,0.0,1.4188,1.5875,1.6723,1.6509,1.5174,1.4794,1.3805,0.0,0.0,0.0,0.0,0.0,0.0,0.0,0.0,0.0,0.0,0.0,0.0,0.0,0.0,0.0,0.0,0.0,0.0,0.0,0.0,0.0,0.0,0.0,0.0,0.0,0.0,0.0,0.0,0.0,0.0,0.0,0.0,0.0,0.0,0.0,0.0,0.0,0.0,0.0,0.0,0.0,0.0,0.0,0.0,0.0,0.0,0.0,0.0,0.0,0.0,0.0,0.0,0.0,0.0,0.0,0.0,0.0,0.0,0.0,0.0,0.0,0.0,0.0,0.0,0.0,0.0,0.0,0.0,0.0,0.0,0.0,0.0,0.0,0.0,0.0,0.0,0.0,0.0,0.0,0.0,0.0,0.0,0.0,0.0,0.0,0.0,0.0,0.0,0.0,0.0,0.0,0.0,0.0,0.0,0.0,0.0,0.0,0.0,0.0,0.0,0.0,0.0,0.0,0.0,0.0,0.0,0.0,0.0,1.5026,1.6703,1.7581,1.7651,1.6857,1.5944,1.4605,0.0,0.0,0.0,0.0,0.0,0.0,0.0,0.0,0.0,0.0,0.0,0.0,0.0,0.0,0.0,0.0,0.0,0.0,0.0,0.0,0.0,0.0,0.0,0.0,0.0,0.0,0.0,0.0,0.0,0.0,0.0,0.0,0.0,0.0,0.0,0.0,0.0,0.0,0.0,0.0,0.0,0.0,0.0,0.0,0.0,0.0,0.0,0.0,0.0,0.0,0.0,0.0,0.0,0.0,0.0,0.0,0.0,0.0,0.0,0.0,0.0,0.0,0.0,0.0,0.0,0.0,0.0,0.0,0.0,0.0,0.0,0.0,0.0,0.0,0.0,0.0,0.0,0.0,0.0,0.0,0.0,0.0,0.0,0.0,0.0,0.0,0.0,0.0,0.0,0.0,0.0,0.0,0.0,0.0,0.0,0.0,0.0,0.0,0.0,0.0,0.0,0.0,0.0,0.0,0.0,0.0,0.0,0.0,1.5891,1.7579,1.8421,1.8769,1.857,1.7115,1.5206,0.0,0.0,0.0,0.0,0.0,0.0,0.0,0.0,0.0,0.0,0.0,0.0,0.0,0.0,0.0,0.0,0.0,0.0,0.0,0.0,0.0,0.0,0.0,0.0,0.0,0.0,0.0,0.0,0.0,0.0,0.0,0.0,0.0,0.0,0.0,0.0,0.0,0.0,0.0,0.0,0.0,0.0,0.0,0.0,0.0,0.0,0.0,0.0,1.0582,0.0,0.0,0.0,0.0,0.0,0.0,0.0,0.0,0.0,0.0,0.0,0.0,0.0,0.0,0.0,0.0,0.0,0.0,0.0,0.0,0.0,0.0,0.0,0.0,0.0,0.0,0.0,0.0,0.0,0.0,0.0,0.0,0.0,0.0,0.0,0.0,0.0,0.0,0.0,0.0,0.0,0.0,0.0,0.0,0.0,0.0,0.0,0.0,0.0,0.0,0.0,0.0,0.0,0.0,0.0,0.0,0.0,0.0,0.0,1.6971,1.783,1.906,1.9512,1.907,1.7849,1.6164,0.0,0.0,0.0,0.0,0.0,0.0,0.0,0.0,0.0,0.0,0.0,0.0,0.0,0.0,0.0,0.0,0.0,0.0,0.0,0.0,0.0,0.0,0.0,0.0,0.0,0.0,0.0,0.0,0.0,0.0,0.0,0.0,0.0,0.0,0.0,0.0,0.0,0.0,0.0,0.0,0.0,0.0,0.0,0.0,0.0,0.0,0.0,0.0,0.0,0.0,0.0,0.0,0.0,0.0,0.0,0.0,0.0,0.0,0.0,0.0,0.0,0.0,0.0,0.0,0.0,0.0,0.0,0.0,0.0,0.0,0.0,0.0,0.0,0.0,0.0,0.0,0.0,0.0,0.0,0.0,0.0,0.0,0.0,0.0,0.0,0.0,0.0,0.0,0.0,0.0,0.0,0.0,0.0,0.0,0.0,0.0,0.0,0.0,0.0,0.0,0.0,0.0,0.0,0.0,0.0,0.0,0.0,1.6212,1.7985,1.8241,1.9648,2.0092,1.9496,1.8393,1.7161,1.574,0.0,0.0,0.0,0.0,0.0,0.0,0.0,0.0,0.0,0.0,0.0,0.0,0.0,0.0,0.0,0.0,0.0,0.0,0.0,0.0,0.0,0.0,0.0,0.0,0.0,0.0,0.0,0.0,0.0,0.0,0.0,0.0,0.0,0.0,0.0,0.0,0.0,0.0,0.849,0.964,0.0,0.0,0.0,0.0,0.0,0.0,0.0,0.0,1.1227,0.0,0.0,0.0,0.0,0.0,0.0,0.0,0.0,0.0,0.0,0.0,0.0,0.0,0.0,0.0,0.0,0.0,0.0,0.0,0.0,0.0,0.0,0.0,0.0,0.0,0.0,0.0,0.0,0.0,0.0,0.0,0.0,0.0,0.0,0.0,0.0,0.0,0.0,0.0,0.0,0.0,0.0,0.0,0.0,0.0,0.0,0.0,0.0,0.0,0.0,0.0,0.0,0.0,0.0,0.0,0.0,1.3802,1.6447,1.8515,1.9938,2.0247,2.0695,2.1182,1.9015,1.7697,1.7373,0.0,0.0,0.0,0.0,0.0,0.0,0.0,0.0,0.0,0.0,0.0,0.0,0.0,0.0,0.0,0.0,0.0,0.0,0.0,0.0,0.0,0.0,0.0,0.0,0.0,0.0,0.0,0.0,0.0,0.0,0.0,0.0,0.0,0.0,0.0,0.0,0.0,0.0,0.0,1.1029,1.1904,0.0,0.0,0.0,0.0,0.0,0.0,0.0,0.0,1.1344,0.0,0.0,0.0,0.0,0.0,0.0,0.0,0.0,0.0,0.0,0.0,0.0,0.0,0.0,0.0,0.0,0.0,0.0,0.0,0.0,0.0,0.0,0.0,0.0,0.0,0.0,0.0,0.0,0.0,0.0,0.0,0.0,0.0,0.0,0.0,0.0,0.0,0.0,0.0,0.0,0.0,0.0,0.0,0.0,0.0,0.0,0.0,0.0,0.0,0.0,0.0,0.0,0.0,0.0,0.0,1.4079,1.652,1.8642,2.0321,2.0379,2.0811,2.1611,1.9168,1.7611,0.0,0.0,0.0,0.0,0.0,0.0,0.0,0.0,0.0,0.0,0.0,0.0,0.0,0.0,0.0,0.0,0.0,0.0,0.0,0.0,0.0,0.0,0.0,0.0,0.0,0.0,0.0,0.0,0.0,0.0,0.0,0.0,0.0,0.0,0.0,0.0,0.0,0.0,0.0,0.0,1.1686,1.2365,1.314,0.0,0.0,0.0,0.0,0.0,0.0,1.3069,1.2721,0.0,0.0,0.0,0.0,0.0,0.0,0.0,0.0,0.0,0.0,0.0,0.0,0.0,0.0,0.0,0.0,0.0,0.0,0.0,0.0,0.0,0.0,0.0,0.0,0.0,0.0,0.0,0.0,0.0,0.0,0.0,0.0,0.0,0.0,0.0,0.0,0.0,0.0,0.0,0.0,0.0,0.0,0.0,0.0,0.0,0.0,0.0,0.0,0.0,0.0,0.0,0.0,0.0,0.0,0.0,1.4356,1.6619,1.8819,2.0789,2.0547,2.0872,2.1826,1.9249,1.7489,0.0,0.0,0.0,0.0,0.0,0.0,0.0,0.0,0.0,0.0,0.0,0.0,0.0,0.0,0.0,0.0,0.0,0.0,0.0,0.0,0.0,0.0,0.0,0.0,0.0,0.0,0.0,0.0,0.0,0.0,0.0,0.0,0.0,0.0,0.0,0.0,0.0,0.0,0.0,0.0,0.0,1.2861,1.4036,1.446,0.0,0.0,0.0,0.0,1.4526,1.4417,0.0,0.0,0.0,0.0,0.0,0.0,0.0,0.0,0.0,0.0,0.0,0.0,0.0,0.0,0.0,0.0,0.0,0.0,0.0,0.0,0.0,0.0,0.0,0.0,0.0,0.0,0.0,0.0,0.0,0.0,0.0,0.0,0.0,0.0,0.0,0.0,0.0,0.0,0.0,0.0,0.0,0.0,0.0,0.0,0.0,0.0,0.0,0.0,0.0,0.0,0.0,0.0,0.0,0.0,0.0,0.0,1.5152,1.6905,1.936,2.2358,2.1096,2.1066,2.257,1.9458,1.7706,0.0,0.0,0.0,0.0,0.0,0.0,0.0,0.0,0.0,0.0,0.0,0.0,0.0,0.0,0.0,0.0,0.0,0.0,0.0,0.0,0.0,0.0,0.0,0.0,0.0,0.0,0.0,0.0,0.0,0.0,0.0,0.0,0.0,0.0,0.0,0.0,0.0,0.0,0.0,0.0,0.0,1.4003,1.4159,1.5332,1.5945,0.0,0.0,1.6022,1.5286,1.5176,0.0,0.0,0.0,0.0,0.0,0.0,0.0,0.0,0.0,0.0,0.0,0.0,0.0,0.0,0.0,0.0,0.0,0.0,0.0,0.0,0.0,0.0,0.0,0.0,0.0,0.0,0.0,0.0,0.0,0.0,0.0,0.0,0.0,0.0,0.0,0.0,0.0,0.0,0.0,0.0,0.0,0.0,0.0,0.0,0.0,0.0,0.0,0.0,0.0,0.0,0.0,0.0,0.0,0.0,0.0,1.3621,1.5291,1.6908,1.941,2.2667,2.1589,2.1498,2.2713,1.9873,1.7937,0.0,0.0,0.0,0.0,0.0,0.0,0.0,0.0,0.0,0.0,0.0,0.0,0.0,0.0,0.0,0.0,0.0,0.0,0.0,0.0,0.0,0.0,0.0,0.0,0.0,0.0,0.0,0.0,0.0,0.0,0.0,0.0,0.0,0.0,0.0,0.0,0.0,0.0,0.0,0.0,0.0,0.0,1.5884,1.6624,0.0,0.0,0.0,1.7174,1.663,0.0,0.0,0.0,0.0,0.0,0.0,0.0,0.0,0.0,0.0,0.0,0.0,0.0,0.0,0.0,0.0,0.0,0.0,0.0,0.0,0.0,0.0,0.0,0.0,0.0,0.0,0.0,0.0,0.0,0.0,0.0,0.0,0.0,0.0,0.0,0.0,0.0,0.0,0.0,0.0,0.0,0.0,0.0,0.0,0.0,0.0,0.0,0.0,0.0,0.0,0.0,0.0,0.0,0.0,0.0,0.0,0.0,1.5277,1.7083,1.9553,2.2615,2.2067,2.2015,2.2599,2.0332,0.0,0.0,0.0,0.0,0.0,0.0,0.0,0.0,0.0,0.0,0.0,0.0,0.0,0.0,0.0,0.0,0.0,0.0,0.0,0.0,0.0,0.0,0.0,0.0,0.0,0.0,0.0,0.9403,0.0,0.0,0.0,0.0,0.0,0.0,0.0,0.0,0.0,0.0,0.0,0.0,0.0,0.0,1.5421,1.7254,1.7635,1.8187,0.0,0.0,1.829,1.7831,1.7076,1.6334,0.0,0.0,0.0,0.0,0.0,0.0,0.0,0.0,0.0,0.0,0.0,0.0,0.0,0.0,0.0,0.0,0.0,0.0,0.0,0.0,0.0,0.0,0.0,0.0,0.0,0.0,0.0,0.0,0.0,0.0,0.0,0.0,0.0,0.0,0.0,0.0,0.0,0.0,0.0,0.0,0.0,0.0,0.0,0.0,0.0,0.0,0.0,0.0,0.0,0.0,0.0,0.0,0.0,0.0,0.0,1.522,1.7645,2.0142,2.2595,2.2576,2.2558,2.2566,2.0855,1.9182,0.0,0.0,0.0,0.0,0.0,0.0,0.0,0.0,0.0,0.0,0.0,0.0,0.0,0.0,0.0,0.0,0.0,0.0,0.0,0.0,0.0,0.0,0.0,0.0,0.0,0.0,0.0,0.0,0.0,0.0,0.0,0.0,0.0,0.0,0.0,0.0,0.0,0.0,0.0,0.0,0.0,1.6542,1.7387,1.8038,1.872,0.0,0.0,1.9257,1.8542,1.8377,1.7881,1.6553,0.0,0.0,0.0,0.0,0.0,0.0,0.0,0.0,0.0,0.0,0.0,0.0,0.0,0.0,0.0,0.0,0.0,0.0,0.0,0.0,0.0,0.0,0.0,0.0,0.0,0.0,0.0,0.0,0.0,0.0,0.0,0.0,0.0,0.0,0.0,0.0,0.0,0.0,0.0,0.0,0.0,0.0,0.0,0.0,0.0,0.0,0.0,0.0,0.0,0.0,0.0,0.0,0.0,1.3793,1.5965,1.7895,2.0112,2.2538,2.3046,2.329,2.3264,2.1627,2.0215,0.0,0.0,0.0,0.0,0.0,0.0,0.0,0.0,0.0,0.0,0.0,0.0,0.0,0.0,0.0,0.0,0.0,0.0,0.0,0.0,0.0,0.0,0.0,0.0,0.0,0.0,0.0,0.0,0.9557,0.96,0.915,0.0,0.0,0.0,0.0,0.0,0.0,0.0,0.0,0.0,0.0,1.7486,1.8621,1.9396,0.0,0.0,2.0257,1.9694,1.956,1.9028,1.8504,1.8114,1.7514,0.0,0.0,0.0,0.0,0.0,0.0,0.0,0.0,0.0,0.0,0.0,0.0,0.0,0.0,0.0,0.0,0.0,0.0,0.0,0.0,0.0,0.0,0.0,0.0,0.0,0.0,0.0,0.0,0.0,0.0,0.0,0.0,0.0,0.0,0.0,0.0,0.0,0.0,0.0,0.0,0.0,0.0,0.0,0.0,0.0,0.0,0.0,0.0,0.0,0.0,0.0,0.0,1.4437,1.6435,1.848,2.0534,2.2521,2.3569,2.3954,2.3676,2.2324,2.1091,0.0,0.0,0.0,0.0,0.0,0.0,0.0,0.0,0.0,0.0,0.0,0.0,0.0,0.0,0.0,0.0,0.0,0.0,0.0,0.0,0.0,0.0,0.0,0.0,0.0,0.0,0.0,0.0,0.9537,0.9595,0.9048,0.0,0.0,0.0,0.0,0.0,0.0,0.0,0.0,0.0,0.0,1.8282,1.9608,2.0303,2.0922,2.1547,2.0949,2.0346,2.0211,1.9686,1.9225,1.9002,0.0,0.0,0.0,0.0,0.0,0.0,0.0,0.0,0.0,0.0,0.0,0.0,0.0,0.0,0.0,0.0,0.0,0.0,0.0,0.0,0.0,0.0,0.0,0.0,0.0,0.0,0.0,0.0,0.0,0.0,0.433,0.0,0.0,0.0,0.0,0.0,0.0,0.0,0.0,0.0,0.0,0.0,0.0,0.0,0.0,0.0,0.0,0.0,0.0,0.0,0.0,0.0,0.0,1.5546,1.6452,1.9574,2.1629,2.2526,2.4112,2.4567,2.3727,2.2912,2.1705,2.0031,0.0,0.0,0.0,0.0,0.0,0.0,0.0,0.0,0.0,0.0,0.0,0.0,0.0,0.0,0.0,0.0,0.0,0.0,0.0,0.0,0.0,0.0,0.0,0.0,0.0,0.0,0.9292,0.9056,0.8931,0.0,0.0,0.0,0.0,0.0,0.0,0.0,0.0,0.0,0.0,1.8054,1.89,2.0027,2.0502,2.0854,2.1274,2.157,2.1383,2.037,2.0428,2.0195,0.0,0.0,0.0,0.0,0.0,0.0,0.0,0.0,0.0,0.0,0.0,0.0,0.0,0.0,0.0,0.0,0.0,0.0,0.0,0.0,0.0,0.0,0.0,0.0,0.0,0.0,0.0,0.7846,0.8548,0.0,0.0,0.0,0.0,0.0,0.0,0.0,0.0,0.0,0.0,0.0,1.4879,1.5527,0.0,0.0,0.0,0.0,0.0,0.0,0.0,0.0,0.0,0.0,0.0,0.0,1.6107,1.8051,2.0148,2.1906,2.3278,2.4416,2.4871,2.4567,2.3733,2.2267,2.0064,0.0,0.0,0.0,0.0,0.0,0.0,0.0,0.0,0.0,0.0,0.0,0.0,0.0,0.0,0.0,0.0,0.0,0.0,0.0,0.0,0.0,0.0,0.0,0.0,0.0,1.0167,0.0,0.0,0.0,0.0,0.0,0.0,0.0,0.0,0.0,0.0,0.0,1.6635,1.7403,1.8733,1.9848,2.0451,2.0855,2.1233,0.0,0.0,0.0,0.0,0.0,0.0,0.0,0.0,0.0,0.0,0.0,0.0,0.0,0.0,1.7254,1.6842,1.6683,1.6504,1.6209,0.0,0.0,0.0,0.0,0.0,0.0,0.0,0.0,0.0,0.0,0.0,0.0,0.0,0.0,0.0,0.0,1.043,0.0,0.0,0.0,0.0,0.0,0.0,0.0,0.0,1.4459,1.5915,1.7534,1.8456,1.8567,0.0,1.7146,1.5864,0.0,0.0,0.0,0.0,0.0,0.0,0.0,0.0,1.7072,1.9244,2.0858,2.2305,2.3651,2.4567,2.4984,2.4984,2.415,2.2672,2.0486,1.9097,1.7601,0.0,0.0,0.0,0.0,0.0,0.0,0.0,0.0,0.0,0.0,0.0,0.0,0.0,0.0,0.0,0.0,0.0,0.0,0.0,0.0,0.0,0.0,0.0,1.0615,0.0,0.0,0.0,0.0,0.0,0.0,0.0,0.0,0.0,1.4545,1.6237,1.7739,1.8514,1.9632,2.0497,2.0862,0.0,0.0,0.0,0.0,0.0,0.0,0.0,2.0481,2.0243,2.0319,2.0351,2.0241,1.989,1.9722,1.9989,0.0,0.0,1.8248,1.7873,1.765,1.7348,1.7402,1.7537,1.77,1.796,1.8374,0.0,0.0,0.0,0.0,0.0,0.0,0.0,0.0,1.4327,1.3255,0.0,1.1932,0.0,0.0,0.0,0.0,0.0,0.0,0.0,0.0,1.8368,1.9257,1.9391,2.015,2.0551,2.0525,1.9623,1.9195,1.8964,1.4251,0.0,0.0,0.0,0.0,0.0,0.0,1.8474,2.0092,2.1715,2.2912,2.3746,2.4567,2.4984,2.4965,2.4169,2.295,2.1358,2.048,1.9249,1.7653,1.5957,0.0,0.0,0.0,0.0,0.0,0.0,0.0,0.0,0.0,0.0,0.0,0.0,0.0,0.0,0.0,0.0,0.0,0.0,0.0,0.0,1.0802,0.0,0.0,0.0,0.0,0.0,0.0,0.0,0.0,0.0,0.0,1.7461,1.7535,1.8286,2.0359,0.0,0.0,0.0,0.0,2.1525,2.0909,2.1071,2.1007,2.0328,2.0779,2.0974,2.0294,0.0,0.0,2.0354,2.0023,2.0074,2.0741,2.104,2.0798,1.947,1.8854,1.8532,1.8716,1.8778,1.8966,1.9594,1.9873,2.0281,1.5642,0.0,0.0,0.0,0.0,1.3997,1.4753,1.5958,1.5518,1.5553,1.5868,1.5731,0.0,0.0,0.0,0.0,0.0,0.0,1.7301,1.8423,1.9578,2.0781,2.1967,2.1603,2.1742,2.2291,2.0842,2.0437,2.0938,1.8904,1.7227,1.5999,0.0,0.0,0.0,0.0,2.0221,2.1875,2.2871,2.3765,2.4624,2.4871,2.4984,2.4984,2.4169,2.3461,2.2988,2.1604,2.0367,1.9306,1.7051,0.0,0.0,0.0,0.0,0.0,0.0,0.0,0.0,0.0,0.0,0.0,0.0,0.0,0.0,0.0,0.0,0.0,0.0,0.0,1.214,1.2907,1.3417,0.0,0.0,0.0,0.0,0.0,0.0,0.0,0.0,0.0,1.9485,1.9709,1.9866,0.0,0.0,2.1018,2.1133,2.0974,2.0877,2.1119,0.0,0.0,0.0,2.0172,2.0085,1.9871,2.0535,2.1264,2.1889,2.1913,2.1913,2.211,2.2027,2.1747,2.1432,2.1387,2.1321,2.1226,2.1155,2.1126,2.112,2.1197,2.1367,1.7807,1.7267,1.5572,1.5418,1.6319,1.6708,1.7446,1.841,1.8477,1.8465,1.8399,1.8845,1.8495,1.758,1.791,0.0,0.0,0.0,1.9794,2.068,2.1612,2.2617,2.3569,2.3435,2.361,2.4045,2.2717,2.2291,2.2763,2.1518,2.0548,1.9789,0.0,0.0,1.9558,2.028,2.1436,2.3056,2.3498,2.4093,2.4898,2.4917,2.495,2.4984,2.4491,2.4226,2.4207,2.2893,2.1789,2.089,1.8746,1.697,0.0,0.0,0.0,0.0,0.0,0.0,0.0,0.0,0.0,0.0,0.0,1.0784,0.9949,0.0,0.0,0.0,1.3036,1.3638,1.3863,1.4366,0.0,0.0,0.0,0.0,0.0,0.0,0.0,1.716,1.8438,1.9629,2.0432,2.0838,2.0944,2.0674,2.1048,2.1293,2.1166,0.0,2.0926,2.0861,2.0833,2.0696,2.0444,2.0564,2.0691,2.0709,2.1179,2.1691,2.2185,2.2296,2.2281,2.2293,2.2351,2.2393,2.2393,2.2758,2.2805,2.2163,2.1998,2.1974,2.1896,2.1994,2.2204,1.9779,2.0551,1.883,1.8542,1.9301,2.02,2.1107,2.2006,2.2175,2.1481,2.025,2.1173,2.0308,1.8258,1.8913,0.0,2.0637,2.1452,2.2251,2.3145,2.4076,2.4492,2.4528,2.5252,2.5641,2.5681,2.4803,2.441,2.4308,2.2787,2.233,2.2942,2.1465,2.063,2.0542,2.1163,2.2273,2.3765,2.3739,2.404,2.4768,2.4794,2.4875,2.4971,2.5003,2.4984,2.4965,2.4163,2.3245,2.2318,2.067,1.8977,1.7256,0.0,0.0,0.0,0.0,0.0,0.0,0.0,0.0,0.0,0.0,0.0,0.0,0.0,0.0,0.0,1.4896,0.0,1.5632,1.567,0.0,0.0,0.0,1.6949,1.7526,1.8232,1.8662,1.8669,0.0,0.0,2.0675,0.0,2.1589,2.1557,2.1635,2.1559,2.1246,2.1532,2.1438,2.0537,2.1101,2.1463,2.0948,2.1466,2.1969,2.2099,2.2213,2.2143,2.2009,2.1959,2.1879,2.1979,2.2373,2.2763,2.2778,2.3224,2.3236,2.2119,2.1924,2.1974,2.2295,2.2652,2.2996,2.1125,2.1457,2.1652,2.0841,1.9501,2.0326,2.083,2.1172,2.1838,2.1967,2.1693,2.1985,2.1911,2.1617,2.1909,2.2153,2.2427,2.3251,2.3794,2.4045,2.4891,2.5332,2.5369,2.4932,2.5063,2.5611,2.4769,2.4662,2.5251,2.4823,2.4361,2.389,2.3499,2.2974,2.2318,2.2365,2.2882,2.3872,2.3708,2.399,2.4693,2.4791,2.4808,2.4849,2.495,2.4984,2.4984,2.4116,2.3434,2.3023,2.1351,1.9874,1.8731,1.7042,0.0,0.0,0.0,0.0,0.0,0.0,0.0,0.0,0.0,1.2543,1.2163,0.0,1.4934,0.0,1.7486,1.8777,1.927,1.9295,0.0,0.0,1.9517,1.9342,1.9111,1.9676,2.0108,2.0094,2.0885,2.1369,2.1234,2.135,2.1433,2.1371,2.1528,2.1481,2.1135,2.1434,2.1651,2.1414,2.1526,2.1639,2.1554,2.154,2.1929,2.2511,2.2489,2.2577,2.3071,2.3146,2.3146,2.3146,2.3251,2.337,2.3385,2.352,2.3505,2.3206,2.3146,2.3167,2.3266,2.3713,2.4148,2.207,2.2246,2.2365,2.1691,2.0617,2.1821,2.2372,2.245,2.2944,2.3232,2.338,2.3549,2.3753,2.3906,2.4068,2.4119,2.4199,2.4671,2.4869,2.4912,2.537,2.5622,2.5644,2.519,2.5237,2.5685,2.5161,2.5153,2.5582,2.5564,2.5275,2.4795,2.4776,2.4331,2.3477,2.297,2.2925,2.3346,2.3493,2.3933,2.4697,2.4742,2.4599,2.423,2.4355,2.4218,2.3824,2.3319,2.2968,2.2738,2.1755,2.0921,2.0311,1.8663,1.7336,0.0,0.0,0.0,0.0,0.0,0.0,0.0,0.0,0.0,0.0,0.0,1.7099,1.7938,1.8976,1.9739,2.0022,2.0073,2.019,2.0515,2.0475,2.0461,2.0477,2.0809,2.1024,2.1041,2.1341,2.1509,2.1417,2.1371,2.1454,2.1746,2.1956,2.1859,2.1348,2.1842,2.2256,2.1719,2.1983,2.2455,2.2835,2.2791,2.2956,2.368,2.3555,2.3437,2.394,2.3992,2.3866,2.3619,2.3545,2.3664,2.3933,2.3985,2.4082,2.4418,2.4492,2.4388,2.4111,2.456,2.5038,2.2809,2.293,2.2255,2.2034,2.2195,2.373,2.433,2.4264,2.4407,2.4618,2.4806,2.5163,2.5297,2.5292,2.5437,2.5544,2.5599,2.5602,2.5609,2.5607,2.5611,2.5598,2.5602,2.5666,2.5689,2.5701,2.5699,2.5673,2.5601,2.5601,2.5509,2.5341,2.5318,2.4892,2.4053,2.3144,2.2705,2.2659,2.3201,2.3885,2.461,2.4441,2.4043,2.3403,2.3465,2.3157,2.2385,2.2436,2.2414,2.2215,2.2171,2.2039,2.1787,2.0352,1.9441,0.0,1.7902,0.0,0.0,0.0,0.0,0.0,0.0,0.0,0.0,1.8398,1.959,2.0083,1.9977,1.9847,1.9818,1.9848,2.0125,2.0703,2.0755,2.0999,2.1539,2.1604,2.1589,2.1573,2.1464,2.1402,2.1386,2.1405,2.1714,2.2264,2.2734,2.2625,2.1895,2.2667,2.3026,2.1839,2.25,2.3411,2.4164,2.433,2.4446,2.5065,2.4722,2.4404,2.461,2.4587,2.4341,2.3896,2.3807,2.3948,2.4482,2.4586,2.481,2.5359,2.5514,2.5395,2.4963,2.5262,2.5704,2.3501,2.3521,2.3515,2.356,2.3711,2.408,2.3925,2.3459,2.4124,2.4553,2.4806,2.5154,2.5303,2.5314,2.5441,2.5551,2.5598,2.5598,2.5598,2.5604,2.5611,2.5597,2.5599,2.5668,2.5691,2.5691,2.5703,2.5656,2.5601,2.5601,2.5198,2.447,2.4447,2.4014,2.3164,0.0,0.0,0.0,2.3141,2.3588,2.372,2.2985,2.2576,2.2537,2.2602,0.0,2.2489,2.2846,2.297,2.2849,2.3216,0.0,0.0,0.0,0.0,0.0,0.0,0.0,0.0,0.0,0.0,0.0,2.0207,2.025,1.886,1.9752,2.0658,2.12,2.1297,2.1515,2.2014,2.1984,2.2034,2.226,2.2165,2.2002,2.1671,2.1604,2.1557,2.1449,2.1433,2.1386,2.1389,2.1811,2.2232,2.2491,2.3414,2.3756,2.2937,2.3462,2.358,2.2823,2.3402,2.4229,2.4926,2.4949,2.4945,2.5158,2.5066,2.4916,2.5059,2.5082,2.5059,2.4823,2.4867,2.4867,2.5044,2.5073,2.5165,2.5396,2.5794,2.5947,2.5514,2.5944,2.6408,2.3576,0.0,2.3774,2.3917,0.0,2.4141,2.3979,2.3721,2.42,2.4537,2.4799,2.5055,2.5215,2.5301,2.5437,2.5548,2.5612,2.5595,2.5601,2.561,2.5611,2.5597,2.56,2.5667,2.5691,2.5707,2.5701,2.5675,2.5604,2.5601,2.5334,2.4853,2.4834,2.4617,2.4181,2.4,2.3638,2.3057,2.3359,2.3694,2.4054,2.3581,2.3146,2.2776,0.0,0.0,0.0,0.0,0.0,0.0,0.0,0.0,0.0,0.0,0.0,2.1406,2.1313,2.1105,2.0765,2.1721,2.2335,2.235,2.301,2.2678,2.0853,2.1495,2.1897,2.1663,2.1694,2.1797,2.2017,2.1987,2.1971,2.2003,2.1955,2.1777,2.1499,2.145,2.1434,2.1371,2.1372,2.1454,2.1811,2.2151,2.2701,2.3333,2.4013,2.4319,2.3878,2.3974,2.4038,2.3852,2.452,2.5295,2.5812,2.5634,2.5583,2.5902,2.5706,2.5516,2.5649,2.5649,2.5497,2.5194,2.5106,2.5179,2.5526,2.56,2.5752,2.6194,2.6494,2.6642,2.6441,2.6708,2.7031,2.3435,2.3617,2.3678,2.3816,2.4026,2.4074,2.4134,2.421,0.0,0.0,0.0,2.4974,2.5165,2.5324,2.5464,2.5548,2.5602,2.5595,2.5601,2.5607,2.5609,2.5598,2.5603,2.5666,2.5689,2.5699,2.5699,2.5658,2.561,2.5604,2.557,2.5507,2.5511,2.5476,2.5432,2.5279,2.4784,2.3961,2.3634,2.3825,2.446,2.4265,2.3785,2.3039,2.3176,2.2873,2.208,2.2076,2.2405,2.3009,2.2911,2.3125,2.3821,2.3141,2.2693,2.2693,2.2837,2.2909,2.2927,2.4208,2.5016,2.5094,2.5154,2.4428,2.2698,2.3059,2.3006,2.2138,2.1927,2.1768,2.1581,2.1435,2.142,2.1487,2.1374,2.1342,2.1455,2.1358,2.1357,2.1455,2.1535,2.1778,2.2491,2.275,2.3155,2.4191,2.4523,2.4509,2.4369,2.4228,2.444,2.5017,2.5518,2.61,2.6658,2.6366,2.6287,2.6732,2.6349,2.6097,2.6235,2.622,2.594,2.551,2.5321,2.5593,2.6027,2.6144,2.6385,2.7027,2.713,2.7155,2.7207,2.7269,2.7382,2.3324,2.3365,2.3594,2.3718,2.3756,2.3955,2.4077,2.4229,2.4456,2.4723,2.4987,2.5119,2.5283,2.5484,2.5534,2.5605,2.5598,2.5598,2.5601,0.0,2.5605,2.5596,2.5603,2.5672,2.5699,2.5699,2.5699,2.5648,2.5603,2.5615,2.5564,2.5508,2.5511,2.5415,2.5259,2.5203,2.5065,2.4801,2.395,2.358,2.3731,2.2851,2.2371,2.2345,2.2335,2.2267,2.2177,2.267,2.2919,2.2933,2.3313,2.3559,2.3549,2.3506,2.3464,2.35,2.4091,2.4478,2.4503,2.5225,2.5956,2.6586,2.6439,2.5491,2.3712,2.3635,2.3638,2.3408,2.2785,2.2362,2.2216,2.1714,2.1649,2.2118,2.1681,2.1552,2.2151,2.173,2.1616,2.2167,2.2232,2.254,2.3237,2.3804,2.4176,2.4479,2.4734,2.4809,2.468,2.4221,2.4686,2.5848,2.6017,2.63,2.7021,2.6979,2.6712,2.6817,2.6704,2.6559,2.6523,2.6596,2.6556,2.6515,2.6425,2.6512,2.6657,2.6675,2.6753,2.7003,2.6963,2.6948,2.713,2.7207,2.7284,2.3151,2.3324,2.351,2.3649,2.3714,2.3947,2.4096,2.4211,2.4472,2.4723,2.4943,2.5099,2.5274,2.5495,2.558,2.5602,2.5609,2.5595,2.561,2.5615,2.5611,2.5638,2.5644,2.5641,2.5664,2.5699,2.5648,2.5619,2.5605,2.5596,2.5567,2.5515,2.5515,2.5404,2.5264,2.5219,2.5145,2.5044,2.445,2.4167,2.4189,2.3649,2.3382,2.3454,2.3422,2.3422,2.3428,2.3527,2.3556,2.3498,2.3967,2.4026,2.3541,2.4325,2.4605,2.4283,2.5332,2.6011,2.5993,2.6688,2.7028,2.6926,2.6989,2.6219,2.4272,2.4453,2.4381,2.3701,2.3291,2.3078,2.301,2.2685,2.2637,2.2944,2.2686,2.2653,2.2896,2.2718,2.2637,2.2929,2.2993,2.3269,2.3966,2.4322,2.4711,2.4978,2.5104,2.5286,2.588,2.5644,2.5625,2.6404,2.6474,2.6671,2.7329,2.71,2.6686,2.6355,2.6588,2.6559,2.6297,2.6413,2.6777,2.6794,2.6794,2.6794,2.6794,2.6779,2.6832,2.6846,2.6858,2.687,2.6963,2.7093,2.7258,2.302,2.3229,2.3383,2.3549,2.3714,2.3976,2.4134,2.4248,2.4493,2.4715,2.4949,2.5071,2.5279,2.5491,2.5564,2.5605,2.5602,2.5615,2.5596,2.5608,2.5597,2.564,2.5664,2.5629,2.563,2.5695,2.5632,2.5603,2.5603,2.559,2.5554,2.552,2.5507,2.5436,2.5274,2.5229,2.5157,2.507,2.4849,2.4723,2.4681,2.4582,2.4498,2.45,2.45,2.45,2.4482,2.4366,2.431,2.4296,2.4748,2.4712,2.4129,2.514,2.5551,2.5158,2.6241,2.7098,2.7281,2.7812,2.785,2.715,2.737,2.6851,2.5372,2.544,2.5146,2.4045,2.3827,2.3792,2.3708,2.3545,2.3544,2.3674,2.3577,2.3512,2.3674,2.3593,2.3594,2.3674,2.374,2.3982,2.4547,2.4742,2.4994,2.5497,2.5743,2.6282,2.7026,2.7042,2.6971,2.6856,2.6878,2.7056,2.739,2.6941,2.6392,2.5861,2.6224,2.6297,2.6065,2.6442,2.6721,2.6794,2.6794,2.6794,2.6794,2.6794,2.6779,2.682,2.6806,2.6806,2.6899,2.713,2.7382,2.2902,2.2982,2.3199,2.3463,2.3721,2.3927,2.4125,2.4292,2.4512,2.4782,2.5066,2.5225,2.5372,2.5499,2.5573,2.5595,2.5598,2.5601,2.5604,2.5601,2.5611,2.5599,2.5604,2.5614,2.563,2.5673,2.5632,2.5601,2.5603,2.5553,2.5517,2.5519,2.5511,2.5406,2.5224,2.5217,2.5128,2.5004,2.4856,2.4749,2.4707,2.4621,2.4557,2.45,2.45,2.45,2.4555,2.4986,2.5206,2.5152,2.5663,2.5853,2.5611,2.5747,2.5783,2.5747,2.6532,2.7299,2.7968,2.8049,2.7961,2.7894,2.7722,2.7422,2.6811,2.6638,2.5983,2.4848,2.4473,2.4419,2.4387,2.3917,2.3869,2.4338,2.395,2.374,2.4225,2.3869,2.3739,2.4355,2.4401,2.4677,2.5276,2.5451,2.5641,2.6081,2.6893,2.7449,2.7527,2.7742,2.7789,2.7504,2.7394,2.734,2.7246,2.6539,2.5933,2.5749,2.5821,2.6036,2.6326,2.6573,2.6794,2.6794,2.6794,2.6794,2.6794,2.6794,2.6794,2.6794,2.682,2.682,2.7003,2.7321,2.7655,2.2764,2.2919,2.3107,2.3389,2.3696,2.3884,2.4008,2.4154,2.4499,2.4759,2.4955,2.5226,2.5418,2.5505,2.5573,2.5612,2.5598,2.5601,2.561,2.56,2.5602,2.5622,2.5644,2.5606,2.5617,2.5639,2.5621,2.5607,2.559,2.5518,2.5513,2.5492,2.5456,2.5373,2.5224,2.5206,2.5136,2.4999,2.4938,2.4853,2.4707,2.4629,2.4566,2.4508,2.45,2.4741,2.5161,2.5268,2.5471,2.59,2.6387,2.6376,2.5836,2.668,2.7001,2.659,2.7184,2.7729,2.8067,2.7908,2.7792,2.7704,2.763,2.7402,2.6972,2.6674,2.6181,2.5576,2.5257,2.5146,2.5114,2.4887,2.4871,2.5082,2.4903,2.4855,2.5098,2.4903,2.4871,2.513,2.5146,2.5243,2.56,2.5969,2.6487,2.7015,2.7762,2.8068,2.8302,2.8256,2.8038,2.7806,2.7287,2.6708,2.6462,2.5776,2.5309,2.5299,2.556,2.5963,2.605,2.6559,2.6806,2.6779,2.6794,2.6794,2.6794,2.6794,2.6794,2.6794,2.6794,2.682,2.6873,2.7306,2.778,2.2632,2.2881,2.3089,2.3383,2.3638,2.3824,2.3979,2.4155,2.4522,2.4754,2.4955,2.524,2.541,2.5471,2.5564,2.5602,2.5615,2.5598,2.5613,2.5608,2.5603,2.5642,2.5664,2.5624,2.561,2.5603,2.5587,2.5583,2.5573,2.5531,2.5503,2.5511,2.5456,2.533,2.5189,2.516,2.5081,2.4933,2.4931,2.4861,2.4692,2.4637,2.4684,2.4806,2.4816,2.5206,2.5977,2.5925,2.6129,2.6695,2.7106,2.7067,2.6555,2.7571,2.7932,2.7406,2.7719,2.7968,2.7925,2.773,2.7615,2.7511,2.7465,2.731,2.6973,2.6607,2.6331,2.6119,2.5807,2.5581,2.5597,2.5597,2.5597,2.5597,2.5597,2.5597,2.5581,2.5597,2.5549,2.5597,2.5516,2.5694,2.5953,2.6519,2.7255,2.7998,2.8389,2.8548,2.8866,2.8548,2.8154,2.7806,2.6754,2.5971,2.5525,2.499,2.4655,2.4882,2.527,2.5575,2.573,2.6486,2.6806,2.6794,2.6794,2.6794,2.6794,2.6794,2.6794,2.6794,2.6794,2.6794,2.682,2.7342,2.7938,2.2565,2.276,2.3283,2.3464,2.3522,2.3789,2.4135,2.4431,2.4564,2.4828,2.5124,2.5264,2.5336,2.5433,2.5527,2.5599,2.5599,2.5615,2.5601,2.5601,2.5612,2.5599,2.5604,2.5615,2.56,2.5605,2.5556,2.5505,2.5523,2.5515,2.5511,2.5507,2.5488,2.536,2.513,2.5115,2.4981,2.4749,2.4791,2.4753,2.4629,2.4679,2.5005,2.5577,2.5633,2.5968,2.6748,2.7247,2.7497,2.7533,2.7885,2.8071,2.8053,2.8142,2.8105,2.7954,2.7961,2.7911,2.773,2.7585,2.7496,2.7465,2.739,2.7315,2.7202,2.6725,2.6401,2.6366,2.5881,2.5597,2.5597,2.5597,2.5597,2.5597,2.5597,2.5597,2.5597,2.5597,2.5597,2.5597,2.5597,2.5837,2.6487,2.7235,2.7826,2.8538,2.9275,2.9463,2.8855,2.8721,2.81,2.7104,2.61,2.5203,2.48,2.4305,2.4249,2.465,2.5052,2.5386,2.6181,2.6806,2.6806,2.6794,2.6794,2.6794,2.6794,2.6794,2.6794,2.6794,2.6794,2.6794,2.6794,2.763,2.8183,2.2501,2.2738,2.3193,2.3418,2.3528,2.3693,2.3998,2.4364,2.4472,2.4737,2.5068,2.5233,2.5341,2.5385,2.549,2.5567,2.5596,2.5612,2.5601,2.5596,2.5611,2.5599,2.5604,2.5642,2.5632,2.5608,2.5568,2.5534,2.5515,2.5507,2.5507,2.5507,2.5456,2.5313,2.5091,2.5081,2.4947,2.4695,2.4707,2.4715,2.466,2.4655,2.5223,2.6394,2.5968,2.607,2.6869,2.7339,2.7843,2.8347,2.8275,2.8196,2.8196,2.8196,2.814,2.7996,2.7896,2.7748,2.7585,2.7452,2.7376,2.7359,2.7329,2.7315,2.7202,2.6758,2.6401,2.6314,2.5917,2.5616,2.5597,2.5597,2.5597,2.5597,2.5597,2.5597,2.5597,2.5597,2.5597,2.5597,2.5613,2.5776,2.629,2.6979,2.7726,2.8237,2.8566,2.8632,2.8453,2.7837,2.7002,2.6366,2.542,2.4493,2.4063,2.3584,2.3557,2.4413,2.5038,2.5604,2.6341,2.6733,2.6779,2.6794,2.6794,2.6794,2.6794,2.6794,2.6794,2.6794,2.6794,2.6806,2.6794,2.768,2.8158,2.2487,2.2729,2.3082,2.3324,2.3494,2.3671,2.3978,2.433,2.4499,2.4741,2.5025,2.5217,2.5327,2.5378,2.5445,2.5534,2.5573,2.5592,2.5601,2.5613,2.5608,2.5597,2.5604,2.5649,2.5666,2.5612,2.559,2.5541,2.5515,2.5515,2.5507,2.5507,2.5456,2.5289,2.508,2.5056,2.4907,2.4668,2.4642,2.4695,2.4637,2.4629,2.5101,2.6012,2.6107,2.6637,2.765,2.789,2.822,2.8646,2.8419,2.8196,2.8196,2.8196,2.814,2.7996,2.7821,2.7642,2.7511,2.7392,2.7315,2.7315,2.7315,2.7315,2.7267,2.6842,2.6539,2.6331,2.601,2.5712,2.5616,2.5597,2.5597,2.5597,2.5597,2.5562,2.5505,2.5486,2.5464,2.5391,2.5371,2.5559,2.5964,2.6549,2.7137,2.769,2.7703,2.764,2.7332,2.6635,2.5716,2.5378,2.4751,2.4128,2.3786,2.3474,2.3679,2.4476,2.5125,2.5734,2.63,2.6634,2.6794,2.6794,2.6794,2.6794,2.6794,2.6794,2.6794,2.6794,2.6832,2.6858,2.7192,2.773,2.8183,2.2525,2.2646,2.297,2.3229,2.3435,2.3728,2.4087,2.4398,2.4604,2.4818,2.5095,2.5236,2.5303,2.5337,2.5433,2.549,2.5518,2.5567,2.5601,2.5613,2.5603,2.5612,2.5599,2.5654,2.5671,2.5598,2.5537,2.5515,2.552,2.5511,2.5507,2.5507,2.5507,2.5355,2.509,2.5031,2.4867,2.4676,2.4671,2.4621,2.4542,2.4631,2.4762,2.4999,2.6117,2.7557,2.9174,2.8922,2.8754,2.8749,2.8414,2.8209,2.8213,2.8196,2.8126,2.7982,2.7803,2.7642,2.7511,2.7392,2.7315,2.7315,2.7315,2.7315,2.725,2.6957,2.6657,2.6401,2.6119,2.5881,2.5654,2.5597,2.5597,2.5597,2.5578,2.5502,2.5371,2.5314,2.522,2.5064,2.5045,2.5286,2.5772,2.6067,2.6398,2.6792,2.6782,2.6458,2.6049,2.5484,2.4756,2.4286,2.4009,2.3767,2.3616,2.3554,2.4084,2.4626,2.5203,2.5789,2.6387,2.6794,2.6794,2.6794,2.6794,2.6794,2.6794,2.6794,2.6794,2.6806,2.6858,2.691,2.7229,2.768,2.8304,2.2385,2.2619,2.2868,2.3157,2.3479,2.3682,2.4031,2.4464,2.4636,2.4851,2.5089,2.5198,2.5253,2.5322,2.54,2.5449,2.5495,2.5557,2.5609,2.5601,2.5603,2.5611,2.5621,2.5675,2.5664,2.5609,2.5598,2.5541,2.5518,2.5515,2.5507,2.5507,2.5507,2.5379,2.5121,2.5031,2.4861,2.4629,2.4574,2.4574,2.4623,2.459,2.5105,2.625,2.6749,2.7687,2.9237,2.9134,2.8934,2.8815,2.8543,2.834,2.8223,2.8196,2.814,2.8014,2.7821,2.7657,2.7572,2.7423,2.7315,2.7315,2.7315,2.7315,2.7283,2.6989,2.6708,2.6435,2.6155,2.5881,2.5656,2.5597,2.5597,2.5597,2.5483,2.5371,2.5256,2.5158,2.4985,2.4791,2.4871,2.4957,2.4988,2.5264,2.5764,2.5829,2.5778,2.558,2.5505,2.4781,2.4459,2.4214,2.3891,2.3471,2.3312,2.3415,2.3952,2.4539,2.5154,2.5861,2.6471,2.6794,2.6794,2.6794,2.6794,2.6794,2.6794,2.6794,2.6794,2.6794,2.6806,2.6922,2.7074,2.7605,2.8288,2.2229,2.2569,2.2833,2.311,2.3461,2.3724,2.406,2.4459,2.4639,2.483,2.5012,2.5128,2.5203,2.5313,2.5359,2.5445,2.5501,2.5541,2.5557,2.5593,2.5605,2.5612,2.56,2.5649,2.5636,2.5587,2.5576,2.5541,2.5518,2.5515,2.5507,2.5507,2.5507,2.5393,2.5154,2.5068,2.4908,2.4668,2.4588,2.4617,2.4671,2.4864,2.5508,2.6522,2.7093,2.7864,2.8866,2.9087,2.9089,2.8815,2.8562,2.8345,2.8227,2.82,2.8172,2.8056,2.785,2.7672,2.7615,2.7438,2.7315,2.7315,2.7315,2.7315,2.7283,2.7054,2.6875,2.6556,2.6314,2.6045,2.5789,2.5562,2.5486,2.5502,2.5388,2.522,2.5084,2.4866,2.469,2.4549,2.4645,2.4549,2.455,2.4694,2.5112,2.4948,2.4826,2.4691,2.4658,2.4059,2.3848,2.37,2.3413,2.3113,2.2949,2.3273,2.3795,2.4414,2.5055,2.5854,2.6588,2.6736,2.6794,2.6794,2.6794,2.6794,2.6794,2.6794,2.6794,2.6794,2.6832,2.7141,2.7393,2.7815,2.8456,2.2104,2.2446,2.2832,2.3117,2.337,2.386,2.4192,2.4429,2.4621,2.4787,2.4922,2.505,2.5165,2.5298,2.536,2.5417,2.5495,2.5508,2.5548,2.5579,2.5603,2.5599,2.5605,2.5614,2.56,2.5571,2.5525,2.5515,2.5513,2.5503,2.5507,2.5507,2.5499,2.5402,2.5203,2.5132,2.4961,2.4719,2.4759,2.4743,2.4598,2.5313,2.5825,2.5977,2.7167,2.8021,2.8467,2.8952,2.9145,2.8797,2.8445,2.8223,2.8196,2.8182,2.8168,2.8126,2.7864,2.7716,2.7627,2.7452,2.7315,2.7315,2.7315,2.7315,2.7299,2.725,2.7105,2.6775,2.6487,2.6226,2.5919,2.5546,2.5298,2.5256,2.5197,2.5025,2.465,2.4426,2.4364,2.4323,2.4302,2.4302,2.4302,2.44,2.4394,2.4353,2.4179,2.404,2.3751,2.348,2.2791,2.2731,2.2979,2.2754,2.2609,2.2809,2.3319,2.3985,2.4729,2.5636,2.6463,2.668,2.6794,2.6794,2.6779,2.6779,2.6794,2.6794,2.6794,2.6794,2.7,2.7382,2.7705,2.8021,2.8504,2.2089,2.2415,2.2829,2.3158,2.3421,2.3842,2.4192,2.4461,2.4618,2.4772,2.4902,2.5051,2.5178,2.5297,2.5317,2.5378,2.5492,2.5517,2.5544,2.5601,2.5606,2.5605,2.5602,2.5605,2.5561,2.5531,2.5502,2.552,2.5488,2.5464,2.5456,2.5488,2.5459,2.5355,2.5217,2.5134,2.4961,2.4832,2.5254,2.5157,2.4798,2.5324,2.6032,2.6683,2.7056,2.7873,2.8856,2.8964,2.8934,2.8785,2.8419,2.8196,2.8168,2.8099,2.8056,2.8014,2.7766,2.7587,2.7587,2.7421,2.7315,2.7315,2.7315,2.7315,2.7315,2.7315,2.7137,2.6808,2.6436,2.6085,2.5777,2.5359,2.5045,2.4826,2.4811,2.469,2.4467,2.4343,2.4281,2.4281,2.4281,2.4281,2.4281,2.4281,2.4281,2.4261,2.4198,2.4073,2.3782,2.348,2.3024,2.2822,2.2844,2.2518,2.2356,2.2495,2.2855,2.3478,2.4297,2.5268,2.6087,2.6657,2.6753,2.6794,2.6738,2.6738,2.6779,2.6794,2.6794,2.6794,2.6974,2.7255,2.7605,2.7963,2.8519,2.2104,2.2432,2.2803,2.3117,2.3403,2.3798,2.4145,2.4434,2.4534,2.4716,2.4914,2.5006,2.5149,2.5297,2.5337,2.5388,2.546,2.5494,2.5522,2.554,2.5591,2.5603,2.5611,2.5612,2.5574,2.5522,2.5517,2.5515,2.5492,2.5429,2.5433,2.548,2.544,2.5351,2.5217,2.5143,2.5012,2.4817,2.515,2.5184,2.5127,2.5474,2.634,2.7149,2.7446,2.8077,2.9119,2.8991,2.8773,2.862,2.8335,2.8067,2.7996,2.7908,2.7879,2.785,2.7647,2.7509,2.7511,2.7407,2.7315,2.7315,2.7315,2.7315,2.7299,2.7266,2.7104,2.6923,2.6419,2.6049,2.5742,2.523,2.4771,2.4544,2.4487,2.4426,2.4317,2.4302,2.4281,2.4281,2.4281,2.4281,2.4281,2.4281,2.4281,2.4281,2.4281,2.4177,2.3994,2.3696,2.337,2.3105,2.2822,2.2526,2.231,2.2356,2.2635,2.3211,2.3978,2.4929,2.5761,2.6481,2.6606,2.6633,2.6645,2.6671,2.6727,2.6753,2.6794,2.6832,2.6922,2.7265,2.774,2.8158,2.8685,2.2089,2.2402,2.2755,2.3033,2.33,2.3714,2.4069,2.4337,2.4424,2.4643,2.494,2.4993,2.5105,2.5303,2.5356,2.5397,2.5421,2.5487,2.5496,2.5539,2.5562,2.5602,2.5598,2.5609,2.5573,2.5515,2.5515,2.5515,2.5484,2.5429,2.5433,2.5476,2.5444,2.5336,2.5233,2.5182,2.5038,2.4828,2.4981,2.5275,2.5584,2.5866,2.6637,2.7752,2.8227,2.854,2.9077,2.9021,2.8731,2.8491,2.8183,2.7936,2.7763,2.7701,2.7686,2.7674,2.7557,2.745,2.745,2.736,2.7315,2.7315,2.7315,2.7299,2.7266,2.7168,2.712,2.7038,2.6385,2.5923,2.554,2.4962,2.4574,2.4364,2.4317,2.4302,2.4281,2.4281,2.4281,2.4281,2.4281,2.4281,2.4281,2.4281,2.4281,2.4281,2.4281,2.4219,2.4135,2.3967,2.3566,2.3157,2.2889,2.2618,2.2411,2.2263,2.2607,2.3048,2.3798,2.4648,2.5521,2.6126,2.6334,2.6445,2.6486,2.6539,2.6647,2.67,2.6727,2.6959,2.7137,2.7665,2.824,2.8551,2.9028,2.2061,2.2335,2.2743,2.2925,2.3086,2.3624,2.3992,2.4201,2.4425,2.4712,2.4946,2.4993,2.5118,2.5302,2.5356,2.5393,2.5408,2.5467,2.5538,2.5591,2.5593,2.5602,2.5607,2.5609,2.5567,2.5531,2.5511,2.5511,2.5484,2.544,2.5436,2.548,2.5419,2.5327,2.5222,2.5204,2.5063,2.4929,2.5313,2.56,2.5843,2.634,2.7037,2.8059,2.8709,2.9136,2.9251,2.9112,2.8767,2.8394,2.8124,2.7911,2.7719,2.7585,2.7539,2.7526,2.7436,2.7345,2.7346,2.733,2.7315,2.7315,2.7315,2.7249,2.7152,2.7119,2.7087,2.6908,2.6261,2.5572,2.4918,2.4553,2.4364,2.4302,2.4281,2.4281,2.4281,2.4281,2.4281,2.4281,2.4281,2.4281,2.4281,2.4281,2.4281,2.4281,2.4281,2.4261,2.4219,2.4156,2.3824,2.3377,2.3024,2.2777,2.2526,2.2347,2.2447,2.2788,2.347,2.4041,2.4923,2.5797,2.6032,2.6199,2.6326,2.642,2.6515,2.6566,2.6592,2.6982,2.7352,2.7874,2.836,2.8803,2.9234,2.2206,2.2405,2.2632,2.282,2.3054,2.3533,2.3883,2.4145,2.4444,2.4761,2.4954,2.4993,2.5124,2.5307,2.5365,2.5382,2.5408,2.5483,2.5539,2.5599,2.56,2.5623,2.5641,2.562,2.5564,2.5511,2.5511,2.5511,2.5499,2.5444,2.5417,2.5433,2.5415,2.5322,2.5212,2.5193,2.505,2.5007,2.552,2.587,2.5925,2.6525,2.7278,2.8096,2.8913,2.9378,2.9326,2.9134,2.8743,2.8329,2.8069,2.7821,2.7572,2.7452,2.7405,2.739,2.7345,2.7315,2.7315,2.7315,2.7315,2.7315,2.7315,2.7217,2.7136,2.7087,2.7023,2.6825,2.6314,2.5538,2.4699,2.4364,2.4323,2.4281,2.4281,2.4281,2.4281,2.4281,2.4281,2.4281,2.4281,2.4281,2.4281,2.4281,2.4281,2.4281,2.4281,2.4281,2.4281,2.4198,2.4051,2.3696,2.3282,2.2949,2.2686,2.2463,2.2315,2.2615,2.3009,2.3414,2.3917,2.4869,2.5769,2.5937,2.6133,2.6272,2.634,2.6392,2.6472,2.6695,2.7122,2.7799,2.8408,2.8826,2.9296,2.2335,2.2487,2.2501,2.2716,2.3052,2.3375,2.3727,2.4041,2.4382,2.4693,2.4961,2.5,2.5103,2.5274,2.5364,2.5391,2.5433,2.5487,2.5542,2.5605,2.5599,2.5643,2.5669,2.5627,2.557,2.5518,2.5511,2.5511,2.5503,2.5448,2.5397,2.5397,2.54,2.5313,2.5209,2.5164,2.5044,2.4936,2.5504,2.6039,2.6214,2.6823,2.7557,2.8393,2.8969,2.9368,2.9304,2.9134,2.8791,2.825,2.8051,2.773,2.7421,2.7315,2.7315,2.7315,2.7315,2.7315,2.7315,2.7315,2.7315,2.7315,2.7283,2.7201,2.7104,2.704,2.6942,2.6708,2.6279,2.5633,2.4965,2.4533,2.4323,2.4281,2.4281,2.4281,2.4281,2.4281,2.4281,2.4281,2.4281,2.4281,2.4281,2.4281,2.4281,2.4281,2.4281,2.4281,2.4261,2.424,2.4094,2.3903,2.348,2.2881,2.2549,2.2434,2.2287,2.239,2.27,2.2939,2.3182,2.3864,2.4815,2.5646,2.59,2.6053,2.615,2.6218,2.6326,2.6459,2.693,2.764,2.824,2.8826,2.925,2.2132,2.2436,2.2474,2.2582,2.2734,2.3105,2.3475,2.3795,2.4165,2.4551,2.4949,2.5006,2.5109,2.5269,2.5364,2.5429,2.5479,2.5499,2.5542,2.5604,2.56,2.5624,2.5671,2.5625,2.5579,2.5577,2.5549,2.5511,2.5503,2.5448,2.5406,2.5397,2.5372,2.5279,2.5164,2.5113,2.5044,2.5077,2.5614,2.6211,2.6819,2.7447,2.8189,2.8932,2.9295,2.9359,2.9376,2.9272,2.895,2.835,2.821,2.7861,2.7452,2.7315,2.7315,2.7315,2.7315,2.7315,2.7315,2.7315,2.7315,2.7283,2.7201,2.7104,2.7006,2.6958,2.6876,2.6607,2.6086,2.5427,2.4942,2.4553,2.4323,2.4281,2.4281,2.4281,2.4281,2.4281,2.4281,2.4281,2.4281,2.4281,2.4281,2.4281,2.4281,2.4281,2.4281,2.424,2.4177,2.4177,2.4135,2.3925,2.3689,2.2994,2.2379,2.231,2.2222,2.2222,2.2433,2.2644,2.2873,2.3097,2.3769,2.4664,2.5439,2.5819,2.593,2.6013,2.6245,2.6418,2.6941,2.7449,2.8012,2.8519,2.8842,2.1899,2.2203,2.2229,2.2385,2.2668,2.3177,2.3486,2.367,2.421,2.4625,2.4862,2.4968,2.5109,2.5269,2.5364,2.5441,2.5501,2.5544,2.5571,2.5603,2.56,2.5624,2.5689,2.5622,2.561,2.5583,2.5533,2.5507,2.5507,2.548,2.5429,2.5385,2.5336,2.5236,2.51,2.498,2.5144,2.5385,2.6059,2.6625,2.7146,2.7782,2.8552,2.9165,2.9388,2.9388,2.9386,2.9334,2.9007,2.8522,2.829,2.7929,2.7572,2.7329,2.7315,2.7315,2.7315,2.7315,2.7315,2.7315,2.7282,2.7184,2.7135,2.7038,2.6975,2.6909,2.6825,2.6573,2.5998,2.5427,2.5237,2.4659,2.4343,2.4281,2.4281,2.4281,2.4281,2.4281,2.4281,2.4281,2.4281,2.4281,2.4281,2.4281,2.4281,2.4281,2.4281,2.4198,2.4114,2.3867,2.376,2.3653,2.337,2.2912,2.2333,2.224,2.2194,2.2194,2.2222,2.2419,2.2601,2.2831,2.3154,2.3755,2.45,2.5274,2.5555,2.5621,2.6005,2.6308,2.6622,2.7008,2.766,2.8174,2.8503,2.1688,2.1998,2.1998,2.2229,2.2655,2.3177,2.3486,2.3667,2.4238,2.4659,2.4857,2.4968,2.5126,2.5293,2.5395,2.5461,2.5515,2.5562,2.5564,2.5597,2.5586,2.5597,2.5642,2.5622,2.5586,2.5589,2.5503,2.5488,2.5507,2.5507,2.5456,2.5376,2.5279,2.5304,2.533,2.5258,2.5529,2.6112,2.683,2.7233,2.7606,2.8061,2.8653,2.9314,2.9388,2.9388,2.9396,2.9355,2.903,2.8609,2.8285,2.801,2.7569,2.7376,2.7315,2.7315,2.7315,2.7315,2.7299,2.7266,2.72,2.7117,2.707,2.699,2.6925,2.6859,2.6775,2.6573,2.598,2.5503,2.5351,2.4744,2.4385,2.4281,2.4281,2.4281,2.4281,2.4281,2.4281,2.4281,2.4281,2.4281,2.4281,2.4281,2.4281,2.4281,2.4281,2.4114,2.3909,2.326,2.3068,2.3113,2.2957,2.2663,2.2356,2.2217,2.2194,2.2194,2.2194,2.2292,2.2433,2.2587,2.2897,2.3126,2.373,2.4432,2.4797,2.5149,2.5364,2.5649,2.605,2.6617,2.7318,2.7854,2.8229,2.1688,2.1998,2.1998,2.22,2.2525,2.2867,2.3248,2.361,2.3974,2.4462,2.5013,2.5088,2.5195,2.5359,2.5449,2.5502,2.5551,2.5537,2.5563,2.5586,2.5555,2.5572,2.5587,2.5541,2.5548,2.557,2.5488,2.546,2.5484,2.5503,2.548,2.5385,2.5317,2.5459,2.588,2.5695,2.6168,2.6859,2.7615,2.8301,2.8878,2.9091,2.9258,2.9351,2.9388,2.9388,2.9388,2.9347,2.9086,2.8566,2.8376,2.8034,2.7585,2.7376,2.733,2.7315,2.7315,2.7315,2.7299,2.7217,2.7135,2.7086,2.7006,2.6942,2.6859,2.6792,2.6725,2.6674,2.5998,2.5559,2.5389,2.4764,2.441,2.4281,2.4281,2.4281,2.4281,2.4281,2.4281,2.4281,2.4281,2.4281,2.4281,2.4281,2.4281,2.4281,2.424,2.4073,2.3696,2.3016,2.2609,2.2663,2.2709,2.2457,2.2356,2.2217,2.2194,2.2194,2.2194,2.2194,2.2292,2.239,2.232,2.2658,2.3196,2.3674,2.4134,2.443,2.4613,2.5062,2.5606,2.6289,2.7012,2.7489,2.8008,2.1479,2.1703,2.172,2.2017,2.247,2.293,2.3271,2.3581,2.4052,2.4519,2.491,2.5069,2.5236,2.5498,2.5483,2.5541,2.5586,2.5582,2.557,2.5604,2.5567,2.5577,2.5578,2.5528,2.552,2.5513,2.5449,2.5432,2.5459,2.5499,2.5464,2.5421,2.5322,2.5516,2.6182,2.6023,2.6621,2.7494,2.8376,2.8969,2.9285,2.9388,2.9388,2.9388,2.9388,2.9388,2.9388,2.9378,2.9097,2.8603,2.8376,2.8047,2.7612,2.7392,2.7315,2.7315,2.7315,2.7315,2.7299,2.7234,2.7153,2.7055,2.6975,2.6909,2.6842,2.6725,2.6674,2.6691,2.6192,2.5762,2.5446,2.4981,2.4614,2.4405,2.4281,2.4281,2.4281,2.4281,2.4281,2.4281,2.4281,2.4281,2.4281,2.4281,2.4251,2.4174,2.4137,2.4009,2.3523,2.2791,2.2495,2.2379,2.2379,2.231,2.2263,2.2194,2.2194,2.2194,2.2194,2.2194,2.2194,2.2208,2.2194,2.2194,2.2559,2.3023,2.3473,2.392,2.4312,2.4756,2.5228,2.6083,2.6904,2.7489,2.7959,2.1324,2.1524,2.1569,2.1899,2.2419,2.2995,2.3306,2.3471,2.4136,2.4578,2.4915,2.5338,2.5784,2.5998,2.6022,2.5979,2.594,2.5703,2.5617,2.5603,2.5601,2.558,2.5551,2.5517,2.5503,2.5515,2.5436,2.5584,2.5766,2.5784,2.5781,2.5487,2.5254,2.5734,2.6201,2.6238,2.6566,2.7948,2.8868,2.9314,2.9388,2.9388,2.9388,2.9388,2.9388,2.9388,2.9388,2.9388,2.9097,2.8791,2.8415,2.8102,2.773,2.7452,2.733,2.7315,2.7315,2.7282,2.725,2.7185,2.7154,2.7057,2.6942,2.6842,2.6725,2.6657,2.6556,2.6505,2.5944,2.5615,2.5368,2.4958,2.4614,2.4385,2.4281,2.4281,2.4281,2.4281,2.4281,2.4281,2.4281,2.4281,2.4281,2.4281,2.422,2.4102,2.4009,2.3937,2.3436,2.2768,2.254,2.2434,2.231,2.2263,2.2217,2.2194,2.2194,2.2194,2.2194,2.2194,2.2194,2.2194,2.2194,2.2194,2.2208,2.2615,2.3234,2.3635,2.4052,2.4851,2.56,2.6178,2.6867,2.7485,2.7959,2.1309,2.1539,2.1764,2.2046,2.2366,2.2897,2.3194,2.3414,2.4077,2.4637,2.5184,2.6073,2.697,2.742,2.7009,2.6761,2.6734,2.5944,2.5702,2.5608,2.5544,2.5535,2.5492,2.5457,2.5483,2.5588,2.5631,2.599,2.6443,2.6597,2.6148,2.5532,2.5691,2.625,2.6724,2.6898,2.7091,2.8209,2.9033,2.9378,2.9396,2.9396,2.9388,2.9388,2.9388,2.9388,2.9388,2.9368,2.9243,2.8927,2.8522,2.8183,2.7829,2.7498,2.733,2.7315,2.7299,2.7233,2.7152,2.7121,2.704,2.6958,2.6859,2.6741,2.6691,2.6333,2.6192,2.6157,2.5689,2.5218,2.4922,2.4619,2.4513,2.4343,2.4281,2.4281,2.4281,2.4281,2.4281,2.4281,2.4281,2.4281,2.4281,2.4281,2.4189,2.4071,2.3998,2.3946,2.361,2.3061,2.2799,2.2595,2.2379,2.2263,2.2217,2.2194,2.2194,2.2194,2.2194,2.2194,2.2194,2.2194,2.2194,2.2264,2.232,2.2644,2.3037,2.3681,2.4396,2.5247,2.5948,2.647,2.715,2.7877,2.8186,2.1525,2.1794,2.2215,2.2457,2.2565,2.293,2.3265,2.3703,2.4681,2.5475,2.5991,2.6601,2.7034,2.733,2.7723,2.7401,2.6979,2.6673,2.6143,2.5687,2.5537,2.5525,2.546,2.5532,2.5655,2.6084,2.6212,2.6583,2.7344,2.7354,2.733,2.6977,2.6836,2.7405,2.7857,2.8007,2.8344,2.855,2.9103,2.9326,2.9355,2.9386,2.9388,2.9388,2.9355,2.9365,2.9376,2.9304,2.9127,2.8832,2.844,2.8143,2.7858,2.7481,2.7313,2.7299,2.725,2.7168,2.7103,2.7071,2.7023,2.6925,2.6809,2.6708,2.6674,2.6315,2.6141,2.5926,2.5559,2.5079,2.4863,2.4759,2.4655,2.4405,2.4281,2.4281,2.4281,2.4281,2.4281,2.4281,2.4281,2.4281,2.4281,2.4281,2.4158,2.4051,2.3987,2.3903,2.361,2.337,2.3091,2.2785,2.2572,2.231,2.224,2.2217,2.2194,2.2194,2.2194,2.2194,2.2194,2.2194,2.2208,2.2292,2.2531,2.2939,2.3417,2.3966,2.4646,2.542,2.6084,2.6703,2.7418,2.822,2.8363,2.1554,2.1823,2.2351,2.2628,2.2721,2.3072,2.3432,2.3945,2.5151,2.6256,2.7028,2.7406,2.7485,2.7587,2.815,2.8107,2.7591,2.7284,2.6702,2.6287,2.6001,2.5887,2.5808,2.5889,2.6246,2.6791,2.6765,2.7017,2.8209,2.7986,2.8198,2.8472,2.8646,2.8865,2.875,2.9248,2.9304,2.9021,2.9188,2.9243,2.9272,2.9304,2.9326,2.9326,2.9283,2.9302,2.9294,2.9232,2.9034,2.873,2.8389,2.8047,2.776,2.7496,2.7313,2.7217,2.7168,2.7086,2.7071,2.7039,2.6974,2.6842,2.6758,2.6691,2.6607,2.6229,2.5872,2.5817,2.5427,2.504,2.4724,2.4619,2.4553,2.4302,2.4281,2.4281,2.4281,2.4281,2.4281,2.4281,2.4281,2.4281,2.4281,2.4261,2.411,2.3938,2.3723,2.3715,2.3739,2.3523,2.3326,2.3046,2.2777,2.2503,2.2263,2.2217,2.2194,2.2194,2.2194,2.2194,2.2194,2.217,2.2194,2.2236,2.2587,2.3192,2.3684,2.4118,2.4812,2.5556,2.6332,2.716,2.768,2.8363,2.8387,2.134,2.1553,2.2122,2.247,2.273,2.3253,2.3646,2.4061,2.5296,2.6594,2.7865,2.8691,2.8699,2.8436,2.8984,2.8878,2.8142,2.8008,2.7583,2.6938,2.6576,2.6643,2.6648,2.6693,2.6972,2.7431,2.7437,2.7783,2.9058,2.8593,2.8996,2.9681,2.9829,2.9653,2.9024,2.929,2.8987,2.8341,2.8944,2.9126,2.92,2.9229,2.9222,2.9222,2.9218,2.9218,2.924,2.9178,2.8996,2.8706,2.835,2.8034,2.7789,2.745,2.7249,2.7151,2.7103,2.7022,2.6926,2.6909,2.6825,2.6758,2.6708,2.6691,2.6539,2.6104,2.5631,2.5652,2.502,2.4553,2.4364,2.4343,2.4323,2.4323,2.4302,2.4281,2.4281,2.4281,2.4281,2.4281,2.4281,2.4281,2.4281,2.424,2.4051,2.3823,2.3504,2.3473,2.364,2.3588,2.337,2.3179,2.2889,2.2663,2.2402,2.224,2.2194,2.2194,2.2194,2.2194,2.2147,2.2137,2.2161,2.2208,2.2635,2.3209,2.3692,2.416,2.504,2.5948,2.6956,2.775,2.8186,2.8411,2.8411,2.1539,2.1792,2.2354,2.2621,2.2768,2.3271,2.3724,2.4321,2.5551,2.6882,2.8104,2.9076,2.9032,2.8878,2.9549,2.9629,2.8476,2.8259,2.7876,2.7602,2.7171,2.7159,2.7267,2.7492,2.7832,2.8382,2.8355,2.8561,2.9883,2.9295,2.9569,3.0247,3.0286,3.0066,2.9654,2.9541,2.9133,2.8892,2.9045,2.9123,2.9134,2.9186,2.9207,2.9197,2.9145,2.9163,2.9186,2.9112,2.8945,2.8694,2.8347,2.8024,2.7728,2.7386,2.72,2.7136,2.7087,2.6908,2.6809,2.6775,2.6742,2.6725,2.6708,2.6708,2.6624,2.6244,2.5852,2.5484,2.5001,2.4614,2.4405,2.4323,2.4302,2.4302,2.4281,2.4281,2.4281,2.4281,2.4281,2.4281,2.4281,2.4281,2.4281,2.424,2.4094,2.3839,2.3519,2.3342,2.3428,2.3414,2.3304,2.3194,2.2979,2.2754,2.2526,2.231,2.2194,2.2194,2.2194,2.2194,2.2147,2.2067,2.2147,2.2217,2.271,2.3211,2.3876,2.4569,2.5467,2.6407,2.7122,2.7665,2.7965,2.8226,2.8411,2.16,2.1936,2.2374,2.2695,2.2898,2.3382,2.4196,2.5313,2.6473,2.7611,2.8671,2.9557,2.9305,2.9101,2.9843,3.0232,2.8843,2.9092,2.8757,2.8468,2.7979,2.8023,2.8154,2.826,2.8713,2.9193,2.9206,2.9398,3.0145,2.9934,2.9998,3.0171,3.0221,3.0011,2.9796,2.9579,2.9378,2.9183,2.9141,2.9074,2.9085,2.9108,2.9112,2.91,2.9089,2.9096,2.9078,2.9021,2.8893,2.8626,2.8308,2.7982,2.7666,2.7384,2.7168,2.7105,2.6957,2.6792,2.6742,2.6725,2.6725,2.6708,2.6708,2.6708,2.6624,2.6297,2.6016,2.567,2.5234,2.4879,2.4574,2.4472,2.4323,2.4323,2.4281,2.4281,2.4281,2.4281,2.4281,2.4281,2.4281,2.4281,2.4281,2.4219,2.412,2.3824,2.3551,2.3392,2.3238,2.3194,2.315,2.3038,2.2912,2.2686,2.248,2.231,2.2217,2.2194,2.2194,2.217,2.203,2.1949,2.21,2.2194,2.2404,2.2891,2.411,2.4981,2.5605,2.6136,2.6733,2.7229,2.7675,2.7989,2.825,2.1493,2.1915,2.2204,2.263,2.3141,2.3728,2.5179,2.717,2.7846,2.8615,2.9509,3.0313,2.9878,2.8965,3.0174,3.0308,2.9659,3.0139,2.9881,2.9417,2.8958,2.9013,2.8967,2.9015,2.9398,2.9647,2.9672,2.9575,3.0158,2.9812,2.9819,3.0087,3.0085,2.9915,2.9767,2.9607,2.9425,2.9203,2.9085,2.904,2.904,2.9028,2.9021,2.9021,2.901,2.9028,2.901,2.8975,2.8846,2.8601,2.8281,2.7982,2.7651,2.7305,2.7119,2.6974,2.6808,2.6775,2.6708,2.6708,2.6708,2.6708,2.6708,2.6708,2.6624,2.6419,2.6192,2.5908,2.5521,2.5176,2.4879,2.4599,2.4385,2.4343,2.4302,2.4281,2.4281,2.4281,2.4281,2.4281,2.4281,2.4281,2.4281,2.424,2.4141,2.3867,2.3588,2.3348,2.3172,2.2971,2.2926,2.2822,2.2709,2.2609,2.2449,2.2379,2.2333,2.2356,2.2194,2.2147,2.1959,2.1831,2.1888,2.1926,2.1872,2.2516,2.3713,2.4646,2.5398,2.5909,2.627,2.6878,2.7382,2.7725,2.7989,2.1772,2.1972,2.2596,2.2967,2.3306,2.4718,2.5878,2.6684,2.766,2.8642,2.9553,3.0412,3.0154,2.9394,3.0343,3.0204,2.996,2.9772,2.9994,2.9811,2.9553,2.9544,2.9596,2.9699,2.9966,2.9966,2.9928,2.9818,3.0047,2.9754,2.9808,3.0147,2.9981,2.9809,2.9662,2.9504,2.9293,2.9149,2.9021,2.8998,2.8987,2.8987,2.8987,2.8987,2.8987,2.8987,2.8987,2.8987,2.887,2.8614,2.8277,2.7978,2.7716,2.7293,2.6991,2.6825,2.6808,2.6842,2.6742,2.6708,2.6708,2.6708,2.6708,2.6708,2.6657,2.6573,2.6384,2.6104,2.5835,2.5521,2.5118,2.4799,2.4513,2.4343,2.4302,2.4281,2.4281,2.4281,2.4281,2.4281,2.4281,2.4281,2.4281,2.4281,2.4177,2.3888,2.3631,2.3399,2.3135,2.2912,2.2777,2.2709,2.2549,2.2449,2.2609,2.2609,2.254,2.2472,2.231,2.2123,2.1902,2.1759,2.1698,2.1753,2.1907,2.2456,2.3318,2.417,2.4932,2.5337,2.5753,2.6416,2.7034,2.7357,2.779,2.2581,2.2897,2.336,2.3595,2.3923,2.5399,2.6399,2.7065,2.8132,2.8984,2.9515,3.0371,3.0484,3.0162,3.0512,3.0503,3.0141,3.0093,3.0182,3.0123,2.9863,2.9925,3.0061,3.0116,3.0104,3.0109,3.0094,3.003,3.0102,3.0083,3.0113,3.0121,2.9894,2.9724,2.9551,2.9346,2.9144,2.9037,2.8975,2.8987,2.8987,2.9005,2.8987,2.8987,2.8987,2.8987,2.8987,2.8987,2.8893,2.8688,2.8368,2.802,2.7745,2.7308,2.6892,2.6758,2.6775,2.6792,2.6725,2.6708,2.6708,2.6708,2.6708,2.6708,2.6708,2.6641,2.6522,2.6367,2.6139,2.587,2.5408,2.4981,2.4659,2.4343,2.4323,2.4281,2.4281,2.4281,2.4281,2.4281,2.4281,2.4281,2.4281,2.4281,2.424,2.4073,2.3824,2.3545,2.3201,2.2889,2.2777,2.2709,2.2495,2.231,2.2518,2.27,2.2655,2.2526,2.2374,2.2156,2.1888,2.1568,2.1399,2.1639,2.2042,2.2564,2.3037,2.3692,2.4393,2.4801,2.5256,2.5895,2.6466,2.6878,2.7382,2.3712,2.434,2.4405,2.4493,2.4793,2.5928,2.6919,2.7907,2.8954,2.9511,2.9746,3.036,3.0685,3.0568,3.0662,3.0694,3.0514,3.0454,3.0351,3.0399,3.0286,3.0244,3.0144,3.015,3.0109,3.0138,3.0123,3.0076,3.0095,3.008,3.0053,3.008,2.9836,2.9634,2.9447,2.9235,2.9056,2.8905,2.8905,2.8952,2.8982,2.8994,2.8987,2.8987,2.8987,2.8987,2.8987,2.9005,2.8994,2.8761,2.8476,2.8093,2.7639,2.7322,2.694,2.6758,2.6758,2.6758,2.6725,2.6708,2.6708,2.6708,2.6708,2.6708,2.6708,2.6708,2.6624,2.6556,2.6367,2.6104,2.5689,2.5275,2.4922,2.4578,2.439,2.4343,2.4281,2.4281,2.4281,2.4281,2.4281,2.4281,2.4281,2.4281,2.4281,2.4198,2.4073,2.376,2.3501,2.3091,2.2799,2.2731,2.2449,2.2287,2.2426,2.2586,2.264,2.2558,2.242,2.2095,2.1769,2.1399,2.1021,2.1383,2.178,2.2201,2.271,2.3354,2.3915,2.4396,2.4866,2.5384,2.5893,2.633,2.7056,2.5033,2.5202,2.5149,2.5373,2.5895,2.6866,2.7185,2.7282,2.942,3.0281,3.0427,3.0576,3.0704,3.0672,3.0652,3.0665,3.0678,3.0607,3.0533,3.0472,3.0432,3.0346,3.0214,3.0164,3.0094,3.0019,2.9996,3.0022,3.0041,3.0026,2.9999,3.0038,2.9803,2.957,2.9369,2.9183,2.8978,2.8785,2.881,2.887,2.8917,2.8947,2.8959,2.8982,2.8994,2.8994,2.9005,2.8987,2.887,2.8651,2.8321,2.784,2.7261,2.7103,2.694,2.6758,2.6758,2.6758,2.6708,2.6708,2.6708,2.6708,2.6708,2.6708,2.6708,2.6708,2.6691,2.6657,2.6539,2.6264,2.598,2.5577,2.5195,2.4823,2.4497,2.441,2.4302,2.4281,2.4281,2.4281,2.4281,2.4281,2.4281,2.4281,2.4281,2.4281,2.4261,2.4114,2.3967,2.3631,2.2994,2.2791,2.2402,2.2301,2.2402,2.2503,2.2595,2.2572,2.2434,2.2063,2.1664,2.1229,2.0898,2.112,2.1467,2.187,2.2338,2.2911,2.3469,2.4021,2.4423,2.4897,2.5294,2.5718,2.6623,2.6153,2.6361,2.6603,2.6469,2.6416,2.7312,2.7582,2.7672,2.9243,3.0283,3.0625,3.0662,3.0669,3.0649,3.0618,3.0614,3.0637,3.0595,3.0516,3.0467,3.0441,3.0377,3.0292,3.0178,3.0113,3.0003,2.9893,2.9887,2.9929,2.9895,2.9859,2.991,2.9699,2.9484,2.9287,2.9101,2.8892,2.8657,2.8682,2.8749,2.8822,2.8846,2.8881,2.8929,2.8952,2.897,2.9005,2.8975,2.8846,2.85,2.8075,2.7592,2.7151,2.694,2.6825,2.6758,2.6742,2.6758,2.6725,2.6708,2.6708,2.6708,2.6708,2.6708,2.6708,2.6708,2.6708,2.6674,2.6674,2.6453,2.6157,2.5799,2.5351,2.4965,2.4744,2.4599,2.4431,2.4281,2.4281,2.4281,2.4281,2.4281,2.4281,2.4281,2.4281,2.4281,2.4281,2.4177,2.4073,2.4051,2.3436,2.2926,2.2632,2.2347,2.2287,2.2434,2.2595,2.2526,2.2388,2.1983,2.1506,2.1071,2.0812,2.1095,2.1326,2.1509,2.2004,2.2596,2.3222,2.3851,2.4125,2.4383,2.4772,2.5196,2.5956,2.7235,2.7727,2.8165,2.7713,2.6858,2.7704,2.8164,2.8266,2.9113,2.993,3.0543,3.0588,3.0593,3.0617,3.0617,3.0593,3.0574,3.0569,3.0505,3.0444,3.0433,3.0377,3.028,3.0145,3.0049,2.9951,2.9808,2.9756,2.9738,2.9729,2.9747,2.9719,2.9551,2.9293,2.9152,2.8962,2.8749,2.8582,2.8543,2.86,2.8675,2.8749,2.8822,2.887,2.8893,2.8935,2.894,2.8929,2.8822,2.843,2.7922,2.7504,2.7133,2.6924,2.6792,2.6725,2.6725,2.6725,2.6708,2.6708,2.6708,2.6708,2.6708,2.6708,2.6708,2.6708,2.6708,2.6708,2.6708,2.6607,2.6332,2.6033,2.5561,2.5121,2.4926,2.4699,2.4472,2.4281,2.4281,2.4281,2.4281,2.4281,2.4281,2.4281,2.4281,2.4281,2.4219,2.4078,2.3994,2.4015,2.376,2.3334,2.3001,2.2709,2.2402,2.2333,2.2503,2.2365,2.218,2.1779,2.1434,2.118,2.1071,2.1155,2.1337,2.1554,2.1817,2.2334,2.3007,2.3583,2.3749,2.3981,2.4542,2.4955,2.5321,2.8617,2.9159,2.8925,2.8721,2.8723,2.8964,2.9079,2.925,2.9915,3.0462,3.0525,3.0535,3.0559,3.0617,3.0617,3.0579,3.05,3.053,3.0471,3.0403,3.0458,3.04,3.0286,3.0118,2.9956,2.9816,2.971,2.972,2.9645,2.9655,2.9692,2.9673,2.9701,2.9423,2.906,2.889,2.8797,2.8582,2.8445,2.8471,2.8523,2.8594,2.8731,2.8798,2.8822,2.8822,2.8834,2.8852,2.8712,2.8396,2.7911,2.7535,2.7227,2.6989,2.6808,2.6725,2.6708,2.6708,2.6708,2.6708,2.6708,2.6708,2.6708,2.6708,2.6708,2.6708,2.6708,2.6708,2.6708,2.6708,2.647,2.6245,2.5872,2.5297,2.4965,2.4639,2.4343,2.4317,2.4281,2.4281,2.4281,2.4281,2.4281,2.4281,2.4281,2.4281,2.4281,2.4177,2.4156,2.4099,2.4036,2.3724,2.3377,2.3024,2.2686,2.2287,2.2287,2.2156,2.2016,2.1746,2.1568,2.152,2.1447,2.124,2.1482,2.1783,2.2053,2.2147,2.2552,2.3065,2.3273,2.3584,2.4176,2.466,2.4997]}]]